     2              OBSERVATION DATA    GPS                 RINEX VERSION / TYPE
teqc 2003Nov3 UNAVCO Archive Ops 20031119 21:54:33UTC       PGM / RUN BY / DATE
                                                            COMMENT
L2: 1 -> 1; 5 -> 5; 60 -> 9                                 COMMENT
L2: 1 -> 1; 5 -> 5; 60 -> 9                                 COMMENT
L2: 1 -> 1; 5 -> 5; 60 -> 9                                 COMMENT
L2: 1 -> 1; 5 -> 5; 60 -> 9                                 COMMENT
L2: 1 -> 1; 5 -> 5; 60 -> 9                                 COMMENT
L2: 1 -> 1; 5 -> 5; 60 -> 9                                 COMMENT
L2: 1 -> 1; 5 -> 5; 60 -> 9                                 COMMENT
L2: 1 -> 1; 5 -> 5; 60 -> 9                                 COMMENT
L2: 1 -> 1; 5 -> 5; 60 -> 9                                 COMMENT
L2: 1 -> 1; 5 -> 5; 60 -> 9                                 COMMENT
L2: 1 -> 1; 5 -> 5; 60 -> 9                                 COMMENT
L2: 1 -> 1; 5 -> 5; 60 -> 9                                 COMMENT
L2: 1 -> 1; 5 -> 5; 60 -> 9                                 COMMENT
L2: 1 -> 1; 5 -> 5; 60 -> 9                                 COMMENT
L2: 1 -> 1; 5 -> 5; 60 -> 9                                 COMMENT
L2: 1 -> 1; 5 -> 5; 60 -> 9                                 COMMENT
L2: 1 -> 1; 5 -> 5; 60 -> 9                                 COMMENT
L2: 1 -> 1; 5 -> 5; 60 -> 9                                 COMMENT
L2: 1 -> 1; 5 -> 5; 60 -> 9                                 COMMENT
L2: 1 -> 1; 5 -> 5; 60 -> 9                                 COMMENT
L2: 1 -> 1; 5 -> 5; 60 -> 9                                 COMMENT
L2: 1 -> 1; 5 -> 5; 60 -> 9                                 COMMENT
L2: 1 -> 1; 5 -> 5; 60 -> 9                                 COMMENT
L2: 1 -> 1; 5 -> 5; 60 -> 9                                 COMMENT
L2: 1 -> 1; 5 -> 5; 60 -> 9                                 COMMENT
L2: 1 -> 1; 5 -> 5; 60 -> 9                                 COMMENT
Original Marker Name: PION                                  COMMENT
Campaign Name: CWU ECSZ 2001                                COMMENT
4-Character Station Name: PION                              COMMENT
6-Character Antenna Code: DMRCHT                            COMMENT
Vertical Measurement Point: BCR                             COMMENT
Vertical Offset to Rinex Ref. Point: 0.0348                 COMMENT
Radial Measurement Point: ECF                               COMMENT
Radial Offset to Rinex Ref. Point: 0.1897                   COMMENT
Antenna Height from Field Measurement: 0.9090 m             COMMENT
Additional Antenna Identification Info.:                    COMMENT
Turborogue and Ashtech Choke Ring                           COMMENT
Original XYZ: -2351351.6498 -4645130.7471 3673729.2943      COMMENT
New XYZ position is based on association with SCEC monument COMMENT
E1F4C3B6+0011. Position of that monument is believed to be  COMMENT
valid to within 1 m horizontally; vertical accuracy         COMMENT
should be no worse than 3-times this value.                 COMMENT
                                                            COMMENT
Revised Rinex header created by UCSD GPS archive for        COMMENT
GSAC on 09-Nov-2004 (2004:314) 22:56:52 GMT                 COMMENT
For assistance contact dagnew@ucsd.edu                      COMMENT
or anderson@python.ucsd.edu                                 COMMENT
                                                            COMMENT
PIONEER 1963                                                MARKER NAME
                                                            MARKER NUMBER
M.Miller CENTRAL WASHINGTON UNIVERSITY                      OBSERVER / AGENCY
24595 TRIMBLE 4000 SSI NP 7.19 / SP 3.04                    REC # / TYPE / VERS
0220138198 DORNE-MARGOL. TYPE T                             ANT # / TYPE
 -2351353.0000 -4645134.0000  3673723.0000                  APPROX POSITION XYZ
        0.8542        0.0000        0.0000                  ANTENNA: DELTA H/E/N
     1     1     0                                          WAVELENGTH FACT L1/2
     6    L1    L2    C1    P2    P1    D1                  # / TYPES OF OBSERV
    30                                                      INTERVAL
  2001     8    19    17     4   30.000000                  TIME OF FIRST OBS
  2001     8    19    22    32   30.000000                  TIME OF LAST OBS
                                                            END OF HEADER
 01  8 19 17  4 30.0000000  0  9G 3G31G14G15G17G18G21G29G23
   1608479.67157   1258380.95856  21734053.5084   21734059.5084
     -1806.7194
   -689967.32255   -486887.19055  23178683.2114   23178692.4144
       174.1094
  -2979360.53157  -2258219.36956  21460940.9224   21460946.8164
       973.6414
   4095108.95558   3188961.58556  20899476.9144   20899483.0084
     -3027.8124
   5403181.84756   4142175.78456  21840572.4064   21840578.5474
     -3754.3284
   4782213.08157   3678920.96456  21426245.6804   21426251.2704
     -3213.7344
   1072858.35557    838584.08356  21233909.8204   21233915.9494
     -1110.9224
  -3552993.90356  -2603316.47556  22561335.9384   22561343.5594
      1494.3754
   5819111.28456   4514016.82055  23188684.7814   23188690.6884
     -3658.8914
 01  8 19 17  5  0.0000000  0  9G 3G31G14G15G17G18G21G29G23
   1663073.53447   1300921.62846  21744442.7344   21744448.8754
     -1832.7344
   -694827.82445   -490674.53945  23177758.9534   23177764.9884
       150.0474
  -3008250.36847  -2280730.87346  21455443.2424   21455449.1954
       952.4844
   4186246.23448   3259977.61746  20916819.7504   20916825.6334
     -3047.8594
   5516093.42346   4230158.78446  21862059.4144   21862065.6954
     -3772.9694
   4878812.60247   3754193.29246  21444627.9454   21444633.6174
     -3226.1094
   1106375.55747    864701.39246  21240288.1724   21240294.0904
     -1123.4064
  -3597576.33446  -2638055.89846  22552851.3444   22552857.7304
      1477.8914
   5928999.12646   4599643.62345  23209595.7584   23209603.2854
     -3666.8284
 01  8 19 17  5 30.0000000  0  9G 3G31G14G15G17G18G21G29G23
   1718448.94547   1344071.29446  21754980.4064   21754986.6524
     -1858.9224
   -698964.26045   -493897.70445  23176971.7584   23176977.2544
       125.7664
  -3036503.49247  -2302746.23246  21450067.1174   21450073.1294
       931.0944
   4277986.74247   3331463.69946  20934277.3594   20934283.4184
     -3068.1094
   5629565.80546   4318578.78446  21883651.5004   21883657.4534
     -3791.7974
   4975784.56547   3829755.83546  21463081.1094   21463087.0984
     -3238.6414
   1140268.94447    891111.82746  21246737.8204   21246743.7384
     -1136.0784
  -3641661.55746  -2672407.89946  22544462.2974   22544468.3794
      1461.1414
   6039126.30546   4685456.95745  23230551.8594   23230558.5864
     -3674.9224
 01  8 19 17  6  0.0000000  0  9G 3G31G14G15G17G18G21G29G23
   1774607.41547   1387831.12746  21765667.0314   21765673.1254
     -1884.0784
   -702373.12645   -496553.94845  23176321.7894   23176329.3754
       102.4064
  -3064116.04247  -2324262.44446  21444812.4224   21444818.3524
       910.6414
   4370332.68748   3403421.54646  20951850.4924   20951856.5274
     -3087.3914
   5743600.69546   4407437.09646  21905351.8834   21905357.9774
     -3809.6254
   5073130.00647   3905609.38946  21481605.4534   21481611.2424
     -3250.1414
   1174540.16747    917816.68846  21253259.3674   21253265.3914
     -1147.7664
  -3685246.21646  -2706369.85646  22536168.3984   22536174.7974
      1445.3754
   6149494.51346   4771458.06446  23251554.8524   23251561.3914
     -3682.0474
 01  8 19 17  6 30.0000000  0  9G 3G31G14G15G17G18G21G29G23
   1831514.85547   1432174.57346  21776495.8754   21776501.9224
     -1910.9224
   -705085.87245   -498667.71245  23175807.0394   23175813.6604
        77.2664
  -3091119.63547  -2345304.13346  21439674.0394   21439679.9694
       888.4384
   4463250.93847   3475825.35346  20969531.9694   20969537.9454
     -3108.3444
   5858164.44246   4496707.51946  21927152.3984   21927158.9614
     -3829.1254
   5170814.77947   3981727.37746  21500194.0084   21500199.7974
     -3263.3284
   1209155.50547    944789.67046  21259846.5864   21259852.4694
     -1161.1094
  -3728361.54446  -2739966.11146  22527964.1954   22527971.3714
      1427.7974
   6260070.07146   4857620.74245  23272597.8674   23272605.3364
     -3690.8124
 01  8 19 17  7  0.0000000  0  9G 3G31G14G15G17G18G21G29G23
   1889211.76747   1477133.19546  21787475.3914   21787481.5084
     -1935.9064
   -707060.31045   -500206.20845  23175431.1024   23175438.4414
        53.9844
  -3117471.94147  -2365838.32846  21434659.0554   21434664.9264
       868.0164
   4556782.46347   3548707.03346  20987330.2894   20987336.3954
     -3127.4534
   5973297.56046   4586421.58946  21949062.5394   21949069.0904
     -3846.7504
   5268878.87147   4058140.93346  21518855.5864   21518861.3054
     -3274.6254
   1244155.62247    972062.50046  21266506.7424   21266512.6724
     -1172.5944
  -3770964.81946  -2773163.37646  22519854.8364   22519861.1884
      1412.0634
   6370893.26846   4943976.41145  23293686.5234   23293692.6414
     -3697.7504
 01  8 19 17  7 30.0000000  0  9G 3G31G14G15G17G18G21G29G23
   1947685.41647   1522697.05846  21798602.4534   21798608.4884
     -1962.5314
   -708306.93545   -501177.52745  23175192.5944   23175200.1684
        28.9384
  -3143183.13347  -2385872.95446  21429766.3204   21429772.0744
       845.8594
   4650915.02147   3622057.06546  21005243.6174   21005249.8634
     -3148.2504
   6088987.67246   4676569.69846  21971077.8674   21971083.6454
     -3866.0944
   5367309.35947   4134839.98346  21537585.7034   21537591.6804
     -3287.5944
   1279527.64547    999625.11946  21273237.7344   21273243.7114
     -1185.7344
  -3813066.29046  -2805969.63746  22511845.2584   22511851.4104
      1394.5314
   6481951.83245   5030515.47845  23314819.1644   23314827.4304
     -3706.3284
 01  8 19 17  8  0.0000000  0  9G 3G31G14G15G17G18G21G29G23
   2006955.56247   1568881.56846  21809881.2814   21809887.5164
     -1988.6724
   -708803.49445   -501564.40645  23175099.2584   23175107.7344
         4.2974
  -3168230.70147  -2405390.47546  21425000.1254   21425006.0554
       824.0944
   4745669.48947   3695891.68646  21023274.6954   21023280.5904
     -3168.5784
   6205254.98846   4767167.56046  21993201.1804   21993207.7894
     -3884.9534
   5466126.02847   4211839.95246  21556389.8284   21556395.7234
     -3300.0474
   1315292.10647   1027493.54746  21280043.4614   21280049.4494
     -1198.4374
  -3854643.27646  -2838367.22446  22503931.9144   22503937.9144
      1377.4064
   6593266.03145   5117253.74345  23336000.8914   23336007.8094
     -3714.4694
 01  8 19 17  8 30.0000000  0  9G 3G31G14G15G17G18G21G29G23
   2067008.62447   1615676.14146  21821309.1644   21821315.1884
     -2014.7814
   -708561.17345   -501375.54745  23175145.4454   23175153.0314
       -20.3754
  -3192625.81847  -2424399.59346  21420357.7584   21420363.6884
       802.3284
   4841032.94247   3770200.85346  21041421.4224   21041427.5044
     -3188.8914
   6322086.49446   4858205.05046  22015433.4774   22015439.8284
     -3903.7504
   5565315.20847   4289130.19246  21575265.0704   21575270.8714
     -3312.4694
   1351435.97147   1055657.60746  21286921.3754   21286927.3634
     -1211.0624
  -3895706.89146  -2870364.76246  22496118.5394   22496124.8554
      1360.2504
   6704822.77145   5204180.98045  23357228.8524   23357235.5554
     -3722.5474
 01  8 19 17  9  0.0000000  0  9G 3G31G14G15G17G18G21G29G23
   2127837.72547   1663075.41846  21832884.4774   21832890.4534
     -2040.4374
   -707584.79945   -500614.68945  23175330.6174   23175337.2274
       -44.6564
  -3216373.06947  -2442903.87646  21415838.4924   21415844.4344
       780.8754
   4936999.19947   3844979.72546  21059683.3594   21059689.3484
     -3208.7974
   6439475.54346   4949677.00046  22037773.0314   22037779.5474
     -3922.1254
   5664869.94947   4366705.28346  21594210.3444   21594216.1564
     -3324.4374
   1387952.25447   1084111.86546  21293870.2974   21293876.3794
     -1223.2664
  -3936261.28546  -2901965.52046  22488401.5864   22488407.7504
      1343.4384
   6816615.54145   5291292.15145  23378502.0164   23378508.6604
     -3730.2344
 01  8 19 17  9 30.0000000  0  9G 3G31G14G15G17G18G21G29G23
   2189436.19047   1711074.19846  21844606.4614   21844612.3444
     -2066.0164
   -705878.98545   -499285.46545  23175655.0474   23175662.2704
       -68.9844
  -3239476.78347  -2460906.69846  21411442.1564   21411448.0744
       759.4534
   5033562.31147   3920223.68546  21078058.7504   21078064.6804
     -3228.6414
   6557415.95546   5041578.58546  22060216.1254   22060222.2194
     -3940.4694
   5764783.47447   4444559.94346  21613222.7894   21613228.5204
     -3336.3444
   1424834.32947   1112851.15446  21300888.7814   21300894.8054
     -1235.4374
  -3976310.94246  -2933172.99546  22480780.3754   22480786.8204
      1326.6094
   6928638.19245   5378582.46345  23399820.3984   23399826.4224
     -3737.8444
 01  8 19 17 10  0.0000000  0  9G 3G31G14G15G17G18G21G29G23
   2251796.77147   1759666.83746  21856473.2344   21856479.4224
     -2091.3754
   -703448.33245   -497391.40845  23176118.6724   23176124.9184
       -93.1094
  -3261941.31447  -2478411.45946  21407166.8594   21407172.6724
       738.1414
   5130716.11247   3995927.91746  21096546.4304   21096552.3014
     -3248.2974
   6675900.79846   5133904.35946  22082763.0704   22082769.5864
     -3958.5314
   5865048.56147   4522688.55746  21632302.6804   21632308.5984
     -3348.0164
   1462075.84147   1141870.52846  21307975.6484   21307981.6254
     -1247.3754
  -4015860.01546  -2963990.38546  22473253.7584   22473259.9344
      1309.9384
   7040884.14046   5466046.73745  23421180.9534   23421188.3754
     -3745.2344
 01  8 19 17 10 30.0000000  0  9G 3G31G14G15G17G18G21G29G23
   2314917.09447   1808851.47946  21868484.6564   21868490.7384
     -2116.5944
   -700293.13245   -494932.80645  23176717.5554   23176725.2584
      -117.2194
  -3283766.94947  -2495418.37746  21403013.7504   21403019.6214
       716.9224
   5228458.93947   4072091.13246  21115146.4064   21115152.4884
     -3267.8444
   6794928.32046   5226653.03346  22105414.2344   22105420.1414
     -3976.5314
   5965662.88047   4601089.29146  21651448.8984   21651454.6994
     -3359.5474
   1499675.07747   1171168.63946  21315130.5784   21315136.5554
     -1259.1874
  -4054908.18146  -2994417.47246  22465822.8284   22465829.4264
      1293.3284
   7153351.63146   5553683.67745  23442582.4304   23442589.8634
     -3752.5314
 01  8 19 17 11  0.0000000  0  9G 3G31G14G15G17G18G21G29G23
   2378791.58347   1858623.78246  21880639.5004   21880645.6174
     -2141.5944
   -696416.59445   -491912.08645  23177455.9144   23177462.4304
      -141.1414
  -3304956.66347  -2511929.77846  21398981.7194   21398987.5084
       695.8284
   5326785.87347   4148709.49146  21133857.2734   21133863.2854
     -3287.1874
   6914493.11346   5319820.35146  22128164.8914   22128171.9494
     -3994.3444
   6066620.82447   4679757.78946  21670660.7274   21670666.5044
     -3370.8754
   1537626.64947   1200741.29446  21322352.2584   21322358.1174
     -1270.7974
  -4093458.70946  -3024456.78446  22458487.1564   22458493.4384
      1276.8284
   7266035.43945   5641489.18145  23464025.7894   23464034.1954
     -3759.6094
 01  8 19 17 11 30.0000000  0  9G 3G31G14G15G17G18G21G29G23
   2443419.65947   1908983.30946  21892937.7894   21892943.8834
     -2166.9224
   -691816.95645   -488327.94245  23178330.4774   23178336.7814
      -165.5004
  -3325508.55647  -2527944.16946  21395070.5704   21395076.4654
       674.3134
   5425697.26647   4225783.27646  21152679.7814   21152685.8164
     -3306.8914
   7034595.32746   5413406.43346  22151020.6094   22151027.6684
     -4012.4694
   6167922.16547   4758693.87446  21689937.6334   21689943.3524
     -3382.5314
   1575930.58847   1230588.52746  21329641.1884   21329647.2934
     -1282.7814
  -4131509.37246  -3054106.57646  22451246.8444   22451253.4184
      1259.8754
   7378935.66045   5729463.28045  23485508.1174   23485515.6094
     -3767.0474
 01  8 19 17 12  0.0000000  0  9G 3G31G14G15G17G18G21G29G23
   2508799.52847   1959928.64446  21905379.0944   21905385.0944
     -2191.7504
   -686493.62345   -484179.86545  23179344.9384   23179352.3954
      -189.4224
  -3345421.97247  -2543461.04946  21391281.1804   21391286.7934
       653.2194
   5525192.13847   4303311.71046  21171613.0634   21171619.1334
     -3326.1254
   7155233.54946   5507410.17946  22173977.2664   22173983.8164
     -4030.0944
   6269564.94747   4837896.01546  21709279.8204   21709285.5274
     -3393.6724
   1614586.01347   1260709.64546  21336997.0394   21337003.1214
     -1294.2664
  -4169059.08346  -3083366.03846  22444100.4144   22444107.2584
      1243.3914
   7492051.29246   5817605.22745  23507036.8834   23507043.7034
     -3774.0004
 01  8 19 17 12 30.0000000  0  9G 3G31G14G15G17G18G21G29G23
   2574924.37547   2011454.48446  21917962.4304   21917968.4304
     -2216.5314
   -680451.48445   -479471.66445  23180493.2194   23180500.3364
      -213.3594
  -3364701.49447  -2558483.98746  21387612.2894   21387618.0084
       632.0944
   5625264.29647   4381289.98646  21190656.1334   21190662.0984
     -3345.3284
   7276401.00346   5601826.31646  22197034.7114   22197041.0044
     -4047.7034
   6371542.34347   4917358.89446  21728685.6484   21728691.3914
     -3404.7664
   1653586.12147   1291099.35146  21344418.5944   21344424.5704
     -1305.7034
  -4206112.43046  -3112238.70246  22437049.6954   22437055.9414
      1226.8594
   7605375.78445   5905909.99345  23528598.8834   23528607.5474
     -3780.9374
 01  8 19 17 13  0.0000000  0  9G 3G31G14G15G17G18G21G29G23
   2641793.27347   2063560.10046  21930687.0944   21930693.1764
     -2241.2664
   -673689.10345   -474202.25145  23181780.6484   23181787.2704
      -237.3284
  -3383345.51247  -2573011.72446  21384064.5944   21384070.4414
       610.9384
   5725913.73747   4459718.08846  21209809.0704   21209815.0824
     -3364.5164
   7398097.55446   5696654.74246  22220192.9694   22220199.4144
     -4065.2664
   6473853.67947   4997081.97746  21748154.2734   21748159.9224
     -3415.8444
   1692930.28547   1321757.16346  21351905.4614   21351911.4844
     -1317.1094
  -4242667.62146  -3140723.20346  22430093.7974   22430100.3364
      1210.2814
   7718908.97845   5994377.30445  23550204.5234   23550212.4734
     -3787.8284
 01  8 19 17 13 30.0000000  0  9G 3G31G14G15G17G18G21G29G23
   2709395.47147   2116237.11346  21943551.6174   21943557.8284
     -2265.7664
   -666214.93345   -468378.20245  23183202.9924   23183210.4024
      -261.1724
  -3401361.93047  -2587050.42446  21380636.1954   21380641.9384
       589.9224
   5827130.74047   4538588.45246  21229069.8284   21229075.9804
     -3383.5004
   7520312.97446   5791887.45246  22243449.8754   22243456.4614
     -4082.6414
   6576488.52747   5077057.15446  21767685.4774   21767691.0434
     -3426.6874
   1732608.48847   1352675.25746  21359456.1564   21359462.3554
     -1328.3124
  -4278732.39546  -3168825.55946  22423230.4064   22423237.2894
      1193.8284
   7832641.02746   6082999.58045  23571848.0474   23571855.3984
     -3794.5314
 01  8 19 17 14  0.0000000  0  9G 3G31G14G15G17G18G21G29G23
   2777731.63647   2169486.04746  21956555.4064   21956561.7344
     -2289.9374
   -658026.06945   -461997.23545  23184761.3914   23184768.1054
      -284.7504
  -3418747.82947  -2600597.81446  21377327.7034   21377333.6454
       569.1564
   5928916.75347   4617902.19746  21248439.5474   21248445.5354
     -3402.2034
   7643048.39246   5887525.37546  22266806.0474   22266812.5514
     -4099.7034
   6679447.57647   5157284.94846  21787277.6954   21787283.3204
     -3437.2194
   1772622.26047   1383854.83746  21367070.5234   21367076.5594
     -1339.2344
  -4314303.44746  -3196543.18446  22416461.5554   22416467.6954
      1177.5944
   7946573.32346   6171777.93245  23593528.1174   23593533.9534
     -3800.9224
 01  8 19 17 14 30.0000000  0  9G 3G31G14G15G17G18G21G29G23
   2846794.12347   2223300.94746  21969697.7194   21969703.7664
     -2314.1564
   -649127.93545   -455063.60745  23186454.6804   23186461.8794
      -308.4374
  -3435508.13447  -2613657.73046  21374138.0634   21374143.9574
       548.2664
   6031265.30547   4697654.28146  21267915.7894   21267921.9064
     -3420.9534
   7766296.82946   5983563.05446  22290258.9534   22290265.9654
     -4116.8124
   6782723.70447   5237759.82646  21806930.4534   21806936.1844
     -3447.8124
   1812964.67247   1415290.49446  21374747.3134   21374753.4184
     -1350.2034
  -4349385.66546  -3223879.89546  22409784.8054   22409791.9104
      1161.2664
   8060699.06645   6260707.00145  23615245.8834   23615253.1414
     -3807.3754
 01  8 19 17 15  0.0000000  0  9G 3G31G14G15G17G18G21G29G23
   2916579.73047   2277679.31146  21982977.1334   21982983.2734
     -2338.1414
   -639521.20445   -447577.80545  23188282.9384   23188290.2774
      -331.9694
  -3451643.63147  -2626230.78446  21371067.3984   21371073.2114
       527.5004
   6134173.70947   4777842.61346  21287498.4064   21287504.4774
     -3439.5314
   7890055.51746   6079998.30946  22313809.3134   22313816.0514
     -4133.7034
   6886314.07347   5318479.55646  21826643.5164   21826649.2464
     -3458.1414
   1853633.06747   1446980.14546  21382486.2194   21382492.0784
     -1360.9694
  -4383979.55046  -3250836.08346  22403202.4534   22403208.8404
      1145.0634
   8175015.75945   6349784.86945  23636998.8914   23637007.7074
     -3813.6564
 01  8 19 17 15 30.0000000  0  9G 3G31G14G15G17G18G21G29G23
   2987082.90447   2332616.81346  21996393.8594   21996399.7074
     -2362.2194
   -629208.92745   -439542.25045  23190244.9384   23190251.2774
      -355.6724
  -3467157.48147  -2638319.43446  21368115.4224   21368121.2934
       506.5944
   6237637.46047   4858463.68546  21307186.8524   21307192.8634
     -3458.2034
   8014319.30646   6176827.16746  22337456.6484   22337463.3054
     -4150.6874
   6990213.05247   5399439.77046  21846414.5704   21846420.6524
     -3468.5944
   1894622.61947   1478920.06646  21390286.0944   21390292.0234
     -1371.8284
  -4418087.77046  -3277413.82046  22396711.5234   22396717.5944
      1128.6724
   8289518.75045   6439007.89245  23658788.5554   23658797.1844
     -3820.0314
 01  8 19 17 16  0.0000000  0  9G 3G31G14G15G17G18G21G29G23
   3058302.14247   2388112.28946  22009946.1644   22009952.1054
     -2385.9374
   -618190.57845   -430956.50245  23192342.4924   23192348.6094
      -379.0784
  -3482048.68447  -2649922.91246  21365281.4304   21365287.3014
       485.9534
   6341656.14247   4939517.15946  21326980.9844   21326986.8914
     -3476.5624
   8139087.35346   6274048.94546  22361198.3914   22361205.0354
     -4167.3594
   7094419.49047   5480639.56346  21866244.2974   21866250.1564
     -3478.6874
   1935932.63847   1511109.69946  21398147.4844   21398153.4384
     -1382.3444
  -4451709.17246  -3303612.22546  22390313.3754   22390319.8554
      1112.5784
   8404207.47445   6528375.67045  23680611.8054   23680619.5084
     -3826.0944
 01  8 19 17 16 30.0010000  0  9G 3G31G14G15G17G18G21G29G23
   3130235.09047   2444163.90746  22023634.6924   22023640.8564
     -2409.5624
   -606468.52446   -421822.40445  23194573.0914   23194579.7474
      -402.4844
  -3496319.76047  -2661043.17246  21362565.7714   21362571.5604
       465.2814
   6446229.07447   5021002.51646  21346880.6064   21346886.6534
     -3494.8594
   8264359.42646   6371663.46846  22385036.9814   22385042.9934
     -4183.9534
   7198932.76347                  21886132.4194
     -3488.7344
   1977560.17347   1543546.74946  21406069.0444   21406075.0094
     -1392.8284
  -4484846.91946  -3329433.73346  22384007.8564   22384014.1384
      1096.4064
   8519081.81245   6617888.02145  23702472.0524   23702478.8964
     -3832.0784
 01  8 19 17 17  0.0010000  0  9G 3G31G14G15G17G18G21G29G23
   3202872.07846   2500764.12446  22037456.9354   22037462.8534
     -2432.9224
   -594045.83045   -412142.36045  23196936.5524   23196943.3134
      -425.7034
  -3509972.02047  -2671681.24646  21359967.9274   21359973.7044
       444.8444
   6551345.49247   5102911.37546  21366883.7944   21366889.9234
     -3512.9064
   8390123.28246   6469661.19846  22408970.4194   22408976.8994
     -4200.3124
   7303741.38347     38137.45956  21906076.8414   21906082.6064
     -3498.5164
   2019499.39447   1576226.65746  21414049.4504   21414055.3804
     -1403.1094
  -4517500.61246  -3354878.07346  22377793.9504   22377799.9384
      1080.4694
   8634130.36945   6707536.16745  23724365.8104   23724371.7864
     -3837.8124
 01  8 19 17 17 30.0010000  0  9G 3G31G14G15G17G18G21G29G23
   3276205.37447   2557906.91046  22051412.1534   22051418.2714
     -2456.1874
   -580929.71245   -401921.99545  23199432.8644   23199438.9814
      -448.9534
  -3523013.42747  -2681843.32646  21357485.9504   21357491.6814
       424.3594
   6656999.66347   5185239.26646  21386989.2004   21386995.0954
     -3530.9224
   8516373.38346   6568037.81446  22432994.4114   22433001.6104
     -4216.5944
   7408839.18247    120031.81746  21926076.7714   21926082.7944
     -3508.2344
   2061742.05447   1609143.01646  21422088.2164   21422094.0994
     -1413.2814
  -4549678.61346  -3379951.72246  22371670.1304   22371676.1884
      1064.5004
   8749347.76345   6797315.84345  23746290.9744   23746296.7744
     -3843.5474
 01  8 19 17 18  0.0010000  0  9G 3G31G14G15G17G18G21G29G23
   3350230.39846   2615588.71946  22065498.3964   22065504.8534
     -2478.7974
   -567122.57645   -391163.16945  23202059.5444   23202065.9194
      -471.5624
  -3535446.18747  -2691531.13646  21355120.2164   21355126.0994
       404.4844
   6763188.18347   5267983.52346  21407196.1534   21407202.2824
     -3548.2974
   8643105.79346   6666790.25846  22457111.2004   22457118.3534
     -4232.2194
   7514222.00147    202148.26946  21946129.8414   21946135.5834
     -3517.2814
   2104283.65647   1642292.31646  21430183.5134   21430189.6304
     -1422.8284
  -4581382.81446  -3404656.18746  22365637.1224   22365642.8414
      1049.0944
   8864730.42745   6887224.32845  23768247.2314   23768253.8534
     -3848.6254
 01  8 19 17 18 30.0010000  0  9G 3G31G14G15G17G18G21G29G23
   3424942.37147   2673805.80746  22079715.7084   22079721.9544
     -2501.9064
   -552627.05445   -379867.92845  23204817.8724   23204824.7674
      -494.7504
  -3547272.38947  -2700746.31046  21352869.7164   21352875.5404
       384.0164
   6869907.05547   5351141.04846  21427504.0524   21427510.0404
     -3566.2034
   8770316.12646   6765915.11146  22481318.9114   22481325.6264
     -4248.3754
   7619885.36447    284483.31546  21966237.6924   21966243.6104
     -3526.8444
   2147120.62247   1675671.76746  21438335.1614   21438341.1854
     -1432.8914
  -4612615.35246  -3428993.11446  22359694.0994   22359700.1814
      1033.1414
   8980274.53445   6977258.60745  23790235.5284   23790243.3374
     -3854.2194
 01  8 19 17 19  0.0010000  0  9G 3G31G14G15G17G18G21G29G23
   3500337.89747   2732555.53746  22094063.2314   22094069.2204
     -2524.5314
   -537443.92745   -368036.88745  23207707.8334   23207713.9154
      -517.5474
  -3558492.93647  -2709489.54346  21350734.3804   21350740.0524
       363.9534
   6977154.10147   5434710.13946  21447912.6854   21447918.6614
     -3583.6564
   8898001.88546   6865410.40346  22505615.1384   22505621.1264
     -4264.0624
   7725826.43747    367034.76046  21986397.3414   21986403.1884
     -3535.9534
   2190250.94547   1709279.80346  21446542.6854   21446548.4974
     -1442.5164
  -4643376.44846  -3452962.67446  22353840.2864   22353846.6144
      1017.5634
   9095977.90445   7067416.95145  23812254.1774   23812261.6574
     -3859.3914
 01  8 19 17 19 30.0010000  0  9G 3G31G14G15G17G18G21G29G23
   3576409.74647   2791832.27146  22108539.4034   22108545.5674
     -2547.0784
   -521578.09346   -355673.87645  23210727.1614   23210734.1964
      -540.3284
  -3569112.32447  -2717764.33846  21348713.8024   21348719.2044
       343.8754
   7084923.03647   5518685.89346  21468420.3644   21468426.3534
     -3601.0784
   9026156.27146   6965270.87945  22530002.9664   22530009.7744
     -4279.7034
   7832038.64046    449797.49146  22006608.3414   22006614.2474
     -3545.0004
   2233668.50847   1743111.66046  21454804.6534   21454810.5834
     -1452.1254
  -4673670.70346  -3476568.47246  22348074.9664   22348081.6464
      1001.9384
   9211834.39445   7157694.67445  23834298.7164   23834306.1144
     -3864.5164
 01  8 19 17 20  0.0010000  0  9G 3G31G14G15G17G18G21G29G23
   3653155.45047   2851634.07446  22123143.0834   22123149.3884
     -2569.3754
   -505029.96545   -342779.22045  23213875.1224   23213881.5214
      -562.9534
  -3579130.72847  -2725570.83546  21346807.2474   21346812.7314
       323.9384
   7193212.27947   5603067.08946  21489027.2784   21489033.2784
     -3618.2814
   9154777.38646   7065495.03345  22554479.0284   22554485.5674
     -4295.1094
   7938520.01047    532769.95046  22026871.7864   22026877.3644
     -3553.8284
   2277371.05147   1777165.57946  21463121.1614   21463127.1384
     -1461.4694
  -4703497.65446  -3499810.14446  22342399.1384   22342405.2784
       986.4534
   9327842.26645   7248090.28245  23856376.6854   23856384.2594
     -3869.4224
 01  8 19 17 20 30.0010000  0  9G 3G31G14G15G17G18G21G29G23
   3730573.21147   2911959.57246  22137875.5754   22137881.5994
     -2591.7814
   -487798.81445   -329352.30145  23217154.3644   23217160.6694
      -585.7504
  -3588547.14747  -2732908.25846  21345015.1854   21345020.7984
       303.8444
   7302021.03547   5687853.09946  21509732.6774   21509738.7714
     -3635.6094
   9283864.23145   7166082.10545  22579042.1224   22579049.1694
     -4310.6414
   8045269.34647    615951.22646  22047185.6694   22047191.4814
     -3562.7664
   2321357.64747   1811440.84946  21471491.3254   21471497.3964
     -1470.9374
  -4732856.20146  -3522686.81746  22336812.5054   22336818.5754
       970.7974
   9444001.07745   7338603.59145  23878479.4814   23878487.1964
     -3874.4694
 01  8 19 17 21  0.0010000  0  9G 3G31G14G15G17G18G21G29G23
   3808655.67447   2972803.02246  22152733.7474   22152739.8534
     -2613.8754
   -469889.64445   -315397.08945  23220562.4664   23220568.8994
      -608.3284
  -3597366.21547  -2739780.21146  21343337.0054   21343342.7244
       283.9534
   7411343.16747   5773039.13646  21530536.3174   21530542.3174
     -3652.6724
   9413410.12446   7267026.85745  22603695.3964   22603702.2674
     -4325.8754
   8152280.20547    699336.27646  22067549.1144   22067554.8804
     -3571.4374
   2365622.21647   1845932.70646  21479914.5444   21479920.5674
     -1480.1564
  -4761750.58546  -3545201.80746  22331314.0674   22331320.3024
       955.3594
   9560304.80645   7429229.78545  23900610.0444   23900617.3254
     -3879.2664
 01  8 19 17 21 30.0010000  0  9G 3G31G14G15G17G18G21G29G23
   3887401.45047   3034163.34146  22167718.7164   22167724.9384
     -2635.9224
   -451301.87245   -300913.08945  23224099.6224   23224106.2204
      -630.9374
  -3605586.98247  -2746185.95546  21341772.3414   21341778.2474
       264.0164
   7521178.23447   5858624.86846  21551437.2084   21551443.2084
     -3669.7344
   9543414.30546   7368328.73145  22628433.9194   22628439.9784
     -4341.1254
   8259551.69947    782924.42046  22087962.2474   22087968.1304
     -3580.0624
   2410164.53747   1880641.01046  21488390.7004   21488396.8534
     -1489.3914
  -4790179.65546  -3567354.20246  22325904.1924   22325910.2514
       939.8134
   9676753.09645   7519968.58945  23922770.7634   23922778.7354
     -3884.0314
 01  8 19 17 22  0.0010000  0  9G 3G31G14G15G17G18G21G29G23
   3966804.59947   3096035.89746  22182828.6534   22182835.1224
     -2657.6724
   -432038.96745   -285903.02145  23227764.9034   23227770.5404
      -653.2814
  -3613212.63147  -2752127.97746  21340321.3884   21340327.2244
       244.3134
   7631521.59647   5944606.67346  21572434.5364   21572440.5484
     -3686.5164
   9673871.51346   7469983.57745  22653259.5284   22653265.6224
     -4356.0624
   8367078.69547    866711.65046  22108424.0444   22108429.5524
     -3588.4224
   2454979.98947   1915562.14946  21496918.7784   21496924.7904
     -1498.3444
  -4818146.10946  -3589146.14646  22320582.4664   22320588.4544
       924.5474
   9793341.40545   7610816.55645  23944958.5914   23944964.6734
     -3888.5474
 01  8 19 17 22 30.0010000  0  9G 3G31G14G15G17G18G21G29G23
   4046863.56946   3158419.47946  22198063.0914   22198069.2784
     -2679.4064
   -412100.43945   -270366.48645  23231559.2554   23231565.2434
      -675.7814
  -3620242.13347  -2757605.46846  21338983.7554   21338989.6494
       224.5004
   7742372.51147   6030983.97346  21593528.9664   21593534.9074
     -3703.3594
   9804780.80646   7571990.75145  22678171.0914   22678178.4544
     -4371.0314
   8474860.15547    950697.16946  22128934.1224   22128939.8064
     -3596.8124
   2500068.19947   1950695.79946  21505498.8334   21505504.9744
     -1507.3594
  -4845648.69846  -3610576.60846  22315348.8104   22315354.9854
       909.1254
   9910069.36345   7701773.32245  23967170.3254   23967178.6964
     -3893.1254
 01  8 19 17 23  0.0010000  0  9G 3G31G14G15G17G18G21G29G23
   4127569.69547   3221307.34246  22213421.5524   22213427.6344
     -2700.9374
   -391492.46645   -254308.29846  23235480.5674   23235488.0834
      -698.0944
  -3626681.60147  -2762623.19646  21337758.5364   21337764.1494
       204.8284
   7853723.35147   6117750.82446  21614718.0444   21614724.0794
     -3720.0004
   9936134.44945   7674344.14245  22703166.6694   22703173.5134
     -4385.8124
   8582888.14647   1034874.79046  22149491.3104   22149497.3104
     -3605.0164
   2545421.48047   1986036.03146  21514129.3254   21514135.2084
     -1516.1724
  -4872693.13446  -3631650.09246  22310201.9584   22310207.8884
       893.8594
  10026929.60245   7792833.16145  23989405.9274   23989412.0324
     -3897.5314
 01  8 19 17 23 30.0010000  0  9G 3G31G14G15G17G18G21G29G23
   4208922.93246   3284699.44946  22228901.9744   22228908.1614
     -2722.3284
   -370212.49645   -237726.47145  23239529.9894   23239536.5754
      -720.3444
  -3632528.54647  -2767179.21047  21336645.6534   21336651.4664
       185.2194
   7965575.19047   6204908.05446  21636003.4034   21636009.5444
     -3736.5314
  10067933.03846   7777044.24545  22728247.2944   22728255.2554
     -4400.4844
   8691163.57847   1119245.21346  22170095.1384   22170101.0564
     -3613.0944
   2591041.07147   2021583.76246  21522810.3254   21522816.3604
     -1524.8754
  -4899276.38146  -3652364.20446  22305143.1534   22305149.3294
       878.6254
  10143923.45945   7883997.13145  24011671.2394   24011679.6344
     -3901.8284
 01  8 19 17 24  0.0010000  0  9G 3G31G14G15G17G18G21G29G23
   4290913.44246   3348588.12746  22244504.3564   22244510.2744
     -2743.6094
   -348267.95945   -220626.80345  23243706.0054   23243713.0054
      -742.5474
  -3637789.85447  -2771278.89447  21335644.4664   21335650.1854
       165.6254
   8077919.29647   6292448.87146  21657381.5134   21657387.6654
     -3752.9844
  10200167.60845   7880084.06245  22753410.3174   22753417.5994
     -4415.0474
   8799677.54146   1203801.50746  22190744.8104   22190750.7984
     -3621.0784
   2636917.89647   2057331.93646  21531540.4584   21531546.4934
     -1533.5004
  -4925405.32446  -3672724.30246  22300170.7864   22300176.8104
       863.4064
  10261042.38445   7975258.54945  24033957.8724   24033967.2514
     -3906.0474
 01  8 19 17 24 30.0010000  0  9G 3G31G14G15G17G18G21G29G23
   4373541.03746   3412973.23246  22260228.2394   22260234.2984
     -2764.7664
   -325657.28845   -203008.07845  23248007.1694   23248014.0634
      -764.7194
  -3642463.11247  -2774920.35547  21334755.1464   21334761.0404
       146.0634
   8190756.44247   6380373.87846  21678853.7164   21678859.8804
     -3769.3754
  10332838.36045   7983463.77445  22778657.6924   22778665.0324
     -4429.5164
   8908430.44246   1288543.99346  22211439.1614   22211445.0094
     -3628.9844
   2683053.21247   2093281.53846  21540319.6694   21540325.7164
     -1542.0474
  -4951077.40846  -3692728.42846  22295286.1224   22295292.1104
       848.1884
  10378287.56245   8066618.31445  24056267.8494   24056277.1814
     -3910.1874
 01  8 19 17 25  0.0010000  0  9G 3G31G14G15G17G18G21G29G23
   4456800.11747   3477850.40046  22276071.8724   22276078.1424
     -2785.7814
   -302383.58745   -184872.69445  23252437.2634   23252443.8494
      -786.8284
  -3646551.64447  -2778106.18747  21333976.8414   21333982.5954
       126.5474
   8304082.24947   6468679.65346  21700419.3884   21700425.5174
     -3785.6414
  10465940.66545   8087179.74745  22803986.5674   22803994.7394
     -4443.8754
   9017417.60746   1373469.01146  22232179.6064   22232185.4424
     -3636.7814
   2729442.88747   2129429.33546  21549147.2314   21549153.2674
     -1550.5314
  -4976295.22446  -3712378.57346  22290487.3724   22290493.6064
       833.0314
  10495654.70545   8158073.10445  24078604.4274   24078611.4034
     -3914.2504
 01  8 19 17 25 30.0010000  0  9G 3G31G14G15G17G18G21G29G23
   4540689.90946   3543219.02846  22292035.8564   22292041.7634
     -2806.6254
   -278445.40745   -166219.56345  23256992.3964   23256999.0994
      -808.8284
  -3650053.46147  -2780834.83647  21333310.6304   21333316.2904
       107.1414
   8417896.93447   6557366.37646  21722077.2554   21722083.3024
     -3801.7664
  10599474.23745   8191231.79345  22829396.1144   22829403.5714
     -4458.1094
   9126639.14846   1458576.66546  22252963.8964   22252969.4744
     -3644.4064
   2776087.09447   2165775.48246  21558023.5054   21558029.3764
     -1558.8444
  -5001056.45846  -3731672.93946  22285774.9744   22285781.2554
       817.9384
  10613144.47244   8249623.58545  24100959.1384   24100966.7244
     -3918.1874
 01  8 19 17 26  0.0010000  0  9G 3G31G14G15G17G18G21G29G23
   4625206.38547   3609075.98746  22308118.9114   22308124.8764
     -2827.5004
   -253844.35545   -147049.87745  23261673.4504   23261679.7904
      -830.9534
  -3652970.09247  -2783107.50047  21332755.5524   21332761.2474
        87.5784
   8532197.68647   6646431.84246  21743827.7714   21743833.8064
     -3817.9844
  10733436.07045   8295617.54245  22854887.0524   22854894.5214
     -4472.3914
   9236091.76346   1543864.36746  22273791.4814   22273797.3884
     -3652.1094
   2822982.66447   2202317.47646  21566947.4034   21566953.2984
     -1567.2504
  -5025362.16346  -3750612.36646  22281149.4894   22281155.7244
       802.7344
  10730754.40945   8341267.57145  24123342.6774   24123350.8844
     -3922.1874
 01  8 19 17 26 30.0010000  0  9G 3G31G14G15G17G18G21G29G23
   4710347.71147   3675419.83546  22324320.3644   22324326.8804
     -2848.5624
   -228579.58945   -127363.03545  23266481.7634   23266488.8684
      -853.3444
  -3655299.99947  -2784922.97847  21332312.0674   21332317.5284
        67.7504
   8646984.20247   6735875.84046  21765670.8104   21765676.7744
     -3834.4224
  10867825.29645   8400336.32545  22880460.9664   22880468.4704
     -4486.8914
   9345774.90946   1629331.71946  22294663.7784   22294669.4154
     -3660.0624
   2870130.14347   2239055.78546  21575919.2714   21575925.2944
     -1575.8914
  -5049210.82746  -3769195.64746  22276611.7394   22276617.7744
       787.1884
  10848484.49644   8433005.18945  24145743.4274   24145753.1814
     -3926.4844
 01  8 19 17 27  0.0010000  0  9G 3G31G14G15G17G18G21G29G23
   4796112.07047   3742249.16446  22340641.1064   22340647.0714
     -2869.0314
   -202650.75745   -107158.70745  23271416.2004   23271423.0834
      -875.2034
  -3657042.64747  -2786280.84247  21331980.5054   21331986.2004
        48.4384
   8762255.66247   6825697.71146  21787606.8414   21787612.8884
     -3850.3124
  11002640.70546   8505387.18345  22906117.3414   22906124.6224
     -4500.7814
   9455687.96646   1714978.20046  22315579.8724   22315585.8254
     -3667.4374
   2917528.94747   2275989.92646  21584938.8564   21584944.8684
     -1584.0004
  -5072601.29746  -3787421.91446  22272160.3024   22272166.2904
       772.1884
  10966334.21645   8524836.05245  24168169.8414   24168177.2284
     -3930.1564
 01  8 19 17 27 30.0010000  0  9G 3G31G14G15G17G18G21G29G 9
   4882489.23746   3809556.00546  22357077.9814   22357084.0284
     -2889.3914
   -176065.98045    -86443.27846  23276474.9894   23276480.9074
      -897.0624
  -3658205.91047  -2787187.24847  21331759.4744   21331765.0874
        29.1564
   8878002.91047   6915890.32346  21809632.8494   21809638.9784
     -3866.1254
  11137872.90645   8610762.80945  22931849.7554   22931856.4464
     -4514.6564
   9565821.35946   1800796.39946  22336537.2944   22336543.3174
     -3674.7344
   2965170.28347   2313113.05146  21594004.5054   21594010.4354
     -1592.0314
  -5095541.22546  -3805297.09446  22267794.7244   22267801.1464
       757.1884
     10650.42655                  23798626.9354
     -2132.3754
 01  8 19 17 28  0.0010000  0  9G 3G31G14G15G17G18G21G29G 9
   4969474.07146   3877336.35946  22373630.7244   22373636.7594
     -2909.7034
   -148827.73346    -65218.63245  23281659.0364   23281665.6104
      -918.9374
  -3658792.13847  -2787644.01347  21331647.5054   21331653.0244
         9.8284
   8994222.00347   7006450.61346  21831748.3804   21831754.3334
     -3881.9064
  11273517.66045   8716459.92945  22957662.8494   22957671.0094
     -4528.4374
   9676171.09846   1886783.15046  22357536.3564   22357542.2634
     -3682.0004
   3013050.05347   2350421.97046  21603116.0754   21603122.0284
     -1600.0474
  -5118032.07146  -3822822.34346  22263515.6384   22263521.4974
       742.1094
     74959.13245                  23810865.3174
     -2155.0004
 01  8 19 17 28 30.0010000  0  9G 3G31G14G15G17G18G21G29G 9
   5057068.31746   3945591.57346  22390299.5834   22390305.6654
     -2930.0164
   -120932.46146    -43482.03645  23286967.2714   23286974.5874
      -940.8914
  -3658797.16447  -2787647.89647  21331646.3564   21331652.1574
        -9.6094
   9110915.62547   7097380.65846  21853954.7634   21853960.8104
     -3897.7664
  11409577.25645   8822480.28845  22983553.7714   22983560.5214
     -4542.3284
   9786739.72746   1972940.46246  22378576.8964   22378582.5794
     -3689.3284
   3061171.19247   2387918.96846  21612272.9274   21612278.7864
     -1608.1414
  -5140069.61446  -3839994.39046  22259321.5284   22259327.7284
       726.9384
    139947.09245     10167.97455  23823231.9274   23823238.8564
     -2177.6564
 01  8 19 17 29  0.0010000  0  9G 3G31G14G15G17G18G21G29G 9
   5145266.55946   4014317.43646  22407083.1854   22407089.2784
     -2949.8444
    -92383.05445    -21235.74245  23292398.8564   23292405.4194
      -962.4224
  -3658223.36047  -2787200.74047  21331755.7944   21331761.3844
       -28.6414
   9228079.67647   7188677.28346  21876250.2944   21876256.1774
     -3913.1724
  11546047.22946   8928820.39545  23009524.8644   23009531.6734
     -4555.6874
   9897523.27846   2059265.26646  22399658.0524   22399664.1104
     -3696.2194
   3109529.97447   2425601.14246  21621475.4974   21621481.3924
     -1615.7814
  -5161655.91946  -3856814.80046  22255213.4584   22255219.4704
       712.1564
    205610.88345     61334.58045  23835727.3724   23835733.3254
     -2199.9374
 01  8 19 17 29 30.0010000  0  9G 3G31G14G15G17G18G21G29G 9
   5234065.61446   4083511.46746  22423980.9194   22423986.8844
     -2969.8284
    -63180.39246      1519.61246  23297956.4894   23297962.9114
      -984.1724
  -3657071.18247  -2786302.91147  21331975.0284   21331980.6064
       -47.9064
   9345712.35247   7280339.05446  21898635.1304   21898641.0714
     -3928.7504
  11682925.40545   9035478.60245  23035570.0674   23035577.1734
     -4569.2504
  10008519.69846   2145755.93446  22420780.1774   22420785.9424
     -3703.2814
   3158125.17947   2463467.54246  21630722.8414   21630728.7244
     -1623.6414
  -5182791.11046  -3873283.70346  22251191.4664   22251197.4314
       697.1254
    271949.50745    113026.97345  23848350.3964   23848357.5604
     -2222.3914
 01  8 19 17 30  0.0010000  0  9G 3G31G14G15G17G18G21G29G 9
   5323459.02546   4153168.63546  22440992.3334   22440998.7554
     -2989.7194
    -33328.53046     24780.83346  23303637.6144   23303644.7784
     -1005.9534
  -3655344.66547  -2784957.54247  21332303.3724   21332309.0214
       -67.1874
   9463808.32747   7372361.84446  21921108.0214   21921114.1384
     -3944.2974
  11820206.13945   9142450.49145  23061694.8494   23061702.6924
     -4582.7814
  10119723.70046   2232408.33846  22441941.9274   22441947.9744
     -3710.3124
   3206951.79747   2501514.25946  21640014.1854   21640020.1144
     -1631.4694
  -5203478.55446  -3889403.70946  22247254.9114   22247261.0284
       682.0474
    338958.62845    165241.84145  23861102.9584   23861110.4504
     -2244.8754
 01  8 19 17 30 30.0010000  0  9G 3G31G14G15G17G18G21G29G 9
   5413447.16746   4223289.23346  22458116.3414   22458122.3884
     -3009.3914
     -2824.76145     48550.02245  23309441.0754   23309447.2984
     -1027.5784
  -3653040.74947  -2783162.25547  21332741.8564   21332747.6574
       -86.3444
   9582369.06147   7464746.77646  21943669.3724   21943675.4314
     -3959.6564
  11957890.53445   9249736.93845  23087894.2944   23087901.3174
     -4596.1094
  10231136.79746   2319223.70446  22463142.6614   22463148.3924
     -3717.1564
   3256011.59247   2539742.66646  21649350.2164   21649356.2634
     -1639.1094
  -5223714.89547  -3905172.21246  22243404.2554   22243410.2904
       667.1254
    406640.38845    217980.85645  23873980.6224   23873988.5714
     -2267.1724
 01  8 19 17 31  0.0010000  0  9G 3G31G14G15G17G18G21G29G 9
   5504027.18646   4293871.02746  22475353.1534   22475359.1534
     -3029.1874
     28329.84946     72826.36945  23315370.2164   23315377.2164
     -1049.3594
  -3650159.76547  -2780917.29847  21333290.0444   21333295.5054
      -105.6874
   9701392.75447   7557492.46346  21966318.7004   21966324.8294
     -3975.1874
  12095976.20046   9357336.01545  23114172.4504   23114179.5324
     -4609.5624
  10342756.70146   2406200.19146  22484382.9584   22484388.8414
     -3724.1414
   3305302.72147   2578151.34246  21658729.8644   21658735.9704
     -1646.9064
  -5243499.96647  -3920589.07846  22239639.2244   22239645.4114
       651.9534
    474993.50945    271242.97745  23886988.4974   23886996.6814
     -2289.6414
 01  8 19 17 31 30.0020000  0  9G 3G31G14G15G17G18G21G29G 9
   5595196.68046   4364912.16446  22492702.2604   22492708.5884
     -3048.7034
     60133.22146     97608.24045  23321421.8694   23321427.9634
     -1070.9224
  -3646704.43747  -2778224.80347  21333947.7364   21333953.1394
      -124.8284
   9820879.45147   7650598.92646  21989056.5334   21989062.4634
     -3990.4534
  12234463.64945   9465248.21445  23140526.5254   23140534.1824
     -4622.7344
  10454583.36646   2493337.80546  22505663.6974   22505669.7094
     -3730.8594
   3354823.19547   2616738.72346  21668153.1354   21668159.2294
     -1654.4844
  -5262836.87246  -3935656.72046  22235959.0494   22235964.9554
       636.9694
    544016.72045    325027.30545  23900123.3384   23900132.1074
     -2311.8754
 01  8 19 17 32  0.0020000  0  9G 3G31G14G15G17G18G21G29G 9
   5686946.59846   4436405.56646  22510161.5254   22510167.5724
     -3067.9694
     92582.62946    122893.51745  23327597.4554   23327603.9364
     -1092.3754
  -3642675.31147  -2775085.19447  21334714.0104   21334719.5294
      -143.8124
   9940819.15447   7744058.38046  22011880.7364   22011886.7604
     -4005.5314
  12373341.31945   9573464.43645  23166953.0804   23166960.7014
     -4635.7504
  10566607.62546   2580629.37746  22526980.7214   22526986.5684
     -3737.4064
   3404568.37747   2655501.19746  21677619.6044   21677625.4984
     -1661.8754
  -5281724.11247  -3950373.96646  22232364.9944   22232370.9474
       622.1414
    613704.54845    379329.44845  23913384.6274   23913393.7954
     -2333.9694
 01  8 19 17 32 30.0020000  0  9G 3G31G14G15G17G18G21G29G 9
   5779278.25546   4508352.27846  22527731.5494   22527737.5614
     -3087.4844
    125679.83046    148683.58545  23333895.2994   23333901.5104
     -1114.1254
  -3638071.13547  -2771497.49347  21335590.2294   21335595.7134
      -163.1564
  10061215.68447   7837873.80046  22034790.9634   22034797.1504
     -4020.8914
  12512613.02146   9681987.72645  23193456.5644   23193464.1504
     -4649.0164
  10678832.74646   2668077.47246  22548336.8854   22548342.9204
     -3744.2664
   3454540.06047   2694440.17046  21687128.8694   21687134.8464
     -1669.5784
  -5300160.87847  -3964740.20846  22228857.1664   22228863.3074
       606.9534
    684059.35344    434151.34045  23926771.5254   23926781.7254
     -2356.3594
 01  8 19 17 33  0.0020000  0  9G 3G31G14G15G17G18G21G29G 9
   5872190.46646   4580751.36246  22545412.8544   22545418.9944
     -3106.8284
    159426.10945    174979.41446  23340316.1434   23340323.2364
     -1135.7814
  -3632890.13447  -2767460.31347  21336576.1194   21336581.6864
      -182.4224
  10182068.96047   7932045.13446  22057788.6584   22057794.9284
     -4036.1564
  12652278.81145   9790818.09446  23220033.2684   23220040.4324
     -4662.1564
  10791258.97246   2755682.27246  22569730.8544   22569736.5254
     -3750.9694
   3504738.95447   2733556.19346  21696681.3614   21696687.4794
     -1677.1724
  -5318145.00547  -3978753.73846  22225434.2444   22225440.2794
       591.8134
    755082.19845    489493.80845  23940288.7684   23940295.5064
     -2378.6564
 01  8 19 17 33 30.0020000  0  9G 3G31G14G15G17G18G21G29G 9
   5965681.08446   4653601.15646  22563202.7754   22563208.7404
     -3125.7664
    193821.45746    201781.01346  23346862.9794   23346869.8734
     -1157.1094
  -3627132.22347  -2762973.60247  21337671.9244   21337677.3144
      -201.3284
  10303378.18047   8026571.73746  22080872.9084   22080879.0374
     -4051.0164
  12792337.20545   9899954.37845  23246686.9244   23246693.9364
     -4674.9064
  10903885.23546   2843442.94546  22591163.1434   22591168.9554
     -3757.3124
   3555164.26047   2772848.63146  21706276.8694   21706282.6704
     -1684.3754
  -5335675.79147  -3992414.02846  22222098.1974   22222104.0924
       577.0164
    826772.34945    545356.24845  23953930.1434   23953938.2684
     -2400.5784
 01  8 19 17 34  0.0020000  0  9G 3G31G14G15G17G18G21G29G 9
   6059743.66046   4726896.63546  22581102.4394   22581108.5924
     -3145.0004
    228861.54546    229085.01846  23353529.6894   23353535.8654
     -1178.8124
  -3620801.10147  -2758040.23047  21338876.6504   21338881.9364
      -220.6724
  10425137.85847   8121449.34746  22104043.1044   22104049.1154
     -4066.2344
  12932782.65546  10009392.27545  23273413.0884   23273421.1544
     -4688.0004
  11016706.72846   2931355.73546  22612632.1044   22612637.6824
     -3764.0314
   3605810.87647   2812313.52346  21715914.7994   21715920.8224
     -1691.9844
  -5352756.49647  -4005723.60146  22218847.9554   22218854.0024
       561.7664
    899125.61145    601735.37145  23967698.8544   23967708.6074
     -2422.9064
 01  8 19 17 34 30.0020000  0  9G 3G31G14G15G17G18G21G29G 9
   6154375.54146   4800635.72546  22599110.4864   22599116.7444
     -3163.8914
    264545.58046    256890.79245  23360319.9084   23360326.0254
     -1200.2194
  -3613896.88248  -2752660.28747  21340190.5334   21340195.8424
      -239.7344
  10547346.61447   8216676.89246  22127298.4944   22127304.4944
     -4081.1414
  13073613.42645  10119130.41445  23300211.9164   23300218.9514
     -4700.7664
  11129721.89946   3019419.46246  22634137.7604   22634144.1824
     -3770.4224
   3656678.44547   2851950.58146  21725594.2134   21725600.1194
     -1699.2974
  -5369386.85347  -4018682.26346  22215683.2834   22215689.2834
       546.8134
    972140.88745    658630.37345  23981593.1044   23981600.9474
     -2444.9064
 01  8 19 17 35  0.0020000  0  9G 3G31G14G15G17G18G21G29G 9
   6249580.62046   4874821.45546  22617227.7754   22617233.5764
     -3182.9224
    300879.95846    285203.33945  23367234.3464   23367240.5214
     -1221.8754
  -3606412.88548  -2746828.57247  21341614.9474   21341620.3144
      -259.0314
  10670009.78847   8312258.53646  22150641.0104   22150647.0574
     -4096.2344
  13214834.08245  10229172.36345  23327083.8464   23327091.8544
     -4713.7504
  11242935.97446   3107638.17446  22655681.5964   22655687.5024
     -3777.0004
   3707772.56647   2891764.17946  21735317.4324   21735323.5254
     -1706.7974
  -5385559.67847  -4031284.39946  22212605.5884   22212611.4124
       531.5634
   1045824.00145    716045.79945  23995613.6044   23995619.8854
     -2467.1564
 01  8 19 17 35 30.0020000  0  9G 3G31G14G15G17G18G21G29G 9
   6345353.43246   4949449.58646  22635452.6274   22635459.0844
     -3201.8754
    337861.50946    314020.17145  23374271.6354   23374278.1864
     -1243.5164
  -3598351.91348  -2740547.26547  21343148.6274   21343153.9594
      -278.3284
  10793123.30547   8408191.08346  22174068.7294   22174074.7404
     -4111.2814
  13356440.41645  10339514.81345  23354032.2294   23354039.6504
     -4726.6254
  11356345.14546   3196008.89546  22677263.7444   22677269.6974
     -3783.5624
   3759089.57047   2931751.45346  21745082.6044   21745088.5804
     -1714.2974
  -5401277.10347  -4043531.69146  22209614.6664   22209620.8424
       516.2974
   1120171.48445    773978.85145  24009762.0494   24009770.5724
     -2489.3124
 01  8 19 17 36  0.0020000  0  9G 3G31G14G15G17G18G21G29G 9
   6441695.02446   5024520.91346  22653786.0414   22653792.1004
     -3220.7194
    375493.40846    343343.75446  23381432.8304   23381438.5024
     -1265.1094
  -3589710.43748  -2733813.61047  21344793.0334   21344798.4124
      -297.6094
  10916689.25247   8504476.18246  22197582.4944   22197588.5884
     -4126.2664
  13498434.38445  10450159.33645  23381052.2834   23381059.2834
     -4739.4224
  11469951.90146   3284533.59746  22698882.2834   22698887.9794
     -3790.0314
   3810632.38347   2971914.68146  21754891.0104   21754896.8464
     -1721.7344
  -5416535.23447  -4055421.08346  22206711.1664   22206717.1784
       501.0784
   1195186.27645    832431.90845  24024037.2754   24024045.8344
     -2511.4694
 01  8 19 17 36 30.0020000  0  9G 3G31G14G15G17G18G21G29G 9
   6538604.63946   5100034.86146  22672226.9864   22672233.2794
     -3239.6254
    413777.23546    373175.33445  23388717.6354   23388723.6824
     -1286.8444
  -3580486.23148  -2726625.89047  21346548.4324   21346553.7524
      -317.0624
  11040708.29347   8601114.34146  22221183.0184   22221189.1004
     -4141.3754
  13640816.10645  10561105.97645  23408147.1194   23408154.7054
     -4752.3754
  11583756.93246   3373212.78846  22720538.1194   22720544.2364
     -3796.6874
   3862402.07247   3012254.70246  21764742.4394   21764748.4164
     -1729.2974
  -5431331.54747  -4066950.63146  22203895.0024   22203900.9084
       485.6254
   1270869.44945    891405.74045  24038439.5184   24038448.1704
     -2533.7814
 01  8 19 17 37  0.0020000  0  9G 3G31G14G15G17G18G21G29G 9
   6636075.00346   5175985.75546  22690775.2364   22690781.3894
     -3258.4694
    452707.95746    403510.99646  23396126.6434   23396132.9944
     -1308.6094
  -3570683.91547  -2718987.69247  21348413.5644   21348418.7094
      -336.5164
  11165174.66847   8698101.06946  22244868.1824   22244874.2404
     -4156.4534
  13783579.42045  10672349.98945  23435313.3224   23435322.6194
     -4765.2344
  11697754.74146   3462042.21746  22742231.4714   22742237.4594
     -3803.2504
   3914393.37447   3052767.40546  21774636.1354   21774641.9474
     -1736.8594
  -5445670.02647  -4078123.41846  22201166.3854   22201172.3264
       470.1564
   1347215.58445    950896.19745  24052969.6114   24052976.9164
     -2556.0474
 01  8 19 17 37 30.0020000  0  9G 3G31G14G15G17G18G21G29G 9
   6734104.61646   5252372.42246  22709429.8384   22709436.0844
     -3276.9694
    492286.29246    434351.28446  23403657.1434   23403663.3544
     -1330.0944
  -3560302.32647  -2710898.10947  21350389.0884   21350394.4324
      -355.7344
  11290088.19847   8795436.23546  22268638.1584   22268644.4394
     -4171.2504
  13926723.91145  10783891.01445  23462552.6824   23462559.9514
     -4777.8284
  11811945.13846   3551021.69846  22763961.6114   22763967.5644
     -3809.5624
   3966606.86747   3093453.25046  21784571.9474   21784577.8894
     -1744.1724
  -5459548.88247  -4088938.05846  22198525.5254   22198531.5494
       454.9384
   1424224.99845   1010903.48145  24067623.5024   24067628.7644
     -2578.0474
 01  8 19 17 38  0.0020000  0  9G 3G31G14G15G17G18G21G29G 9
   6832690.55646   5329192.59546  22728189.3854   22728195.7254
     -3295.4534
    532511.66446    465695.73246  23411312.4474   23411318.5534
     -1351.6414
  -3549341.73448  -2702357.36047  21352474.9794   21352480.1824
      -375.0164
  11415447.15847   8893118.48346  22292492.8464   22292498.9634
     -4186.0474
  14070247.52445  10895727.44545  23489864.5574   23489872.5294
     -4790.4224
  11926326.72346   3640150.16646  22785727.1584   22785732.8424
     -3815.8914
   4019041.31347   3134311.26446  21794549.9554   21794556.0614
     -1751.4844
  -5472967.96247  -4099394.43746  22195971.9084   22195977.9794
       439.6414
   1501896.50645   1071426.73945  24082403.6504   24082409.3114
     -2600.0944
 01  8 19 17 38 30.0020000  0  9G 3G31G14G15G17G18G21G29G 9
   6931830.81046   5406444.70946  22747055.3694   22747061.2524
     -3313.9064
    573384.08646    497544.39046  23419089.8074   23419096.0644
     -1373.2034
  -3537801.43348  -2693364.88947  21354671.0884   21354676.2564
      -394.3444
  11541250.72847   8991147.19446  22316433.1584   22316439.1234
     -4200.8754
  14214148.99145  11007858.31545  23517247.6044   23517256.0574
     -4803.0624
  12040899.02946   3729427.23946  22807530.6194   22807536.1274
     -3822.2664
   4071696.20947   3175341.06246  21804569.8854   21804575.7094
     -1758.8594
  -5485926.16447  -4109491.67946  22193506.3774   22193512.3304
       424.2344
   1580229.88845   1132465.70545  24097309.4164   24097315.8144
     -2622.1564
 01  8 19 17 39  0.0020000  0  9G 3G31G14G15G17G18G21G29G 9
   7031525.76046   5484129.04746  22766027.3694   22766033.6624
     -3332.3594
    614906.00646    529899.14846  23426991.6664   23426998.2754
     -1394.8594
  -3525678.51748  -2683918.43047  21356977.8614   21356983.1704
      -413.7974
  11667500.85447   9089523.85646  22340457.7364   22340463.9714
     -4215.7504
  14358429.98145  11120284.90645  23544702.7294   23544710.5964
     -4815.6724
  12155664.13546   3818854.54946  22829369.0724   22829374.9904
     -3828.7034
   4124574.14547   3216544.65246  21814632.0574   21814638.0334
     -1766.2814
  -5498419.89047  -4119226.99946  22191128.6824   22191134.7054
       408.7194
   1659227.42045   1194022.14945  24112341.6584   24112348.7994
     -2644.2814
 01  8 19 17 39 30.0020000  0  9G 3G31G14G15G17G18G21G29G 9
   7131773.86346   5562244.40946  22785103.4864   22785109.7324
     -3350.7344
    657078.21946    562760.61246  23435016.3304   23435022.6234
     -1416.5314
  -3512972.00348  -2674017.22147  21359395.6584   21359400.8734
      -433.2344
  11794197.17947   9188248.21346  22364567.0254   22364573.0374
     -4230.5784
  14503089.64645  11233006.55545  23572232.0884   23572239.4754
     -4828.2504
  12270622.15646   3908432.19146  22851245.2754   22851251.1354
     -3835.0784
   4177675.82447   3257922.58646  21824737.0644   21824742.9244
     -1773.7194
  -5510447.72747  -4128599.28246  22188839.5724   22188845.4674
       393.2034
   1738889.26345   1256096.26145  24127501.0334   24127508.0214
     -2666.3914
 01  8 19 17 40  0.0020000  0  9G 3G31G14G15G17G18G21G29G 9
   7232570.14546   5640786.93746  22804284.2834   22804290.3654
     -3368.9694
    699898.07046    596126.74746  23443164.7684   23443171.2254
     -1438.0944
  -3499683.94148  -2663662.85747  21361924.5574   21361929.7714
      -452.6094
  11921335.93547   9287317.32146  22388761.0334   22388767.2214
     -4245.2974
  14648124.26445  11346020.41045  23599832.0724   23599839.2714
     -4840.6874
  12385769.66046   3998157.46846  22873156.7684   22873162.8034
     -3841.3754
   4230998.27947   3299472.54946  21834884.0414   21834890.0184
     -1781.0784
  -5522011.25647  -4137609.77546  22186639.3224   22186645.2754
       377.7344
   1819212.35545   1318685.62945  24142786.0184   24142791.7254
     -2688.4224
 01  8 19 17 40 30.0020000  0  9G 3G31G14G15G17G18G21G29G 9
   7333911.95646   5719754.54346  22823569.0024   22823575.3894
     -3387.0624
    743365.01246    629997.10846  23451436.6744   23451442.8734
     -1459.6094
  -3485814.51148  -2652855.47747  21364563.8074   21364568.8814
      -471.9534
  12048915.87147   9386730.20446  22413038.4864   22413044.6624
     -4259.9534
  14793532.15445  11459325.10245  23627501.1504   23627509.9084
     -4853.0944
  12501105.84946   4088029.78546  22895105.0804   22895110.9044
     -3847.6094
   4284540.54447   3341193.78846  21845072.7364   21845078.7134
     -1788.3444
  -5533109.95547  -4146258.05146  22184527.0254   22184532.9204
       362.2664
   1900195.78245   1381789.54345  24158195.3544   24158201.9634
     -2710.3914
 01  8 19 17 41  0.0020000  0  9G 3G31G14G15G17G18G21G29G 9
   7435799.32446   5799147.25846  22842957.4714   22842963.5884
     -3405.2814
    787481.11846    664373.31146  23459831.3614   23459837.3384
     -1481.2974
  -3471361.08748  -2641593.04247  21367314.1434   21367319.1934
      -491.4694
  12176938.42147   9486487.97646  22437400.3224   22437406.6864
     -4274.7344
  14939314.38145  11572921.50545  23655242.7524   23655249.9754
     -4865.6094
  12616632.33246   4178050.36946  22917087.9084   22917093.8964
     -3854.0004
   4338304.82847   3383088.02746  21855303.8304   21855309.8074
     -1795.7974
  -5543740.58947  -4154541.60346  22182504.2754   22182510.2054
       346.5944
   1981841.20645   1445409.30145  24173732.9794   24173739.3894
     -2732.4844
 01  8 19 17 41 30.0020000  0  9G 3G31G14G15G17G18G21G29G 9
   7538227.87646   5878961.67446  22862449.7994   22862455.9634
     -3423.2504
    832244.20246    699253.65146  23468349.3304   23468356.0334
     -1502.8754
  -3456325.34548  -2629876.85147  21370175.1504   21370180.2364
      -510.8754
  12305400.56547   9586588.28746  22461846.0884   22461852.3344
     -4289.3754
  15085467.32245  11686806.74745  23683056.9714   23683065.3544
     -4877.9064
  12732346.21546   4268216.98946  22939107.2364   22939113.4364
     -3860.2344
   4392289.20147   3425153.76546  21865576.5964   21865582.4904
     -1803.1254
  -5553904.56747  -4162461.53446  22180570.2604   22180576.2014
       331.0164
   2064145.70145   1509542.68045  24189394.7054   24189401.8694
     -2754.4534
 01  8 19 17 42  0.0020000  0  9G 3G31G14G15G17G18G21G29G 9
   7641194.53846   5959195.38746  22882043.2364   22882049.1314
     -3441.1094
    877653.30146    734637.39546  23476990.9394   23476997.4794
     -1524.3284
  -3440707.59948  -2617707.14847  21373147.2834   21373152.3344
      -530.2344
  12434300.54547   9687029.76846  22486375.2524   22486381.2524
     -4303.8914
  15231989.10745  11800979.42345  23710937.3144   23710944.6434
     -4890.1414
  12848246.45946   4358528.81246  22961163.7054   22961169.4244
     -3866.3754
   4446492.89847   3467390.41246  21875891.4714   21875897.4474
     -1810.3754
  -5563601.51347  -4170017.53246  22178724.9164   22178730.9514
       315.4844
   2147108.34545   1574188.84045  24205182.9944   24205190.8964
     -2776.3284
 01  8 19 17 42 30.0020000  0  9G 3G31G14G15G17G18G21G29G 9
   7744698.45746   6039847.75146  22901739.4244   22901745.5064
     -3459.0474
    923709.30746    770525.18546  23485754.4864   23485760.6274
     -1545.9844
  -3424506.38047  -2605082.78947  21376230.1044   21376235.0374
      -549.7504
  12563638.75947   9787812.73646  22510986.8694   22510993.0574
     -4318.5474
  15378879.82245  11915439.54545  23738891.1114   23738899.7754
     -4902.4534
  12964333.70246   4448986.35046  22983254.0644   22983260.1234
     -3872.6724
   4500916.63547   3509798.51146  21886247.6744   21886253.7444
     -1817.7814
  -5572829.30447  -4177207.96646  22176968.6044   22176974.6394
       299.7814
   2230729.79644   1639348.41245  24221094.2134   24221104.7524
     -2798.3284
 01  8 19 17 43  0.0020000  0  9G 3G31G14G15G17G18G21G29G 9
   7848734.28346   6120914.58346  22921537.1044   22921543.1974
     -3476.7664
    970409.30946    806914.81746  23494641.9944   23494647.7714
     -1567.4534
  -3407724.22347  -2592005.75347  21379423.7294   21379428.8504
      -569.1564
  12693411.06747   9888933.95646  22535681.7294   22535688.0804
     -4333.0474
  15526135.19045  12030183.82645  23766911.8304   23766918.7134
     -4914.6564
  13080604.28346   4539586.74846  23005379.0644   23005385.1934
     -3878.8124
   4555557.26547   3552375.62246  21896645.4944   21896651.4364
     -1825.0474
  -5581589.94647  -4184034.38446  22175301.7914   22175307.9324
       284.1564
   2315006.46144   1705018.48545  24237130.2684   24237140.1864
     -2820.2194
 01  8 19 17 43 30.0020000  0  9G 3G31G14G15G17G18G21G29G 9
   7953303.43546   6202396.99746  22941435.7684   22941442.0144
     -3494.4844
   1017756.95446    843809.07746  23503651.2604   23503657.9634
     -1589.0314
  -3390357.02347  -2578472.83847  21382728.6504   21382733.6194
      -588.6414
  12823620.23647   9990395.57746  22560459.8384   22560465.8614
     -4347.5624
  15673757.65045  12145214.16645  23795003.7834   23795011.8614
     -4926.8124
  13197061.77046   4630332.77746  23027540.4714   23027546.3424
     -3885.0004
   4610418.55347   3595124.67346  21907085.3224   21907091.4284
     -1832.3594
  -5589878.94247  -4190493.29346  22173724.3224   22173730.3814
       268.4384
   2399941.64245   1771201.66745  24253294.6044   24253304.6974
     -2842.1254
 01  8 19 17 44  0.0020000  0  9G 3G31G14G15G17G18G21G29G 9
   8058399.16246   6284289.72446  22961435.3304   22961441.4594
     -3512.0314
   1065747.74046    881204.50946  23512783.6894   23512790.0884
     -1610.4844
  -3372408.89147  -2564487.24847  21386143.8074   21386148.7524
      -608.0314
  12954261.27347  10092193.72646  22585320.6824   22585327.0924
     -4361.9694
  15821741.68545  12260526.23545  23823166.6434   23823173.6074
     -4938.8914
  13313701.31146   4721220.69346  23049736.0024   23049741.9434
     -3891.0944
   4665495.83947   3638042.03746  21917566.3614   21917572.3144
     -1839.5944
  -5597699.65847  -4196587.30046  22172235.7054   22172241.8814
       252.7974
   2485530.36345   1837894.12045  24269581.3854   24269591.7604
     -2863.9224
 01  8 19 17 44 30.0020000  0  9G 3G31G14G15G17G18G21G29G 9
   8164022.03446   6366593.21746  22981533.9474   22981540.5804
     -3529.5314
   1114384.43846    919103.23646  23522039.0964   23522045.0844
     -1631.9844
  -3353876.51947  -2550046.40447  21389670.3694   21389675.5144
      -627.4844
  13085336.15547  10194329.92446  22610263.7214   22610269.7564
     -4376.3754
  15970089.03345  12376121.39745  23851393.7294   23851403.0024
     -4950.9534
  13430525.31546   4812252.31846  23071967.5184   23071973.4364
     -3897.2034
   4720791.97647   3681129.93546  21928088.8694   21928094.9984
     -1846.8594
  -5605048.18647  -4202313.37446  22170837.6354   22170843.6584
       237.0784
   2571774.84445   1905097.59945  24285994.1354   24286001.5684
     -2885.7344
 01  8 19 17 45  0.0030000  0  9G 3G31G14G15G17G18G21G29G 9
   8270168.36746   6449304.59946  23001733.2414   23001739.3234
     -3546.9224
   1163663.53746    957502.55846  23531415.8744   23531422.0154
     -1653.4374
  -3334763.97448  -2535153.48047  21393307.5624   21393312.5424
      -646.9224
  13216843.35647  10296802.99346  22635287.6164   22635293.8514
     -4390.7344
  16118798.35345  12491998.61145  23879693.5224   23879701.9404
     -4962.9224
  13547532.21146   4903426.45646  23094232.4214   23094238.1044
     -3903.2814
   4776304.07147   3724386.11146  21938652.1794   21938658.1674
     -1854.0944
  -5611928.93247  -4207674.94546  22169528.1714   22169534.2764
       221.3594
   2658672.18544   1972809.76745  24302528.7724   24302535.1244
     -2907.4844
 01  8 19 17 45 30.0030000  0  9G 3G31G14G15G17G18G21G29G 9
   8376832.55046   6532419.48946  23022031.1014   23022037.4994
     -3564.1414
   1213585.02046    996402.42446  23540916.2184   23540922.5584
     -1674.7814
  -3315068.53647  -2519806.35647  21397055.2574   21397060.2964
      -666.2504
  13348776.91447  10399608.29046  22660394.7024   22660400.7494
     -4404.9534
  16267862.24245  12608152.15145  23908057.9834   23908065.1124
     -4974.7814
  13664717.49646   4994739.60546  23116532.8434   23116538.4094
     -3909.2194
   4832031.87947   3767810.37746  21949257.2184   21949263.2064
     -1861.2194
  -5618336.84447  -4212668.07246  22168308.7884   22168314.7184
       205.7034
   2746219.87344   2041028.72045  24319188.7414   24319197.0774
     -2929.1254
 01  8 19 17 46  0.0030000  0  9G 3G31G14G15G17G18G21G29G 9
   8484013.93246   6615937.40146  23042426.4294   23042432.6044
     -3581.4224
   1264148.38546   1035802.45046  23550537.7724   23550544.1474
     -1696.2664
  -3294791.11547  -2504005.73847  21400913.9834   21400919.0464
      -685.7504
  13481138.37547  10502747.01146  22685582.5074   22685588.5654
     -4419.2814
  16417282.37745  12724583.23145  23936492.4134   23936502.0154
     -4986.7344
  13782082.79546   5086193.00846  23138866.7334   23138872.8624
     -3915.2974
   4887975.44447   3811402.76146  21959902.6084   21959908.5974
     -1868.5004
  -5624273.07347  -4217293.65746  22167179.1554   22167185.1554
       189.8754
   2834418.17245   2109754.60545  24335974.2964   24335983.7804
     -2950.9064
 01  8 19 17 46 30.0030000  0  9G 3G31G14G15G17G18G21G29G 9
   8591713.22246   6699858.87846  23062920.7184   23062927.1874
     -3598.4844
   1315356.13146   1075704.60046  23560282.8124   23560288.6124
     -1717.5624
  -3273928.27147  -2487748.94247  21404884.1474   21404889.3974
      -705.0784
  13613929.70847  10606220.69146  22710850.8664   22710856.8784
     -4433.4224
  16567060.59945  12841293.35445  23964995.3044   23965004.2264
     -4998.4694
  13899630.71346   5177788.73846  23161235.7184   23161241.7294
     -3921.1874
   4944137.80647   3855165.64646  21970589.9294   21970596.0224
     -1875.6254
  -5629733.71647  -4221548.64746  22166139.8904   22166145.8434
       174.2034
   2923269.29345   2178989.20345  24352882.6874   24352889.2374
     -2972.4694
 01  8 19 17 47  0.0030000  0  9G 3G31G14G15G17G18G21G29G 9
   8699923.75446   6784178.71446  23083513.4214   23083519.5734
     -3615.5474
   1367203.72146   1116105.32346  23570149.1014   23570155.4524
     -1738.9534
  -3252484.33047  -2471039.34647  21408964.6164   21408969.6554
      -724.5164
  13747145.48347  10710025.11346  22736201.9684   22736208.1204
     -4447.6254
  16717191.33445  12958278.16545  23993563.0774   23993571.6944
     -5010.2504
  14017356.45146   5269523.00546  23183637.9994   23183643.7064
     -3927.1874
   5000514.35047   3899095.42346  21981318.0854   21981324.1794
     -1882.8124
  -5634722.47147  -4225435.94246  22165190.4994   22165196.4174
       158.3914
   3012768.32044   2248728.74445  24369911.4444   24369919.0194
     -2994.1254
 01  8 19 17 47 30.0030000  0  9G 3G31G14G15G17G18G21G29G 9
   8808645.69946   6868897.05746  23104202.4294   23104208.3474
     -3632.7194
   1419693.55046   1157006.48446  23580137.3354   23580143.6514
     -1760.5164
  -3230456.41347  -2453874.70147  21413156.4764   21413161.4684
      -744.1564
  13880787.54647  10814161.71546  22761632.6084   22761638.7024
     -4462.0004
  16867675.99945  13075538.76645  24022199.5774   24022208.7454
     -5022.2194
  14135262.45446   5361397.77246  23206074.8974   23206081.0734
     -3933.3594
   5057107.73047   3943194.15946  21992087.2804   21992093.2694
     -1890.2344
  -5639235.68547  -4228952.68546  22164331.6554   22164337.6084
       142.3444
   3102917.17845   2318974.57345  24387067.7494   24387074.1474
     -3015.9374
 01  8 19 17 48  0.0030000  0  9G 3G31G14G15G17G18G21G29G 9
   8917877.50346   6954012.70746  23124988.2884   23124994.2764
     -3649.3124
   1472826.19746   1198408.55046  23590248.3744   23590254.5974
     -1781.5784
  -3207843.40447  -2436254.14247  21417459.5854   21417464.5424
      -763.2974
  14014855.76347  10918630.36546  22787145.4994   22787151.5224
     -4475.7974
  17018514.10145  13193074.76745  24050904.0854   24050912.1044
     -5033.5784
  14253349.06446   5453413.22846  23228545.4294   23228551.2534
     -3939.0004
   5113919.00547   3987462.68746  22002898.0934   22002904.0814
     -1897.1094
  -5643271.60647  -4232097.50546  22163563.4374   22163569.2614
       126.7974
   3193715.91245   2389726.79545  24404345.2804   24404353.0074
     -3037.2344
 01  8 19 17 48 30.0030000  0  9G 3G31G14G15G17G18G21G29G 9
   9027612.39346   7039520.35346  23145870.5774   23145876.8704
     -3666.1874
   1526596.90246   1240307.80446  23600480.5224   23600486.5224
     -1803.0164
  -3184649.32847  -2418180.80547  21421873.2724   21421878.1364
      -782.8284
  14149344.92547  11023427.02946  22812738.0854   22812744.0734
     -4489.9844
  17169699.84345  13310881.65645  24079672.6714   24079680.0584
     -5045.3284
  14371611.67446   5545565.86346  23251050.4134   23251056.7654
     -3945.0314
   5170943.69347   4031897.50546  22013749.5854   22013755.6904
     -1904.3914
  -5646833.86247  -4234873.23846  22162885.5694   22162891.5694
       110.8444
   3285159.48745   2460981.48445  24421747.1014   24421753.2654
     -3058.8754
 01  8 19 17 49  0.0030000  0  9G 3G31G14G15G17G18G21G29G 9
   9137849.12846   7125419.05746  23166848.1164   23166854.2454
     -3682.7504
   1581006.80846   1282705.15746  23610834.6084   23610841.0194
     -1824.1564
  -3160872.91047  -2399653.69647  21426397.7724   21426402.4724
      -802.1094
  14284255.44447  11128552.01146  22838410.5224   22838416.8514
     -4503.8754
  17321233.62445  13428959.72745  24108510.6634   24108518.7534
     -5056.7344
  14490051.27546   5637856.40246  23273589.4214   23273594.8004
     -3950.7814
   5228183.40647   4076499.87946  22024642.1244   22024648.1364
     -1911.4224
  -5649920.17847  -4237278.10946  22162298.2264   22162304.2264
        95.0784
   3377248.64645   2532739.22745  24439269.9374   24439279.9254
     -3080.2344
 01  8 19 17 49 30.0030000  0  9G 3G31G14G15G17G18G21G29G 9
   9248585.76546   7211707.28846  23187919.8664   23187926.5584
     -3699.5624
   1636055.37746   1325600.12846  23621309.4054   23621315.4874
     -1845.6414
  -3136513.62447  -2380672.40047  21431033.1324   21431038.1124
      -821.7344
  14419586.45447  11234004.65946  22864163.4294   22864169.6514
     -4518.0624
  17473114.11445  13547307.95245  24137411.4134   24137420.8044
     -5068.4844
  14608667.49746   5730284.57046  23296160.8194   23296167.1714
     -3956.8444
   5285638.22147   4121269.86946  22035575.4294   22035581.3704
     -1918.7664
  -5652529.66747  -4239311.42446  22161801.6794   22161807.6794
        78.9844
   3469982.34944   2604999.20245  24456917.1874   24456926.5774
     -3101.8914
 01  8 19 17 50  0.0030000  0  9G 3G31G14G15G17G18G21G29G 9
   9359823.83546   7298386.24146  23209088.0384   23209094.4374
     -3716.2344
   1691746.21146   1368995.59845  23631907.2264   23631913.4954
     -1867.0164
  -3111567.52347  -2361233.84747  21435780.2724   21435785.1364
      -841.2814
  14555340.86147  11339787.21846  22889996.7264   22890002.9954
     -4532.1564
  17625343.89145  13665928.35245  24166381.4524   24166390.0814
     -5080.0944
  14727464.14446   5822853.34246  23318766.6874   23318772.4294
     -3962.8594
   5343311.92047   4166210.41946  22046550.2184   22046556.1124
     -1926.0784
  -5654657.62047  -4240969.51546  22161396.9444   22161403.0734
        62.9224
   3563363.93543   2677764.04545  24474685.9134   24474694.9174
     -3123.4694
 01  8 19 17 50 30.0030000  0  9G 3G31G14G15G17G18G21G29G 9
   9471556.75646   7385450.80446  23230350.9444   23230357.0384
     -3732.5784
   1748074.96046   1412888.13946  23642626.5384   23642632.7374
     -1888.1874
  -3086038.42547  -2341341.01247  21440638.2804   21440643.0854
      -860.6254
  14691513.67347  11445895.81246  22915909.5694   22915915.8044
     -4545.9844
  17777917.69145  13784816.85045  24195412.8514   24195422.2184
     -5091.4534
  14846436.75846   5915559.22446  23341406.6794   23341412.4094
     -3968.6254
   5401201.02847   4211318.81946  22057566.5224   22057572.5584
     -1933.1414
  -5656307.11247  -4242254.78446  22161082.5074   22161088.4134
        47.0634
   3657388.30545   2751029.74245  24492581.2264   24492590.1124
     -3144.7814
 01  8 19 17 51  0.0030000  0  9G 3G31G14G15G17G18G21G29G 9
   9583780.04746   7472897.46546  23251706.0854   23251712.1084
     -3749.0164
   1805038.88946   1457275.59946  23653465.7804   23653472.0384
     -1909.4694
  -3059928.33647  -2320995.46047  21445606.8274   21445611.5154
      -880.1094
  14828101.50046  11552327.78946  22941900.8044   22941907.2144
     -4559.9374
  17930831.97345  13903970.60345  24224513.5774   24224522.2654
     -5102.9064
  14965582.88146   6008400.29346  23364079.6014   23364085.5194
     -3974.5314
   5459303.15347   4256593.20146  22068622.8354   22068628.6474
     -1940.3754
  -5657479.86247  -4243168.56446  22160859.8664   22160865.7964
        31.0634
   3752052.30643   2824793.87345  24510592.0544   24510600.9174
     -3166.2344
 01  8 19 17 51 30.0030000  0  9G 3G31G14G15G17G18G21G29G 9
   9696493.22346   7560725.85846  23273154.1164   23273160.4094
     -3765.2194
   1862639.48646   1502159.18945  23664427.6084   23664433.8084
     -1930.5944
  -3033235.15147  -2300195.54547  21450686.2494   21450691.0304
      -899.4694
  14965105.31146  11659083.90546  22967972.1554   22967978.2264
     -4573.6874
  18084087.54545  14023390.31845  24253678.1324   24253687.1834
     -5114.1564
  15084904.27646   6101377.95946  23386785.9834   23386792.0544
     -3980.2504
   5517620.47147   4302035.26446  22079720.2804   22079726.2334
     -1947.4534
  -5658172.85447  -4243708.50946  22160727.7414   22160733.6594
        15.1254
   3847357.35645   2899057.45545  24528730.0934   24528737.9254
     -3187.4694
 01  8 19 17 52  0.0030000  0  9G 3G31G14G15G17G18G21G29G 9
   9809692.30346   7648932.86846  23294695.2334   23294701.1514
     -3781.2814
   1920874.53946   1547537.14345  23675509.2724   23675515.1204
     -1951.6564
  -3005960.21447  -2278942.32347  21455876.6554   21455881.4374
      -918.7664
  15102522.67246  11766162.26446  22994121.9214   22994128.0854
     -4587.3594
  18237681.47045  14143073.70745  24282904.5774   24282914.0034
     -5125.3284
  15204398.82346   6194490.53446  23409525.0694   23409530.8824
     -3985.9374
   5576151.36347   4347643.74946  22090858.2494   22090864.1674
     -1954.4844
  -5658386.93447  -4243875.28346  22160686.8354   22160692.9404
        -0.7664
   3943300.70745   2973818.50445  24546988.9444   24546995.7654
     -3208.6414
 01  8 19 17 52 30.0030000  0  9G 3G31G14G15G17G18G21G29G 9
   9923369.90846   7737512.77246  23316328.3434   23316334.8234
     -3797.2194
   1979738.87546                  23686711.0544
     -1972.6414
  -2978108.36647  -2257239.56047  21461176.5384   21461181.1444
      -938.0314
  15240347.53246  11873558.17146  23020349.7414   23020355.5774
     -4600.9534
  18391607.55844  14263015.90445  24312195.0464   24312203.2184
     -5136.4224
  15324061.63646   6287734.21946  23432296.5544   23432302.5194
     -3991.5624
   5634891.35847   4393415.17046  22102036.2024   22102042.1084
     -1961.5004
  -5658126.08447  -4243671.97846  22160736.4054   22160742.5224
       -16.6254
   4039876.60745   3049072.41845  24565364.0154   24565369.4644
     -3229.7504
 01  8 19 17 53  0.0030000  0  9G 3G31G14G15G17G18G21G29G 9
  10037532.78946   7826470.79746  23338052.1084   23338058.2264
     -3813.2974
   2039241.12446     23241.81756  23698033.4444   23698039.3154
     -1993.8284
  -2949670.36547  -2235080.05547  21466588.1474   21466592.8234
      -957.5004
  15378588.21446  11981278.07946  23046655.9604   23046662.5584
     -4614.7344
  18545873.77445  14383223.11745  24341552.7724   24341561.7534
     -5147.6564
  15443901.42846   6381115.81646  23455101.3274   23455107.2804
     -3997.3914
   5693849.81247   4439356.81846  22113255.5074   22113261.3784
     -1968.7034
  -5657380.69647  -4243091.10846  22160878.3664   22160884.3314
       -32.7344
   4137093.59345   3124825.85445  24583864.7334   24583872.8474
     -3251.0314
 01  8 19 17 53 30.0030000  0  9G 3G31G14G15G17G18G21G29G 9
  10152170.11246   7915798.52046  23359867.4604   23359873.6364
     -3829.0624
   2099372.16846     70097.17746  23709476.8044   23709482.9684
     -2014.7814
  -2920654.77047  -2212470.47647  21472109.3974   21472114.2144
      -976.7664
  15517235.11546  12089314.52646  23073039.5384   23073045.6794
     -4628.2664
  18700470.12645  14503687.58145  24370970.6164   24370982.2224
     -5158.6564
  15563909.50946   6474628.55446  23477938.0074   23477943.9134
     -4003.0164
   5753017.75447   4485461.70746  22124514.6404   22124520.6634
     -1975.7194
  -5656158.37847  -4242138.60946  22161111.0304   22161117.1014
       -48.6414
   4234942.01445   3201071.31945  24602484.1244   24602493.3864
     -3272.0784
 01  8 19 17 54  0.0030000  0  9G 3G31G14G15G17G18G21G29G 9
  10267278.28646   8005493.13846  23381771.8664   23381778.1244
     -3844.6724
   2160130.35146    117441.17646  23721037.8744   23721043.8974
     -2035.6414
  -2891062.48347  -2189411.53047  21477740.8974   21477745.5854
      -995.9374
  15656286.02246  12197665.78046  23099500.2024   23099506.2144
     -4641.6564
  18855394.17344  14624407.38745  24400451.0694   24400459.9564
     -5169.5164
  15684084.73946   6568271.53546  23500805.3044   23500811.4794
     -4008.5474
   5812394.52747   4531729.31546  22135813.9214   22135819.8044
     -1982.6094
  -5654459.50547  -4240814.76946  22161434.0074   22161439.9014
       -64.5004
   4333419.71545   3277807.12945  24621225.4834   24621231.4014
     -3292.9844
 01  8 19 17 54 30.0030000  0  9G 3G31G14G15G17G18G21G29G 9
  10382860.37346   8095557.03246  23403766.5384   23403772.9254
     -3860.5164
   2221521.03346    165278.07746  23732720.2334   23732726.3154
     -2056.7974
  -2860887.79147  -2165898.76347  21483482.7264   21483487.5894
     -1015.4374
  15795745.76646  12306335.61646  23126037.9374   23126044.6634
     -4655.3754
  19010650.56344  14745386.19745  24429996.6714   24430005.3474
     -5180.6414
  15804432.80446   6662049.19246  23523707.6244   23523713.5424
     -4014.3914
   5871986.03647   4578164.25146  22147153.7494   22147159.7264
     -1989.8754
  -5652277.51047  -4239114.47746  22161849.4214   22161855.3864
       -80.7194
   4432531.59245   3355037.14645  24640084.4764   24640091.4054
     -3314.2034
 01  8 19 17 55  0.0030000  0  9G 3G31G14G15G17G18G21G29G 9
  10498912.70846   8185987.36646  23425850.1874   23425856.2924
     -3876.0164
   2283542.07846    213606.13746  23744522.5854   23744528.6444
     -2077.6724
  -2830131.93347  -2141933.14047  21489335.2964   21489340.1244
     -1034.6724
  15935611.99846  12415322.18346  23152654.0694   23152660.3394
     -4668.7664
  19166236.46344  14866621.73845  24459604.3904   24459611.8124
     -5191.4374
  15924951.74346   6755959.98546  23546642.4214   23546648.0464
     -4019.9374
   5931791.35147   4624765.78346  22158534.4994   22158540.4174
     -1996.8914
  -5649613.08047  -4237038.25446  22162356.2574   22162362.2334
       -96.6564
   4532275.39445   3432759.52945  24659066.5774   24659073.1754
     -3335.1094
 01  8 19 17 55 30.0030000  0  9G 3G31G14G15G17G18G21G29G 9
  10615428.31846   8276778.67546  23448022.2024   23448028.5424
     -3891.4064
   2346188.54046    262421.51746  23756444.3194   23756450.8124
     -2098.5004
  -2798799.42047  -2117518.17747  21495297.8354   21495302.5464
     -1053.8914
  16075879.08646  12524621.10546  23179346.5854   23179352.7724
     -4682.1094
  19322146.12544  14988109.55845  24489272.3974   24489283.1014
     -5202.2344
  16045637.12346   6850000.48046  23569608.2024   23569613.9684
     -4025.4844
   5991806.12947   4671530.54546  22169954.7414   22169960.7184
     -2003.8444
  -5646470.04447  -4234589.09746  22162954.3354   22162960.2764
      -112.6254
   4632645.42345   3510969.90345  24678164.4604   24678173.9214
     -3355.9694
 01  8 19 17 56  0.0030000  0  9G 3G31G14G15G17G18G21G29G 9
  10732402.91546   8367927.64446  23470282.2184   23470288.5694
     -3906.7814
   2409457.92446    311722.32446  23768482.9294   23768489.0814
     -2119.3754
  -2766891.90147  -2092655.15547  21501369.6244   21501374.4524
     -1073.1724
  16216544.38646  12634230.32246  23206113.9524   23206120.1984
     -4695.4844
  19478376.51144  15109847.27545  24519002.2964   24519013.7614
     -5213.0164
  16166486.89646   6944169.08446  23592605.1164   23592611.0584
     -4031.0784
   6052028.71447   4718457.22046  22181414.7184   22181420.8004
     -2010.9064
  -5642849.19947  -4231767.62246  22163643.3044   22163649.2804
      -128.6564
   4733638.60445   3589665.84045  24697383.4374   24697392.1944
     -3376.8444
 01  8 19 17 56 30.0030000  0  9G 3G31G14G15G17G18G21G29G 9
  10849837.53846   8459435.06446  23492629.4914   23492635.9254
     -3921.9694
   2473353.02046    361510.70046  23780642.9134   23780649.0654
     -2140.1094
  -2734405.90947  -2067341.37547  21507551.2804   21507556.0154
     -1092.3594
  16357610.27746  12744151.69146  23232957.5384   23232964.1944
     -4708.7344
  19634929.79545  15231836.62645  24548795.0544   24548805.5934
     -5223.6724
  16287504.45446   7038468.41546  23615633.6014   23615639.8584
     -4036.5624
   6112463.21547   4765549.03246  22192915.0384   22192921.0624
     -2017.8754
  -5638746.58847  -4228570.74046  22164424.2574   22164430.0584
      -144.6414
   4835257.47345   3668849.36045  24716721.6084   24716728.0304
     -3397.5784
 01  8 19 17 57  0.0030000  0  9G 3G31G14G15G17G18G21G29G 9
  10967726.75246   8551296.71346  23515062.3904   23515068.4254
     -3937.2194
   2537870.49346    411784.04046  23792919.7334   23792925.8044
     -2160.9694
  -2701344.46047  -2041579.18847  21513842.8664   21513847.7764
     -1111.6564
  16499072.74046  12854382.07146  23259877.6944   23259884.1514
     -4722.0314
  19791801.66544  15354074.19045  24578644.9524   24578653.6284
     -5234.4064
  16408686.67546   7132896.06846  23638692.7654   23638698.9524
     -4042.1724
   6173106.84947   4812803.80746  22204455.2264   22204461.2844
     -2024.9534
  -5634164.22147  -4225000.02846  22165295.8744   22165301.8974
      -160.7504
   4937498.20544   3748517.42145  24736175.3044   24736184.1794
     -3418.4064
 01  8 19 17 57 30.0030000  0  9G 3G31G14G15G17G18G21G29G 9
  11086066.93246   8643509.77846  23537582.4684   23537588.7264
     -3952.1724
   2603008.26346    462540.71146  23805315.2574   23805321.2454
     -2181.6094
  -2667708.72047  -2015369.50247  21520243.4054   21520248.2804
     -1130.7814
  16640929.70646  12964919.86846  23286872.3194   23286878.7184
     -4735.1414
  19948989.63945  15476558.08845  24608558.7654   24608568.0504
     -5244.8594
  16530032.32146   7227451.05746  23661785.0544   23661791.1834
     -4047.5944
   6233958.21547   4860220.44346  22216034.9214   22216040.8624
     -2031.8754
  -5629102.76147  -4221055.99346  22166259.3274   22166265.3744
      -176.7034
   5040358.54045   3828668.30645  24755750.7964   24755758.5224
     -3439.0004
 01  8 19 17 58  0.0030000  0  9G 3G31G14G15G17G18G21G29G 9
  11204855.06146   8736071.88446  23560186.4764   23560192.6754
     -3967.0944
   2668765.16846    513779.83246  23817827.7414   23817833.8124
     -2202.2504
  -2633498.89947  -1988712.48447  21526753.3584   21526758.2924
     -1149.9374
  16783179.75446  13075763.93846  23313941.3124   23313948.4054
     -4748.2504
  20106492.05445  15599286.97845  24638530.7724   24638540.9374
     -5255.3444
  16651540.88246   7322132.98646  23684907.8824   23684914.1284
     -4053.0314
   6295017.79947   4907799.32446  22227654.0384   22227660.1554
     -2038.8284
  -5623561.73347  -4216738.27446  22167313.4604   22167319.4374
      -192.7504
   5143837.24944   3909300.96945  24775441.8974   24775452.9404
     -3459.6414
 01  8 19 17 58 30.0040000  0  9G 3G31G14G15G17G18G21G29G 9
  11324093.26646   8828984.69046  23582876.6914   23582883.1484
     -3981.8444
   2735143.08846    565502.88646  23830459.7074   23830465.4734
     -2222.7974
  -2598713.88847  -1961607.26247  21533372.8554   21533377.6254
     -1169.0004
  16925826.50646  13186917.15646  23341086.5664   23341092.9654
     -4761.2344
  20264313.01844  15722264.12845  24668561.2854   24668571.0984
     -5265.7194
  16773216.29846   7416944.96246  23708061.4024   23708067.5084
     -4058.3914
   6356287.98947   4955542.31646  22239313.3634   22239319.3164
     -2045.7344
  -5617540.25347  -4212046.17546  22168459.4884   22168465.5004
      -208.6874
   5247936.66345   3990417.36245  24795251.0044   24795260.3714
     -3480.1254
 01  8 19 17 59  0.0040000  0  9G 3G31G14G15G17G18G21G29G 9
  11443769.67046   8922238.95146  23605651.6764   23605658.4374
     -3996.6564
   2802135.92546    617705.07646  23843207.9654   23843214.6334
     -2243.4844
  -2563357.13747  -1934056.53247  21540100.9734   21540105.5554
     -1188.2194
  17068858.44946  13298370.51046  23368304.0194   23368311.6294
     -4774.3124
  20422439.63044  15845479.38145  24698653.4574   24698663.5394
     -5276.1414
  16895049.53346   7511879.92446  23731245.1914   23731251.3554
     -4063.9064
   6417763.60747   5003445.37946  22251011.6444   22251017.5984
     -2052.7504
  -5611039.14347  -4206980.33946  22169696.6214   22169702.5164
      -224.8124
   5352647.51545   4072010.27845  24815178.1604   24815184.1844
     -3500.7034
 01  8 19 17 59 30.0040000  0  9G 3G31G14G15G17G18G21G29G 9
  11563891.82346   9015840.56346  23628510.0124   23628516.5984
     -4011.3594
   2869750.85946    670392.01546  23856074.7624   23856081.2074
     -2264.0784
  -2527421.64347  -1906054.83447  21546939.4654   21546944.0124
     -1207.3914
  17212285.05746  13410131.38646  23395597.6914   23395604.4414
     -4787.3444
  20580881.69844  15968940.47845  24728803.3874   24728814.2544
     -5286.5474
  17017050.19446   7606945.33646  23754461.9494   23754467.6914
     -4069.3914
   6479452.84347   5051514.90046  22262750.9494   22262756.8444
     -2059.7664
  -5604051.60847  -4201535.48146  22171026.3324   22171032.2154
      -240.9224
   5457978.02643   4154085.98345  24835217.2544   24835231.4374
     -3521.2504
 01  8 19 18  0  0.0040000  0  9G 3G31G14G15G17G18G21G29G 9
  11684448.90746   9109781.07146  23651451.2694   23651457.8794
     -4025.8284
   2937978.81846    723556.64246  23869057.8634   23869064.6954
     -2284.5004
  -2490915.61547  -1877608.56547  21553886.0904   21553890.5784
     -1226.4224
  17356097.25446  13522192.71646  23422964.2774   23422970.5594
     -4800.1874
  20739629.72544  16092639.98945  24759013.2384   24759023.3324
     -5296.7034
  17139210.37146   7702135.04046  23777708.0514   23777713.9344
     -4074.6874
   6541347.92647   5099744.82746  22274528.9654   22274534.9184
     -2066.6414
  -5596585.03247  -4195717.32946  22172446.8484   22172452.6484
      -256.9064
   5563919.10045   4236637.28045  24855383.2464   24855391.4884
     -3541.5624
 01  8 19 18  0 30.0040000  0  9G 3G31G14G15G17G18G21G29G 9
  11805439.00546   9204058.99646  23674474.1684   23674479.9924
     -4040.2504
   3006819.97646    777199.07146  23882157.6764   23882164.9574
     -2304.9534
  -2453838.32747  -1848717.15947  21560941.5354   21560946.2464
     -1245.4844
  17500294.86146  13634554.38446  23450404.3794   23450411.2734
     -4813.0314
  20898683.18843  16216577.49845  24789280.6444   24789290.0234
     -5306.9064
  17261530.63646   7797449.49246  23800984.1994   23800990.2344
     -4080.0474
   6603450.07547   5148136.09546  22286346.6994   22286352.7694
     -2073.5784
  -5588638.04247  -4189524.84446  22173959.1914   22173965.2034
      -272.9534
   5670470.18043   4319664.28045  24875655.3324   24875659.1994
     -3561.8914
 01  8 19 18  1  0.0040000  0  9G 3G31G14G15G17G18G21G29G 9
  11926860.46146   9298673.03746  23697579.9414   23697586.6094
     -4054.6874
   3076274.08246    831319.11046  23895374.6844   23895381.3404
     -2325.4844
  -2416189.23547  -1819380.19047  21568105.8404   21568110.4924
     -1264.6414
  17644877.30346  13747215.91446  23477916.8794   23477923.4654
     -4825.9534
  21058041.39143  16340752.39745  24819604.8404   24819613.5984
     -5317.1254
  17384011.54346   7892889.10746  23824292.2154   23824298.4024
     -4085.5164
   6665760.37547   5196689.56246  22298203.9184   22298209.9304
     -2080.6094
  -5580209.54347  -4182957.15046  22175562.9964   22175568.9144
      -289.1414
   5777630.77445   4403165.86745  24896049.7074   24896061.3944
     -3582.2974
 01  8 19 18  1 30.0040000  0  9G 3G31G14G15G17G18G21G29G 9
  12048712.53246   9393622.61546  23720768.3554   23720774.4374
     -4068.8124
   3146342.35646    885917.73246  23908708.2774   23908715.0744
     -2345.7504
  -2377966.57447  -1789596.28647  21575379.5274   21575384.2154
     -1283.5784
  17789845.37146  13860177.93246  23505503.9494   23505510.6294
     -4838.6254
  21217704.96444  16465165.32945  24849988.0904   24849997.9264
     -5327.1254
  17506654.99746   7988455.38246  23847630.2074   23847635.8674
     -4090.7664
   6728281.14647   5245407.03346  22310101.2934   22310107.3054
     -2087.4694
  -5571296.87047  -4176012.18246  22177258.8874   22177264.7344
      -305.0784
   5885401.58545   4487143.10645  24916558.3244   24916563.4104
     -3602.4374
 01  8 19 18  2  0.0040000  0  9G 3G31G14G15G17G18G21G29G 9
  12170986.69046   9488901.10046  23744036.2854   23744042.5904
     -4082.7664
   3217017.77146    940989.45546  23922157.4734   23922164.4734
     -2365.9064
  -2339176.53947  -1759370.27247  21582760.8634   21582765.5394
     -1302.4064
  17935191.93846  13973434.88146  23533162.7934   23533169.7694
     -4851.1254
  21377666.40545  16589810.38345  24880428.6294   24880439.9304
     -5336.9534
  17629455.04646   8084143.67645  23870998.3094   23871003.9924
     -4095.8914
   6791006.86347   5294284.20246  22322037.6444   22322043.5394
     -2094.2344
  -5561905.49547  -4168694.19646  22179046.0744   22179051.8754
      -321.0004
   5993775.43644   4571590.25245  24937179.5044   24937186.2304
     -3622.4374
 01  8 19 18  2 30.0040000  0  9G 3G31G14G15G17G18G21G29G 9
  12293682.73646   9584508.32746  23767383.4734   23767389.9184
     -4096.8914
   3288301.63246    996535.28546  23935721.6844   23935728.0594
     -2386.2974
  -2299817.29547  -1728700.71847  21590250.8164   21590255.5514
     -1321.4844
  18080918.03846  14086987.57946  23560894.2234   23560901.5044
     -4863.8594
  21537926.49545  16714688.06345  24910925.2234   24910934.6374
     -5346.9844
  17752413.53246   8179955.43146  23894397.6524   23894404.0744
     -4101.2664
   6853940.21047   5343323.15846  22334013.2624   22334019.2854
     -2101.2664
  -5552032.75147  -4161001.11646  22180924.6054   22180930.6054
      -337.1414
   6102752.62244   4656507.56445  24957918.1294   24957925.5624
     -3642.6414
 01  8 19 18  3  0.0040000  0  9G 3G31G14G15G17G18G21G29G 9
  12416796.56146   9680441.08746  23790812.2384   23790819.0004
     -4110.6724
   3360191.77146   1052553.53846  23949402.9734   23949409.2304
     -2406.3754
  -2259890.17247  -1697588.66047  21597848.6914   21597853.4024
     -1340.3124
  18227021.25946  14200834.12746  23588695.6134   23588702.4224
     -4876.3444
  21698482.60744  16839796.44845  24941477.5824   24941488.2384
     -5356.7194
  17875529.04446   8275889.53646  23917824.9264   23917831.3594
     -4106.4064
   6917079.96547   5392522.94546  22346028.8244   22346034.7894
     -2108.0474
  -5541679.29047  -4152933.45746  22182894.8714   22182900.9304
      -353.0784
   6212330.85344   4741893.10045  24978769.7544   24978781.2894
     -3662.5624
 01  8 19 18  3 30.0040000  0  9G 3G31G14G15G17G18G21G29G 9
  12540325.30846   9776697.15746  23814319.1214   23814325.9184
     -4124.4374
   3432686.72846   1109043.09146  23963198.3324   23963204.7304
     -2426.4844
  -2219396.10447  -1666034.82247  21605554.2854   21605559.1024
     -1359.1874
  18373499.81546  14314973.15946  23616570.1054   23616577.1994
     -4888.7814
  21859332.71044  16965133.90445  24972085.1844   24972099.1444
     -5366.4694
  17998801.21646   8371945.72046  23941283.6294   23941288.9614
     -4111.5944
   6980425.68647   5441883.23446  22358082.8714   22358088.9414
     -2114.8914
  -5530845.13647  -4144491.22546  22184956.5434   22184962.6024
      -369.0944
   6322508.35344   4827745.76845  24999735.3164   24999744.1214
     -3682.5004
 01  8 19 18  4  0.0040000  0  9G 3G31G14G15G17G18G21G29G 9
  12664261.03146   9873270.35246  23837903.2304   23837909.8874
     -4137.9844
   3505780.18846   1165998.99146  23977106.9104   23977112.9344
     -2446.4694
  -2178340.33447  -1634043.30047  21613367.0664   21613371.7544
     -1377.9374
  18520347.51746  14429399.82646  23644515.0984   23644521.4964
     -4901.1094
  22020470.40345  17090695.45845  25002750.2384   25002759.8874
     -5376.0624
  18122224.79846   8468119.86946  23964770.6134   23964776.6024
     -4116.6874
   7043972.82147   5491400.46246  22370175.2154   22370181.2384
     -2121.6564
  -5519534.91047  -4135678.03646  22187108.9654   22187114.7894
      -385.0164
   6433278.65543   4914060.18345  25020814.2234   25020824.8204
     -3702.2504
 01  8 19 18  4 30.0040000  0  9G 3G31G14G15G17G18G21G29G 9
  12788604.20446   9970161.04846  23861565.2384   23861571.5084
     -4151.4224
   3579474.25146   1223422.90146  23991130.2074   23991136.3124
     -2466.3754
  -2136720.12047  -1601611.94747  21621287.0434   21621291.6724
     -1396.6564
  18667566.34546  14544115.68946  23672529.2694   23672536.5514
     -4913.3754
  22181897.24645  17216482.38545  25033468.8164   25033480.6684
     -5385.6094
  18245802.78846   8564414.34045  23988285.0194   23988291.0084
     -4121.7344
   7107724.54747   5541077.11446  22382307.2544   22382313.2894
     -2128.3914
  -5507745.10747  -4126491.14946  22189352.4024   22189358.1564
      -400.8754
   6544643.51644   5000838.05045  25042006.9344   25042014.4614
     -3721.9694
 01  8 19 18  5  0.0040000  0  9G 3G31G14G15G17G18G21G29G 9
  12913352.39846  10067367.34646  23885304.4654   23885311.3714
     -4164.8754
   3653768.49246   1281314.46846  24005268.2154   24005274.2504
     -2486.3444
  -2094535.29347  -1568740.64147  21629314.4414   21629319.1764
     -1415.4694
  18815155.47446  14659120.09746  23700614.8794   23700622.1134
     -4925.6874
  22343612.14145  17342493.68645  25064243.2544   25064255.9494
     -5395.1724
  18369535.43046   8660829.31045  24011832.0044   24011837.7934
     -4126.8754
   7171681.93947   5590914.03246  22394477.7544   22394483.6374
     -2135.2504
  -5495474.74747  -4116929.79846  22191687.3944   22191693.2774
      -416.8914
   6656601.87943   5088078.27145  25063310.4344   25063320.3284
     -3741.7034
 01  8 19 18  5 30.0040000  0  9G 3G31G14G15G17G18G21G29G 9
  13038496.79446  10164882.34946  23909117.4884   23909124.1804
     -4177.9694
   3728655.60346   1339668.02646  24019519.5904   24019526.3984
     -2506.0164
  -2051792.49047  -1535434.54747  21637448.2934   21637452.7814
     -1433.9694
  18963107.47546  14774407.26246  23728768.5984   23728775.5514
     -4937.6874
  22505607.52845  17468723.57845  25095069.6994   25095078.2694
     -5404.4064
  18493416.47346   8757359.93745  24035405.9884   24035412.4924
     -4131.7664
   7235839.39247   5640906.84446  22406686.6054   22406692.4884
     -2141.8284
  -5482729.81347  -4106998.65146  22194112.6684   22194118.5274
      -432.6724
   6769146.15743   5175775.06745  25084727.5124   25084736.0944
     -3761.1414
 01  8 19 18  6  0.0040000  0  9G 3G31G14G15G17G18G21G29G 9
  13164035.32746  10262704.48546  23933007.9574   23933015.0274
     -4191.1564
   3804134.94246   1398483.06345  24033882.5664   24033888.9064
     -2525.8444
  -2008491.32847  -1501693.37347  21645688.2624   21645692.7624
     -1452.6724
  19111421.64846  14889976.61946  23756993.0354   23757000.0594
     -4949.8124
  22667882.47244  17595171.28145  25125949.4104   25125961.4734
     -5413.7664
  18617446.62146   8854006.74645  24059009.1134   24059015.1374
     -4136.8124
   7300197.38647   5691055.91846  22418933.6054   22418939.6054
     -2148.6254
  -5469509.04847  -4096696.71946  22196628.7624   22196634.5984
      -448.6094
   6882275.29443   5263927.68845  25106253.8794   25106264.4304
     -3780.7034
 01  8 19 18  6 30.0040000  0  9G 3G31G14G15G17G18G21G29G 9
  13289968.36646  10360834.02446  23956971.2544   23956978.4184
     -4204.3444
   3880208.52346   1457761.13646  24048358.5664   24048364.9884
     -2545.6874
  -1964629.41847  -1467515.24947  21654034.9734   21654039.5434
     -1471.4374
  19260099.57246  15005829.42846  23785284.9494   23785292.0314
     -4962.0004
  22830438.42644  17721837.99645  25156883.5824   25156897.7304
     -5423.2344
  18741628.68046   8950771.93145  24082638.7544   24082644.9774
     -4141.9534
   7364759.97347   5741364.41346  22431219.5514   22431225.6334
     -2155.5164
  -5455809.19147  -4086021.47446  22199235.4104   22199241.3284
      -464.6874
   6995990.76343   5352537.01545  25127895.2544   25127904.6684
     -3800.2814
 01  8 19 18  7  0.0040000  0  9G 3G31G14G15G17G18G21G29G 9
  13416289.95546  10459266.32846  23981010.4574   23981017.4574
     -4217.1094
   3956871.71046   1517498.65246  24062946.8944   24062952.8834
     -2565.2194
  -1920210.20947  -1432902.86847  21662487.6294   21662492.1294
     -1489.8914
  19409136.89646  15121962.29146  23813646.4344   23813652.7034
     -4973.8444
  22993270.54043  17848719.85145  25187867.5434   25187880.3794
     -5432.2814
  18865959.33546   9047652.90045  24106298.2234   24106304.2584
     -4146.7974
   7429523.84447   5791829.75346  22443543.6684   22443549.6334
     -2162.1094
  -5441633.37247  -4074975.34246  22201933.0124   22201938.9534
      -480.4224
   7110287.75943   5441599.63745  25149643.4414   25149652.8204
     -3819.5314
 01  8 19 18  7 30.0040000  0  9G 3G31G14G15G17G18G21G29G 9
  13542996.61046  10557998.69246  24005121.7234   24005128.6294
     -4229.9534
   4034122.77346   1577694.24346  24077648.0194   24077654.0784
     -2584.8444
  -1875235.11647  -1397857.33647  21671046.0904   21671050.5784
     -1508.4534
  19558531.57346  15238373.59746  23842075.0984   23842082.3794
     -4985.7814
  23156376.61644  17975815.21245  25218906.3014   25218913.7234
     -5441.4374
  18990437.59746   9144648.88145  24129984.9964   24129990.2934
     -4151.7504
   7494488.30947   5842451.39446  22455905.9184   22455911.9884
     -2168.8444
  -5426981.76047  -4063558.47246  22204721.2694   22204727.1414
      -496.3444
   7225164.27044   5531113.75845  25171507.0664   25171514.4534
     -3838.8754
 01  8 19 18  8  0.0040000  0  9G 3G31G14G15G17G18G21G29G 9
  13670087.26546  10657030.27546  24029306.0044   24029312.7664
     -4242.7664
   4111962.18346   1638348.29246  24092460.5354   24092466.9344
     -2604.4694
  -1829702.60547  -1362377.44747  21679710.7154   21679715.2854
     -1527.0624
  19708284.16246  15355063.81446  23870571.9964   23870578.9024
     -4997.7344
  23319757.07144  18103124.37945  25249997.7694   25250009.8444
     -5450.5944
  19115065.28546   9241761.30145  24153702.2774   24153708.5824
     -4156.7664
   7559655.78447   5893231.23246  22468306.9264   22468312.8554
     -2175.6724
  -5411852.14547  -4051769.12046  22207600.1524   22207605.9534
      -512.3124
   7340620.18444   5621079.35245  25193476.4104   25193482.2934
     -3858.2034
 01  8 19 18  8 30.0040000  0  9G 3G31G14G15G17G18G21G29G 9
  13797559.09246  10756358.87646  24053563.7384   24053570.7854
     -4255.3754
   4190388.51546   1699459.68646  24107384.0274   24107390.7074
     -2623.9694
  -1783613.55347  -1326463.89347  21688481.0744   21688485.5624
     -1545.5624
  19858392.74246  15472031.42946  23899136.9494   23899143.5004
     -5009.5314
  23483409.86144  18230645.78045  25281140.6134   25281150.8714
     -5459.5784
  19239842.11246   9338989.95945  24177445.5044   24177452.1484
     -4161.7194
   7625026.08747   5944169.11946  22480746.1844   22480752.1024
     -2182.3914
  -5396244.61047  -4039607.36446  22210570.2464   22210576.0004
      -528.2194
   7456653.59443   5711495.00945  25215556.4654   25215564.9884
     -3877.3754
 01  8 19 18  9  0.0040000  0  9G 3G31G14G15G17G18G21G29G 9
  13925410.26946  10855983.06846  24077892.4964   24077899.2934
     -4268.0784
   4269401.36246   1761028.11246  24122419.4494   24122425.6484
     -2643.6094
  -1736967.51647  -1290116.32747  21697357.4734   21697361.9614
     -1564.2344
  20008856.89846  15589276.07846  23927769.6604   23927776.6484
     -5021.4534
  23647334.43743  18358378.95445  25312333.5354   25312350.6844
     -5468.7504
  19364768.82246   9436335.37845  24201219.2774   24201224.4694
     -4166.7974
   7690600.66247   5995266.17446  22493224.9494   22493231.0194
     -2189.3124
  -5380158.01947  -4027072.32146  22213631.2074   22213637.0784
      -544.2974
   7573263.83443   5802360.13745  25237746.5594   25237757.4614
     -3896.6874
 01  8 19 18  9 30.0040000  0  9G 3G31G14G15G17G18G21G29G 9
  14053635.87646  10955899.03046  24102293.1054   24102300.4924
     -4280.3284
   4348997.31846   1823050.89346  24137566.6604   24137572.6484
     -2662.8444
  -1689766.90647  -1253336.62547  21706339.1994   21706343.8054
     -1582.5314
  20159673.51446  15706795.38946  23956469.0124   23956475.6214
     -5033.0164
  23811527.26443  18486321.09145  25343579.0044   25343592.1094
     -5477.5004
  19489843.53546   9533796.13745  24225020.5434   24225026.6024
     -4171.5474
   7756378.07047   6046521.29946  22505741.8944   22505747.9184
     -2195.9224
  -5363593.97647  -4014165.23946  22216783.4104   22216789.3984
      -560.0314
   7690447.43645   5893671.99445  25260046.5194   25260055.7464
     -3915.5944
 01  8 19 18 10  0.0040000  0  9G 3G31G14G15G17G18G21G29G 9
  14182231.90746  11056103.63346  24126764.5354   24126772.4024
     -4292.7194
   4429174.00646   1885526.18346  24152823.3164   24152829.2694
     -2682.2664
  -1642013.44747  -1216126.13247  21715426.6604   21715431.1484
     -1601.0314
  20310839.94046  15824587.29446  23985234.9964   23985241.8674
     -5044.7344
  23975985.60244  18614470.15545  25374875.9804   25374887.5274
     -5486.4064
  19615064.71146   9631371.00745  24248848.8014   24248853.0194
     -4176.5164
   7822357.76647   6097934.03846  22518297.4414   22518303.3714
     -2202.7344
  -5346553.35047  -4000886.79147  22220026.0744   22220031.9454
      -576.0164
   7808201.24544   5985428.18545  25282454.4184   25282463.7974
     -3934.6724
 01  8 19 18 10 30.0040000  0  9G 3G31G14G15G17G18G21G29G 9
  14311198.70746  11156597.14746  24151305.7544   24151312.6134
     -4304.9224
   4509932.95946   1948455.20746  24168191.1764   24168197.7384
     -2701.5314
  -1593705.06447  -1178483.23147  21724619.4734   21724623.7504
     -1619.3914
  20462357.66346  15942652.92346  24014068.0904   24014075.3124
     -5056.2974
  24140710.68144  18742827.08745  25406221.3874   25406232.0314
     -5495.1414
  19740435.38446   9729062.40245  24272706.7304   24272712.2734
     -4181.3754
   7888542.50547   6149506.56246  22530891.8634   22530897.8754
     -2209.4534
  -5329033.20447  -3987234.69446  22223360.0824   22223365.9184
      -591.8754
   7926526.65044   6077629.79845  25304970.4654   25304979.8094
     -3953.5624
 01  8 19 18 11  0.0040000  0  9G 3G31G14G15G17G18G21G29G 9
  14440528.13746  11257373.23546  24175917.4344   24175924.4804
     -4316.9064
   4591267.38646   2011832.63646  24183668.2774   24183674.5944
     -2720.6564
  -1544847.63847  -1140412.50647  21733916.6994   21733921.1054
     -1637.6564
  20614219.93446  16060987.01846  24042965.7234   24042973.2504
     -5067.7504
  24305695.48243  18871386.33845  25437617.3324   25437625.1294
     -5503.7504
  19865949.87345   9826865.84145  24296588.5824   24296595.2154
     -4186.1414
   7954927.40647   6201235.05046  22543524.6054   22543530.6524
     -2216.1094
  -5311038.63747  -3973212.91847  22226784.1994   22226790.1414
      -607.6564
   8045416.49544   6170271.18645  25327595.0744   25327602.3674
     -3972.2974
 01  8 19 18 11 30.0040000  0  9G 3G31G14G15G17G18G21G29G 9
  14570218.33446  11358430.45046  24200595.1844   24200602.5704
     -4328.9374
   4673177.29546   2075658.50646  24199256.3874   24199263.3524
     -2739.8444
  -1495440.47947  -1101913.41547  21743318.4654   21743322.8244
     -1656.0004
  20766426.76046  16179589.61046  24071930.4964   24071937.3284
     -5079.2194
  24470939.64843  19000147.72045  25469063.1604   25469073.4414
     -5512.3594
  19991609.40946   9924782.29445  24320503.7234   24320509.2074
     -4191.0004
   8021514.02947   6253120.72546  22556195.5904   22556201.5314
     -2222.8594
  -5292568.24447  -3958820.37147  22230299.1914   22230305.0864
      -623.5474
   8164870.31144   6263352.09245  25350326.4574   25350335.8594
     -3991.1254
 01  8 19 18 12  0.0050000  0  9G 3G31G14G15G17G18G21G29G 9
  14700276.30046  11459774.21446  24225347.0014   24225353.7984
     -4340.9694
   4755669.51746   2139938.11846  24214953.3924   24214959.6614
     -2759.1254
  -1445476.93847  -1062980.78047  21752826.2354   21752830.7124
     -1674.4694
  20918987.38146  16298467.89246  24100961.9234   24100968.8294
     -5090.8284
  24636452.72143  19129118.63845  25500557.7984   25500568.3374
     -5521.1254
  20117423.71746  10022819.36045  24344444.1424   24344451.1424
     -4196.0164
   8088310.44047   6305169.87146  22568906.4784   22568912.6064
     -2229.7814
  -5273615.64247  -3944052.07747  22233905.3534   22233911.1534
      -639.5944
   8284896.08044   6356878.63945  25373166.9934   25373173.7904
     -4009.9844
 01  8 19 18 12 30.0050000  0  9G 3G31G14G15G17G18G21G29G 9
  14830687.92146  11561393.57046  24250161.3294   24250168.4354
     -4352.9374
   4838734.24546   2204663.84146  24230759.9234   24230765.7474
     -2778.3284
  -1394963.75047  -1023619.85047  21762438.7204   21762443.1854
     -1692.8754
  21071887.54146  16417610.72646  24130057.5484   24130064.7824
     -5102.3444
  24802219.19743  19258286.98845  25532103.5244   25532113.3024
     -5529.7504
  20243381.48146  10120968.17445  24368412.9704   24368418.4544
     -4200.9844
   8155310.15347   6357377.43146  22581656.1104   22581662.0284
     -2236.6874
  -5254184.70347  -3928911.05147  22237603.1654   22237609.1884
      -655.6254
   8405480.83443   6450840.77445  25396111.9544   25396120.7944
     -4028.7974
 01  8 19 18 13  0.0050000  0  9G 3G31G14G15G25G18G21G29G 9
  14961456.15846  11663290.79746  24275047.8924   24275054.8564
     -4364.9374
   4922374.11346   2269837.71045  24246676.6424   24246682.8884
     -2797.6724
  -1343898.66947   -983828.87147  21772156.0324   21772160.3924
     -1711.4694
  21225132.17046  16537021.99646  24159219.5014   24159226.7004
     -5113.9844
    -14360.66055                  25776814.5324
      1305.2504
  20369488.34546  10219233.22545  24392410.3844   24392416.5604
     -4206.1414
   8222516.75747   6409746.20546  22594445.3374   22594451.3254
     -2243.7664
  -5234273.22847  -3913395.58347  22241392.2824   22241398.1654
      -671.8444
   8526628.31044   6545241.36745  25419166.8534   25419175.9504
     -4047.6874
 01  8 19 18 13 30.0050000  0  9G 3G31G14G15G25G18G21G29G 9
  15092576.31246  11765462.25346  24299996.4384   24300003.6734
     -4376.2664
   5006585.85746   2335457.22046  24262701.6494   24262707.6144
     -2816.3284
  -1292284.28547   -943609.86347  21781977.9854   21781982.3214
     -1729.3914
  21378717.84546  16656699.00346  24188445.2434   24188452.1494
     -5124.9694
    -53501.27045                  25769366.2354
      1304.2344
  20495742.47046  10317612.96845  24416436.7824   24416443.4854
     -4210.6874
   8289929.14147   6462275.32446  22607273.1034   22607279.0204
     -2250.2664
  -5213882.89247  -3897506.97747  22245271.9784   22245277.8844
      -687.4064
   8648334.85843   6640077.68845  25442325.5174   25442333.7244
     -4065.9374
 01  8 19 18 14  0.0050000  0  9G 3G31G14G15G25G18G21G29G 9
  15224045.25046  11867905.49946  24325015.6574   24325022.2314
     -4388.0004
   5091367.97546   2401521.18046  24278835.3534   24278841.4934
     -2835.4694
  -1240121.06847   -902963.19447  21791904.1344   21791908.6224
     -1747.8284
  21532643.13946  16776640.65546  24217738.9384   24217746.6304
     -5136.3754
    -92598.42945    -12181.34355  25761926.2904   25761939.7704
      1302.5784
  20622143.69846  10416107.36945  24440489.0564   24440494.7514
     -4215.7344
   8357547.33847   6514964.81946  22620140.5954   22620146.5604
     -2257.2814
  -5193013.79647  -3881245.31247  22249243.4544   22249249.2314
      -703.5314
   8770598.58144   6735348.09745  25465592.3294   25465600.6184
     -4084.6414
 01  8 19 18 14 30.0050000  0  9G 3G31G14G15G25G18G21G29G 9
  15355862.12046  11970619.83846  24350099.0954   24350105.5284
     -4399.6724
   5176720.78646   2468029.83646  24295077.3214   24295083.2634
     -2854.5784
  -1187408.00847   -861888.08147  21801935.2124   21801939.5714
     -1766.2504
  21686908.47846  16896847.25646  24247092.2284   24247099.9664
     -5147.8284
   -131647.31545    -42608.66745  25754494.6654   25754506.5284
      1300.8134
  20748693.78746  10514717.76245  24464572.9314   24464577.8884
     -4220.7974
   8425373.83547   6567816.62546  22633047.6344   22633053.4934
     -2264.3594
  -5171663.84848  -3864608.96047  22253306.4074   22253312.3024
      -719.6724
   8893419.46744   6831052.68045  25488964.7744   25488974.7744
     -4103.2974
 01  8 19 18 15  0.0050000  0  9G 3G31G14G15G25G18G21G29G 9
  15488024.06946  12073603.07046  24375249.5094   24375256.1884
     -4411.0784
   5262642.61546   2534981.85046  24311427.6184   24311433.5604
     -2873.4844
  -1134145.93247   -820385.15847  21812070.6344   21812074.8764
     -1784.5164
  21841512.30346  17017317.64145  24276513.4464   24276521.0564
     -5159.0474
   -170645.87545    -72996.73945  25747074.2204   25747082.4274
      1299.1094
  20875392.20146  10613443.74146  24488682.6264   24488688.4624
     -4225.7034
   8493408.79247   6620830.86646  22645994.4704   22646000.4354
     -2271.2664
  -5149833.30748  -3847598.12047  22257460.4464   22257466.1654
      -735.6564
   9016795.49143   6927189.90145  25512440.7904   25512450.6144
     -4121.7194
 01  8 19 18 15 30.0050000  0  9G 3G31G14G15G25G18G21G29G 9
  15620524.86346  12176850.33846  24400464.7044   24400471.6104
     -4422.3124
   5349128.46146   2602373.38046  24327886.0714   24327892.3064
     -2892.2814
  -1080339.06247   -778457.72447  21822309.6344   21822313.9464
     -1802.6564
  21996449.83446  17138048.03246  24305998.0174   24306005.5564
     -5170.1564
   -209594.17045   -103345.68845  25739661.9234   25739672.3214
      1297.3754
  21002235.91846  10712282.93945  24512819.6574   24512826.0204
     -4230.5624
   8561649.26647   6674005.24746  22658980.2044   22658986.2394
     -2278.1414
  -5127525.06948  -3830215.04547  22261705.6034   22261711.4384
      -751.6254
   9140721.55743   7023755.63645  25536024.4624   25536031.5794
     -4140.0314
 01  8 19 18 16  0.0050000  0  9G 3G31G14G15G25G18G21G29G 9
  15753362.62446  12280360.18646  24425742.3214   24425749.0484
     -4433.5164
   5436177.97646   2670204.12346  24344450.7824   24344457.0874
     -2911.0314
  -1025986.72547   -736105.24347  21832652.5874   21832656.9234
     -1820.8444
  22151720.67946  17259038.17145  24335543.0564   24335550.3134
     -5181.2664
   -248488.78645   -133652.81445  25732258.7204   25732269.3994
      1295.5634
  21129226.28346  10811236.41345  24536985.5404   24536991.3294
     -4235.4534
   8630097.25447   6727341.32846  22672005.0324   22672011.0914
     -2285.0624
  -5104737.91748  -3812458.79347  22266041.9704   22266047.6884
      -767.5624
   9265196.85944   7120749.36045  25559712.1884   25559720.9354
     -4158.3124
 01  8 19 18 16 30.0050000  0  9G 3G31G14G15G25G18G21G29G 9
  15886532.77846  12384129.03746  24451082.4784   24451089.1924
     -4444.4534
   5523787.85046   2738471.51646  24361122.6034   24361128.9784
     -2929.5944
   -971091.41447   -693329.67047  21843099.0634   21843103.3414
     -1838.8284
  22307321.67846  17380285.52845  24365154.7674   24365162.1534
     -5192.1254
   -287328.61345   -163917.27745  25724867.8994   25724879.1774
      1293.7814
  21256361.25245  10910302.54045  24561177.0324   24561183.2434
     -4240.2034
   8698751.47247   6780838.11246  22685069.6424   22685075.6184
     -2291.8444
  -5081473.70148  -3794330.80447  22270468.7124   22270474.4664
      -783.3594
   9390217.70744   7218168.20745  25583502.6104   25583513.6884
     -4176.3754
 01  8 19 18 17  0.0050000  0  9G 3G31G14G15G25G18G21G29G 9
  16020031.56646  12488153.95145  24476487.8214   24476494.5954
     -4455.4374
   5611955.14146   2807173.25046  24377899.6964   24377905.7784
     -2948.2344
   -915655.38747   -650132.75447  21853648.3844   21853652.6494
     -1856.9224
  22463250.05146  17501788.01045  24394826.9854   24394834.0324
     -5203.1094
   -326112.34545   -194137.99945  25717487.2744   25717496.9584
      1291.7814
  21383639.73045  11009480.53145  24585397.7204   24585404.4464
     -4245.0474
   8767610.67947   6834494.63046  22698172.9704   22698178.8534
     -2298.7664
  -5057733.70448  -3775832.07647  22274986.4624   22274992.1344
      -799.2974
   9515781.01445   7316009.74245  25607395.9464   25607401.8174
     -4194.5004
 01  8 19 18 17 30.0050000  0  9G 3G31G14G15G25G18G21G29G 9
  16153862.72246  12592437.86346  24501955.1654   24501962.9854
     -4466.4374
   5700685.17846   2876313.48946  24394785.4314   24394791.3134
     -2966.9374
   -859672.24047   -606509.51447  21864301.6034   21864305.8564
     -1875.1254
  22619511.43846  17623549.97845  24424561.8604   24424569.4584
     -5214.1564
   -364830.35645   -224307.49545  25710120.1264   25710127.8644
      1289.5634
  21511068.56746  11108775.62845  24609646.5404   24609652.6224
     -4250.0314
   8836682.31047   6888316.67546  22711316.9784   22711323.0014
     -2305.8444
  -5033510.82848  -3756957.07647  22279595.8454   22279601.4814
      -815.3914
   9641891.72744   7414277.86745  25631393.8534   25631403.6064
     -4212.6724
 01  8 19 18 18  0.0050000  0  9G 3G31G14G15G25G18G21G29G 9
  16288017.18446  12696973.69646  24527483.9154   24527490.9384
     -4477.1094
   5789970.00646   2945886.03846  24411774.9464   24411781.9354
     -2985.3124
   -803149.17047   -562465.55347  21875057.3764   21875061.6184
     -1893.0164
  22776097.82146  17745565.17145  24454359.4544   24454366.4664
     -5224.8754
   -403486.33745   -254428.74345  25702764.5174   25702774.0484
      1287.5314
  21638641.41245  11208182.97545  24633923.6654   24633929.4074
     -4254.7664
   8905960.75647   6942299.87546  22724500.2904   22724506.3024
     -2312.6724
  -5008811.30248  -3737710.66447  22284295.9074   22284301.5324
      -831.1874
   9768541.61945   7512966.06645  25655494.4854   25655502.2124
     -4230.5474
 01  8 19 18 18 30.0050000  0  9G 3G31G14G15G25G18G21G29G 9
  16422492.76546  12801759.74046  24553073.5564   24553081.6574
     -4487.9534
   5879808.46046   3015889.98546  24428870.1264   24428877.4194
     -3003.9224
   -746086.68847   -518001.27147  21885915.9154   21885920.1924
     -1911.1724
  22933008.29146  17867832.93845  24484218.7904   24484226.6454
     -5235.8594
   -442077.25345   -284499.25645  25695419.9464   25695430.3924
      1285.1094
  21766358.76845  11307702.93545  24658226.5794   24658231.5484
     -4259.7664
   8975446.99147   6996444.99446  22737723.3534   22737729.3174
     -2319.7814
  -4983634.70648  -3718092.50247  22289086.8684   22289092.5874
      -847.2814
   9895728.94045   7612073.16345  25679697.8294   25679705.7084
     -4248.6254
 01  8 19 18 19  0.0050000  0  9G 3G31G14G15G25G18G21G29G 9
  16557290.16746  12906796.58445  24578724.1734   24578730.7594
     -4498.3754
   5970202.49346   3086326.84946  24446072.6264   24446079.2004
     -3022.1874
   -688481.86647   -473114.38247  21896877.3294   21896881.6184
     -1929.0004
  23090245.25546  17990355.08345  24514138.7594   24514145.7244
     -5246.4844
   -480596.64845   -314514.09345  25688089.6574   25688099.2354
      1282.9534
  21894224.36846  11407338.37645  24682560.5244   24682565.7984
     -4264.4694
   9045144.99847   7050755.12846  22750986.3534   22750992.2704
     -2326.6094
  -4957977.45848  -3698099.81347  22293969.1424   22293974.8604
      -863.0784
  10023455.70744   7711600.23943  25704002.9074   25704018.6384
     -4266.3284
 01  8 19 18 19 30.0050000  0  9G 3G31G14G15G25G18G21G29G 9
  16692396.23646  13012073.91346  24604434.2124   24604442.0204
     -4508.6564
   6061140.50446   3157187.59046  24463377.0324   24463383.4784
     -3040.3284
   -630345.55247   -427813.34247  21907940.6494   21907945.0324
     -1946.7344
  23247796.87746  18113122.42545  24544122.9464   24544131.0604
     -5256.9374
   -519051.89644   -344478.96645  25680769.0014   25680779.3534
      1280.7664
  22022228.11846  11507081.47145  24706918.9154   24706924.3294
     -4269.0784
   9115045.24147   7105222.84746  22764287.9544   22764293.9544
     -2333.3914
  -4931849.39948  -3677740.25147  22298941.3764   22298947.0134
      -878.7814
  10151709.73845                  25728409.0564
     -4283.9224
 01  8 19 18 20  0.0050000  0  9G 3G31G14G15G25G18G21G29G 9
  16827815.88646  13117595.60845  24630204.6734   24630211.9314
     -4519.0314
   6152628.63246   3228476.98046  24480786.9704   24480792.9814
     -3058.6094
   -571670.99947   -382092.88947  21919106.3924   21919110.6224
     -1964.6414
  23405669.41446  18236139.83945  24574163.0324   24574170.5244
     -5267.6094
   -557432.32445   -374385.51645  25673469.2984   25673477.9854
      1278.2194
  22150377.58046  11606938.11945  24731302.9074   24731308.3334
     -4273.9374
   9185156.20647   7159854.76146  22777629.5094   22777635.4854
     -2340.4064
  -4905243.05748  -3657008.00947  22304004.0714   22304010.0134
      -894.7034
  10280496.84844                  25752916.0094
     -4301.6094
 01  8 19 18 20 30.0050000  0  9G 3G31G14G15G25G18G21G29G 9
  16963543.72246  13223357.43545  24656032.3604   24656039.8064
     -4529.4844
   6244662.09546   3300191.30946  24498299.8924   24498306.4894
     -3077.0004
   -512461.81547   -335955.85447  21930373.5174   21930377.8534
     -1982.6724
  23563858.23846  18359403.69545  24604265.1654   24604273.6424
     -5278.3754
   -595738.41545   -404234.16745  25666177.0014   25666188.4424
      1275.4694
  22278670.09945  11706906.26745  24755717.1104   24755722.9814
     -4278.9374
   9255475.53047   7214649.03546  22791010.8294   22791016.7704
     -2347.5784
  -4878161.26848  -3635905.28847  22309157.7434   22309163.4034
      -910.7974
  10409812.04345     94056.30955  25777524.2434   25777530.3024
     -4319.4374
 01  8 19 18 21  0.0050000  0  9G 3G31G14G15G25G18G21G29G 9
  17099580.74346  13329360.20645  24681920.1264   24681928.4974
     -4539.5314
   6337243.16546   3372332.35146  24515917.6264   24515924.7314
     -3094.9844
   -452714.92147   -289399.81847  21941742.9854   21941747.2744
     -2000.3754
  23722366.24146  18482916.26545  24634429.1424   24634436.1534
     -5288.7504
   -633963.45745   -434019.70045  25658903.3064   25658913.4704
      1272.9694
  22407109.76145  11806989.03645  24780158.2674   24780164.1614
     -4283.6254
   9326007.57247   7269609.06346  22804432.6424   22804438.7124
     -2354.4694
  -4850599.92948  -3614428.89047  22314402.4384   22314408.1574
      -926.5624
  10539657.34644    195234.48045  25802233.2674   25802242.0954
     -4336.8444
 01  8 19 18 21 30.0050000  0  9G 3G31G14G15G25G18G21G29G 9
  17235918.18346  13435597.04545  24707863.6184   24707872.3884
     -4549.7194
   6430364.17146   3444894.11746  24533638.6494   24533644.8844
     -3113.1874
   -392436.85047   -242429.87847  21953213.5714   21953217.9074
     -2018.2814
  23881186.10146  18606671.85445  24664651.5324   24664659.4354
     -5299.3444
   -672110.29545   -463744.27745  25651644.0714   25651653.0634
      1270.0784
  22535691.05245  11907182.17245  24804625.3764   24804631.4584
     -4288.5624
   9396747.34347   7324730.95246  22817893.9154   22817899.8334
     -2361.6414
  -4822564.86948  -3592583.35447  22319737.2744   22319743.0174
      -942.5474
  10670025.06943    296819.70345  25827039.9074   25827046.9194
     -4354.4374
 01  8 19 18 22  0.0050000  0  9G 3G31G14G15G25G18G21G29G 9
  17372562.60146  13542073.09845  24733867.1344   24733875.7864
     -4559.9374
   6524032.64546   3517882.49046  24551462.5244   24551469.2394
     -3131.4374
   -331619.27747   -195039.54647  21964786.6184   21964790.8724
     -2036.2814
  24040325.46246  18730676.36745  24694935.0324   24694943.2164
     -5310.0164
   -710166.94845   -493398.56545  25644404.3214   25644414.6144
      1266.9534
  22664422.93445  12007492.62545  24829124.1814   24829131.2634
     -4293.6254
   9467705.00247   7380022.62146  22831397.0324   22831402.9154
     -2368.9374
  -4794046.87048  -3570361.50647  22325164.0094   22325169.7984
      -958.6874
  10800922.13644    398817.37145  25851949.4934   25851956.7634
     -4372.0944
 01  8 19 18 22 30.0050000  0  9G 3G31G14G15G25G18G21G29G 9
  17509504.65746  13648781.07745  24759925.4074   24759933.3804
     -4569.6564
   6618240.71246   3591291.31445  24569389.8924   24569395.8684
     -3149.2194
   -270269.36647   -147234.40847  21976460.8454   21976465.1104
     -2053.8444
  24199776.51646  18854923.78945  24725278.7674   24725286.3294
     -5320.1874
   -748136.78545   -522985.21545  25637175.6814   25637184.7434
      1264.2034
  22793299.40445  12107915.78045  24853648.3134   24853654.9354
     -4298.2814
   9538874.31647   7435479.21746  22844940.0404   22844945.9934
     -2375.8284
  -4765052.46848  -3547768.43347  22330681.2824   22330687.2474
      -974.4064
  10932340.41143    501221.17045  25876957.7824   25876965.3334
     -4389.2664
 01  8 19 18 23  0.0050000  0  9G 3G31G14G15G25G18G21G29G 9
  17646739.35145  13755717.08845  24786039.7904   24786047.3294
     -4579.3914
   6712984.12546   3665117.30246  24587418.9154   24587425.2904
     -3167.0624
   -208390.34147    -99016.96847  21988236.0014   21988240.2084
     -2071.4844
  24359535.41846  18979411.07845  24755681.2674   24755689.2634
     -5330.4534
   -786019.38045   -552503.90545  25629968.5874   25629976.3844
      1261.2034
  22922318.21746  12208449.85445  24878199.6034   24878205.0874
     -4303.0474
   9610253.33747   7491099.22546  22858522.6814   22858528.5994
     -2382.8594
  -4735583.80048  -3524805.79947  22336288.9074   22336294.7084
      -990.2344
  11064275.60945    604027.82945  25902064.6654   25902074.1384
     -4406.4844
 01  8 19 18 23 30.0050000  0  9G 3G31G14G15G25G18G21G29G 9
  17784265.95246  13862880.56145  24812210.4624   24812218.8454
     -4588.9374
   6808263.30146   3739360.75446  24605550.1654   24605556.6574
     -3184.7814
   -145980.99847    -50386.29447  22000111.6884   22000115.9074
     -2089.0474
  24519602.94046  19104138.84445  24786138.3374   24786145.4314
     -5340.6094
   -823809.87145   -581950.83645  25622776.5404   25622785.6034
      1258.2034
  23051481.46946  12309096.45845  24902779.5404   24902784.9314
     -4307.7504
   9681845.52947   7546885.33346  22872146.3134   22872152.3254
     -2389.8594
  -4705639.01848  -3501472.16547  22341987.3064   22341993.1884
     -1006.0004
  11196727.56944    707237.11145  25927269.2354   25927277.5604
     -4423.5314
 01  8 19 18 24  0.0050000  0  9G 3G31G14G15G25G18G21G29G 9
  17922081.40345  13970269.11745  24838436.1654   24838443.4354
     -4598.4534
   6904076.21746   3814020.12646  24623782.9854   24623789.9744
     -3202.4534
    -83042.45147     -1343.25447  22012088.5404   22012092.8644
     -2106.5784
  24679977.51346  19229105.87045  24816656.9154   24816665.2744
     -5350.7504
   -861505.75645   -611324.05445  25615601.8604   25615609.9744
      1255.0944
  23180789.27145  12409855.68345  24927384.8604   24927390.8844
     -4312.5004
   9753651.09647   7602837.71846  22885810.4624   22885816.4974
     -2396.8914
  -4675218.21848  -3477767.61247  22347776.1884   22347782.0604
     -1021.7814
  11329694.15544    810847.35845  25952571.4544   25952576.8924
     -4440.5944
 01  8 19 18 24 30.0060000  0  9G 3G31G14G15G25G18G21G29G 9
  18060184.18845  14077881.55145  24864716.4044   24864723.4514
     -4608.1414
   7000420.78746   3889093.75146  24642117.1704   24642124.1354
     -3220.3594
    -19577.11847     48110.26847  22024165.8344   22024170.1824
     -2124.3754
  24840659.29046  19354312.25945  24847234.7794   24847243.4674
     -5361.0784
   -899109.00145   -640625.05745  25608447.3034   25608456.9514
      1251.5944
  23310242.49045  12510728.25145  24952020.1784   24952026.2714
     -4317.5004
   9825668.84547   7658955.43346  22899514.8264   22899520.7684
     -2404.2194
  -4644324.17348  -3453694.29247  22353655.0534   22353660.9594
     -1037.8444
  11463174.45744    914857.96145  25977972.0144   25977980.0574
     -4457.8594
 01  8 19 18 25  0.0060000  0  9G 3G31G14G15G25G18G21G29G 9
  18198572.60445  14185716.56245  24891050.5844   24891057.9594
     -4617.6094
   7097299.47546   3964583.56846  24660551.9434   24660558.3184
     -3238.0784
     44420.55447     97978.59647  22036344.4204   22036348.7324
     -2142.0164
  25001646.44146  19479756.61245  24877868.0844   24877876.3264
     -5371.2504
   -936603.50045   -669841.32445  25601311.6314   25601322.2874
      1248.1414
  23439843.20946  12611715.76945  24976681.9284   24976687.6934
     -4322.4064
   9897905.80247   7715243.96546  22913261.4514   22913267.3114
     -2411.4534
  -4612948.10148  -3429245.36447  22359625.6864   22359631.4984
     -1053.7814
  11597168.10444   1019268.53745  26003471.2644   26003481.2404
     -4474.9224
 01  8 19 18 25 30.0060000  0  9G 3G31G14G15G25G18G21G29G 9
  18337240.49745  14293769.33645  24917438.2644   24917445.2994
     -4626.9374
   7194705.52646   4040484.33046  24679088.4594   24679095.3034
     -3255.6724
    108943.70847    148256.39247  22048622.5144   22048626.7094
     -2159.5474
  25162935.03246  19605435.85445  24908561.8734   24908570.1274
     -5381.3284
   -973995.70345   -698977.89645  25594198.6394   25594207.3734
      1244.6094
  23569587.85146  12712815.38445  25001372.4364   25001379.6114
     -4327.2504
   9970356.86247   7771699.32646  22927048.3184   22927054.3074
     -2418.6414
  -4581097.41447  -3404426.61147  22365686.6934   22365692.3774
     -1069.6414
  11731669.31044   1124074.62345  26029065.5214   26029073.2254
     -4491.8594
 01  8 19 18 26  0.0060000  0  9G 3G31G14G15G25G18G21G29G 9
  18476188.38945  14402040.29945  24943878.7954   24943886.3464
     -4636.3124
   7292640.71546   4116797.39546  24697723.8184   24697730.2994
     -3273.3914
    173994.65947    198945.45947  22061001.0454   22061005.3224
     -2177.2504
  25324526.76746  19731351.30245  24939311.9824   24939321.3964
     -5391.5004
  -1011279.61745   -728030.09245  25587101.7484   25587111.3614
      1240.8754
  23699479.80245  12814029.82245  25026088.8734   25026095.2364
     -4332.2814
  10043025.87847   7828324.52446  22940876.8964   22940882.8964
     -2426.0314
  -4548768.78548  -3379235.43447  22371838.6934   22371844.3074
     -1085.6724
  11866679.06743   1229277.00845  26054756.9984   26054765.2174
     -4508.8594
 01  8 19 18 26 30.0060000  0  9G 3G31G14G15G25G18G21G29G 9
  18615416.91445  14510529.91845  24970374.4434   24970381.6664
     -4645.3124
   7391106.31146   4193523.77046  24716461.3504   24716467.8654
     -3290.7194
    239576.11547    250047.91247  22073481.0214   22073485.3224
     -2194.5784
  25486423.77445  19857504.61345  24970119.6934   24970127.6314
     -5401.3594
  -1048448.97445   -756993.00945  25580027.2404   25580037.0184
      1237.3134
  23829522.92345  12915362.06445  25050834.7254   25050840.6314
     -4337.0164
  10115917.49647   7885123.17846  22954747.6934   22954753.8114
     -2433.1564
  -4515958.74548  -3353669.13047  22378082.2014   22378087.8964
     -1101.4224
  12002198.82843   1334876.75045  26080545.3504   26080554.2254
     -4525.5164
 01  8 19 18 27  0.0060000  0  9G 3G31G14G15G25G18G21G29G 9
  18754914.84345  14619229.47445  24996920.9434   24996928.8814
     -4654.5164
   7490091.79246   4270655.24146  24735297.6784   24735304.7604
     -3308.2974
    305678.49547    301556.27247  22086060.3504   22086064.7214
     -2212.2194
  25648615.94245  19983887.95145  25000983.4204   25000990.7954
     -5411.4374
  -1085509.03845   -785870.75945  25572975.5764   25572985.9634
      1233.3594
  23959708.72945  13016805.46445  25075608.3424   25075614.3184
     -4342.0314
  10189023.93947   7942089.23246  22968659.0144   22968664.9084
     -2440.5944
  -4482675.93348  -3327734.43447  22384415.6934   22384421.4944
     -1117.4374
  12138218.00243   1440865.65645  26106429.8344   26106440.3854
     -4542.4064
 01  8 19 18 27 30.0060000  0  9G 3G31G14G15G25G18G21G29G 9
  18894689.25245  14728144.47145  25023517.9514   25023526.8504
     -4663.7344
   7589605.60346   4348198.40545  24754235.1934   24754241.8034
     -3325.9064
    372310.97847    353477.70047  22098739.5294   22098743.8424
     -2229.8914
  25811111.81445  20110507.92745  25031905.6394   25031913.9394
     -5421.5784
  -1122447.23245   -814653.56745  25565947.6784   25565956.7994
      1229.2034
  24090047.51045  13118368.04145  25100411.5454   25100416.8074
     -4347.1564
  10262355.85747   7999230.98246  22982613.8424   22982619.8534
     -2448.1724
  -4448910.55048  -3301423.71147  22390840.9514   22390846.6234
     -1133.5314
  12274744.52743   1547249.94645  26132409.0374   26132422.4594
     -4559.3124
 01  8 19 18 28  0.0060000  0  9G 3G31G14G15G25G18G21G29G11
  19034735.85145  14837271.58645  25050167.1004   25050175.1544
     -4672.5004
   7689644.25946   4426150.53546  24773272.1394   24773278.6664
     -3343.1094
    439470.86347    405810.09747  22111519.4904   22111523.7684
     -2247.2034
  25973908.54346  20237362.30445  25062887.2404   25062895.7284
     -5431.3124
  -1159262.26245   -843340.41445  25558942.1704   25558952.0414
      1225.2974
  24220537.90345  13220048.75745  25125244.6394   25125250.4164
     -4351.9694
  10335912.16847   8056547.57946  22996611.4904   22996617.3504
     -2455.3914
  -4414664.26948  -3274738.26347  22397357.7644   22397363.5534
     -1149.3284
    -21651.88453                  26324741.7254
      1272.4534
 01  8 19 18 28 30.0060000  0  9G 3G31G14G15G25G18G21G29G11
  19175048.98845  14946606.37045  25076868.7484   25076876.6974
     -4681.4844
   7790202.93446   4504507.88346  24792406.7794   24792412.8384
     -3360.5784
    507154.21747    458550.38847  22124399.5844   22124403.8144
     -2264.7974
  26137001.68545  20364447.66245  25093921.7094   25093929.4004
     -5441.3284
  -1195953.99045   -871931.18345  25551958.2254   25551967.4864
      1220.9844
  24351177.04945  13321845.37145  25150102.1544   25150107.7684
     -4357.0784
  10409690.93547   8114037.52246  23010651.1394   23010657.1394
     -2462.9844
  -4379940.03947  -3247680.39047  22403965.6464   22403971.2834
     -1165.4064
    -59741.73743                  26317492.4674
      1267.0944
 01  8 19 18 29  0.0060000  0  9G 3G31G14G15G25G18G21G29G11
  19315622.84446  15056144.30545  25103620.7484   25103628.9674
     -4690.1094
   7891276.75446   4583266.63245  24811641.7484   24811648.7714
     -3377.6874
    575357.37547    511695.72047  22137377.9364   22137382.0964
     -2282.0944
  26300386.66046  20491760.46745  25125013.8114   25125022.0414
     -5451.0004
  -1232522.64945   -900426.03745  25544999.0844   25545006.8814
      1216.8754
  24481962.38645  13423755.96245  25174988.8344   25174994.8224
     -4361.9374
  10483690.01347   8171699.13046  23024732.6004   23024738.8114
     -2470.3124
  -4344740.94447  -3220252.49547  22410663.6394   22410669.2524
     -1181.2194
    -97677.60443    -17721.08355  26310274.2254   26310280.9864
      1261.9384
 01  8 19 18 29 30.0060000  0  9G 3G31G14G15G25G18G21G29G11
  19456458.25245  15165886.02545  25130419.8504   25130428.0104
     -4698.8754
   7992867.10346   4662427.90345  24830973.3504   24830979.8424
     -3394.9534
    644082.64447    565247.89147  22150456.1004   22150460.3774
     -2299.5624
  26464065.23445  20619302.00045  25156160.1314   25156170.1434
     -5460.8444
  -1268961.66345   -928819.92145  25538063.9824   25538072.5064
      1212.4384
  24612897.45945  13525783.22645  25199905.7094   25199911.4514
     -4367.0474
  10557913.16047   8229535.33746  23038856.7404   23038862.7644
     -2477.8754
  -4309063.80047  -3192452.09547  22417452.7794   22417458.7094
     -1197.2194
   -135453.72944    -47156.90145  26303086.0844   26303092.1664
      1256.5004
 01  8 19 18 30  0.0060000  0  9G 3G31G14G15G25G18G21G29G11
  19597555.92645  15275832.14145  25157269.7404   25157276.4434
     -4707.5624
   8094975.66546   4741992.92645  24850404.2484   24850410.1434
     -3412.2034
    713332.60647    619208.91447  22163633.8424   22163638.1784
     -2317.0314
  26628039.58345  20747073.99445  25187361.4754   25187370.3384
     -5470.7194
  -1305264.67045   -957107.80345  25531156.6314   25531165.3774
      1207.8134
  24743986.17945  13627930.14645  25224852.3574   25224859.7794
     -4372.1414
  10632364.97647   8287549.72446  23053024.4904   23053030.5024
     -2485.5164
  -4272905.17647  -3164276.50847  22424333.3814   22424339.1354
     -1213.2664
   -173063.96244    -76463.50945  26295928.6004   26295934.9864
      1250.9224
 01  8 19 18 30 30.0060000  0  9G 3G31G14G15G25G18G21G29G11
  19738909.30646  15385977.50245  25184169.1004   25184176.7684
     -4715.9224
   8197596.62546   4821957.24746  24869931.9434   24869939.1314
     -3429.1094
    783102.19647    673574.84347  22176910.5064   22176914.7714
     -2334.2194
  26792304.22145  20875072.19645  25218621.8504   25218630.0574
     -5480.2344
  -1341432.55145   -985290.41445  25524274.4594   25524282.6194
      1203.3914
  24875224.32846  13730193.53145  25249828.3264   25249836.3814
     -4377.0164
  10707042.32647   8345739.85346  23067234.9984   23067240.9164
     -2492.9224
  -4236269.20547  -3135728.96547  22431304.9984   22431310.6934
     -1229.0624
   -210509.80543   -105642.04245  26288802.1934   26288809.5804
      1245.5164
 01  8 19 18 31  0.0060000  0  9G 3G31G14G15G25G18G21G29G11
  19880515.73446  15496320.03545  25211115.9284   25211123.2094
     -4724.3124
   8300728.42046   4902319.62045  24889557.3894   24889564.1974
     -3446.1414
    853390.54447    728344.99447  22190285.9674   22190290.2564
     -2351.5004
  26956858.01545  21003295.70745  25249935.0844   25249942.6934
     -5489.8594
  -1377462.55045  -1013365.55445  25517418.3814   25517425.8264
      1198.7344
  25006612.88145  13832574.12745  25274828.2484   25274836.1154
     -4382.0474
  10781946.14347   8404106.44746  23081488.8504   23081494.8264
     -2500.5004
  -4199155.79647  -3106809.39147  22438367.3574   22438373.2524
     -1244.9694
   -247788.90643   -134690.60245  26281707.5214   26281716.7134
      1239.9064
 01  8 19 18 31 30.0060000  0  9G 3G31G14G15G25G18G21G29G11
  20022374.85946  15606859.47145  25238110.9124   25238118.9204
     -4732.7194
   8404371.48346   4983080.39045  24909280.9204   24909287.9434
     -3463.1564
    924199.30647    783520.66647  22203760.2954   22203764.4904
     -2368.8594
  27121701.91245  21131745.27645  25281304.1704   25281313.6544
     -5499.5004
  -1413349.05245  -1041328.91845  25510588.3894   25510596.8184
      1193.9064
  25138154.53945  13935073.99545  25299859.4984   25299864.7134
     -4387.1724
  10857079.78147   8462652.12246  23095786.1004   23095792.0414
     -2508.1724
  -4161562.77347  -3077516.09447  22445521.2014   22445526.7914
     -1260.9844
   -284896.01343   -163605.13345  26274647.4124   26274651.4554
      1234.1094
 01  8 19 18 32  0.0060000  0  9G 3G31G14G15G25G18G21G29G11
  20164485.35845  15717594.79045  25265153.5064   25265160.8464
     -4741.1724
   8508525.11846   5064239.01545  24929099.8344   24929107.1274
     -3480.2814
    995528.70147    839102.02747  22217334.1934   22217338.2834
     -2386.3124
  27286835.73445  21260420.76945  25312726.7324   25312736.3224
     -5509.3124
  -1449087.53445  -1069176.91945  25503787.6704   25503793.9754
      1188.7664
  25269850.95945  14037694.52745  25324920.8814   25324928.7014
     -4392.4844
  10932445.40747   8521378.57346  23110128.0684   23110133.9284
     -2516.0624
  -4123488.82247  -3047848.04647  22452766.3964   22452772.1154
     -1277.1564
   -321827.52043   -192382.81645  26267619.0214   26267624.5534
      1228.0944
 01  8 19 18 32 30.0060000  0  9G 3G31G14G15G25G18G21G29G11
  20306844.91246  15828524.15645  25292244.0614   25292251.5884
     -4749.5004
   8613187.80646   5145794.27045  24949016.7174   24949023.0454
     -3497.2974
   1067378.35747    895088.78347  22231006.3344   22231010.5414
     -2403.7194
  27452258.57845  21389321.47145  25344208.8654   25344216.8144
     -5518.9374
  -1484674.66245  -1096907.00045  25497013.8034   25497021.6114
      1183.6414
  25401702.71244  14140436.06445  25350009.0684   25350014.0024
     -4397.7344
  11008044.08947   8580286.62046  23124513.6864   23124519.4984
     -2523.9224
  -4084933.76747  -3017805.11347  22460103.0684   22460108.7994
     -1293.2664
   -358580.25643   -221021.19845  26260624.9514   26260633.1704
      1221.9844
 01  8 19 18 33  0.0060000  0  9G 3G31G14G15G25G18G21G29G11
  20449453.42945  15939647.55145  25319381.5844   25319389.4514
     -4757.7344
   8718360.24746   5227746.74346  24969030.3184   24969037.6934
     -3514.2194
   1139749.75347    951482.09747  22244778.4204   22244782.5684
     -2421.0624
  27617971.21645  21518448.02445  25375743.5614   25375754.2404
     -5528.5314
  -1520104.75945  -1124514.73745  25490272.1394   25490280.3224
      1178.3754
  25533712.72545  14243300.88245  25375133.9984   25375141.7954
     -4402.9694
  11083879.59547   8639379.21046  23138944.9514   23138950.8574
     -2531.8124
  -4045895.02147  -2987385.27347  22467531.9124   22467537.6544
     -1309.3284
   -395149.13643   -249516.30345  26253667.0614   26253673.6354
      1215.8594
 01  8 19 18 33 30.0060000  0  9G 3G31G14G15G25G18G21G29G11
  20592306.17145  16050961.24945  25346565.4904   25346573.5684
     -4765.8754
   8824038.40346   5310093.31145  24989140.1314   24989147.2484
     -3531.0944
   1212639.79247   1008279.54247  22258648.6544   22258652.8614
     -2438.3754
  27783970.37345  21647797.76245  25407331.1704   25407339.0844
     -5538.1564
  -1555377.00945  -1151999.49645  25483562.1934   25483570.2604
      1172.9844
  25665879.34045  14346287.76645  25400284.8504   25400292.1314
     -4408.2504
  11159950.48447   8698655.20646  23153420.9594   23153426.9824
     -2539.7194
  -4006374.94347  -2956590.37647  22475052.3034   22475057.8464
     -1325.4534
   -431533.64343   -277867.80545  26246742.3654   26246747.7324
      1209.6564
 01  8 19 18 34  0.0060000  0  9G 3G31G14G15G25G18G21G29G11
  20735402.32745  16162464.59145  25373795.8264   25373803.6114
     -4774.0624
   8930221.87846   5392833.60745  25009345.9364   25009352.4394
     -3548.0004
   1286049.12447   1065481.63047  22272618.2094   22272622.5454
     -2455.7814
  27950256.41345  21777371.09545  25438973.6544   25438984.0294
     -5547.7814
  -1590486.79345  -1179357.60345  25476879.3184   25476886.8934
      1167.4224
  25798204.61645  14449398.23645  25425464.9754   25425468.8184
     -4413.6414
  11236259.65647   8758116.88446  23167941.9514   23167947.7644
     -2547.7814
  -3966371.85047  -2925419.10347  22482664.5924   22482670.1704
     -1341.6414
   -467729.50843   -306072.34745  26239855.3034   26239861.9124
      1203.2034
 01  8 19 18 34 30.0060000  0  9G 3G31G14G15G25G18G21G29G11
  20878739.98645  16274156.12945  25401071.8344   25401078.7874
     -4781.9064
   9036909.90946   5475967.07145  25029648.6004   25029655.3964
     -3564.6564
   1359977.89147   1123088.47247  22286686.3424   22286690.6544
     -2472.9224
  28116828.43045  21907167.24145  25470672.1004   25470680.9514
     -5557.1254
  -1625430.13645  -1206586.05245  25470230.1074   25470239.1464
      1161.9694
  25930689.71445  14552633.25645  25450676.0534   25450682.6864
     -4418.8444
  11312809.06547   8817765.75846  23182508.6544   23182514.7014
     -2555.6414
  -3925885.12247  -2893870.97147  22490368.9824   22490374.4904
     -1357.6094
   -503733.43544   -334127.18845  26233005.1464   26233012.3814
      1196.8914
 01  8 19 18 35  0.0060000  0  9G 3G31G14G15G25G18G21G29G11
  21022317.18145  16386034.36745  25428392.6464   25428399.9284
     -4789.9064
   9144101.39746   5559492.83945  25050046.3184   25050053.2134
     -3581.4534
   1434425.65247   1181099.73547  22300853.2564   22300857.6744
     -2490.2664
  28283685.86245  22037185.78545  25502424.8344   25502435.1034
     -5566.6874
  -1660202.91345  -1233681.60345  25463612.3114   25463619.2054
      1156.2034
  26063335.94546  14655993.94945  25475918.2564   25475925.3264
     -4424.2664
  11389600.12147   8877602.92846  23197121.6314   23197127.7134
     -2563.7664
  -3884914.15247  -2861945.50347  22498165.4824   22498171.1784
     -1373.7974
   -539542.01643   -362029.89745  26226188.1934   26226194.8614
      1190.3134
 01  8 19 18 35 30.0060000  0  9G 3G31G14G15G25G18G21G29G11
  21166137.63145  16498102.07445  25455763.1074   25455771.3144
     -4798.0164
   9251800.68146   5643414.27145  25070541.0614   25070547.7874
     -3598.3914
   1509397.68747   1239519.51547  22315119.8264   22315124.2094
     -2507.7814
  28450833.84845  22167430.72045  25534233.5374   25534242.2834
     -5576.3754
  -1694795.94245  -1260637.11645  25457029.4434   25457037.1114
      1150.0944
  26196149.87545  14759485.17045  25501191.0454   25501196.5294
     -4429.9224
  11466639.92347   8937633.92246  23211781.5454   23211787.5574
     -2572.1414
  -3843452.70647  -2829637.85347  22506055.1154   22506060.7994
     -1390.2034
   -575146.11843   -389773.25045  26219410.6784   26219417.8304
      1183.4224
 01  8 19 18 36  0.0060000  0  9G 3G31G14G15G25G18G21G29G11
  21310203.15645  16610360.80945  25483176.6934   25483184.3504
     -4806.1414
   9360009.91545   5727733.09045  25091131.9124   25091139.8734
     -3615.3594
   1584897.46547   1298350.53547  22329486.7874   22329491.0764
     -2525.3444
  28618275.38645  22297904.41845  25566094.0684   25566104.8424
     -5586.1874
  -1729201.49545  -1287446.50045  25450482.5214   25450489.7564
      1143.7814
  26329136.46445  14863110.94145  25526498.5924   25526505.0724
     -4435.6564
  11543934.13347   8997863.16746  23226490.3504   23226496.3614
     -2580.6254
  -3801496.71847  -2796944.84447  22514039.2094   22514044.9044
     -1406.6874
   -610538.66843   -417351.79145  26212676.5064   26212685.8264
      1176.3284
 01  8 19 18 36 30.0060000  0  9G 3G31G14G15G25G18G21G29G11
  21454504.68345  16722803.38345  25510637.2714   25510645.1274
     -4813.8444
   9468720.57246   5812442.61245  25111819.7324   25111826.5924
     -3631.9224
   1660917.29147   1357586.77747  22343953.0684   22343957.2994
     -2542.5474
  28786002.24045  22428600.42245  25598013.8734   25598024.7524
     -5595.5164
  -1763423.27845  -1314112.69945  25443970.2174   25443977.6974
      1137.7344
  26462289.31645  14966866.30245  25551836.7644   25551844.1034
     -4441.0784
  11621477.33647   9058286.42746  23241246.1624   23241252.2214
     -2588.8124
  -3759052.82447  -2763871.64647  22522115.9124   22522121.6074
     -1422.8124
   -645723.86544   -444768.74245  26205982.1394   26205989.7254
      1169.4694
 01  8 19 18 37  0.0070000  0  9G 3G31G14G15G25G18G21G29G11
  21599044.22045  16835431.41145  25538142.7224   25538151.6204
     -4821.5624
   9577934.21146   5897544.08945  25132602.9724   25132609.0194
     -3648.5164
   1737458.78847   1417229.51747  22358518.1984   22358522.4524
     -2559.8284
  28954018.44645  22559521.92145  25629985.3784   25629997.0424
     -5604.9534
  -1797459.21545  -1340634.08845  25437492.1904   25437500.7494
      1131.4694
  26595613.28945  15070755.02545  25577205.6834   25577213.4334
     -4446.6724
  11699272.63347   9118906.12846  23256050.2844   23256056.2494
     -2597.1414
  -3716119.85347  -2730417.34747  22530285.9094   22530291.5694
     -1439.0624
   -680700.18644   -472022.85445  26199327.9724   26199334.3944
      1162.4064
 01  8 19 18 37 30.0070000  0  9G 3G31G14G15G25G18G21G29G11
  21743813.91345  16948238.80245  25565691.4484   25565699.3394
     -4829.6254
   9687646.13246   5983033.80545  25153480.4954   25153488.2224
     -3665.4694
   1814520.35447   1477277.51147  22373182.6364   22373186.8664
     -2577.5004
  29122316.14645  22690662.72245  25662011.4954   25662021.7654
     -5614.7504
  -1831299.64245  -1367003.14345  25431053.7614   25431061.8744
      1124.6884
  26729104.60545  15174774.16345  25602608.2694   25602615.8084
     -4452.6254
  11777320.76947   9179722.84546  23270902.3084   23270908.3314
     -2605.9534
  -3672696.28947  -2696580.77047  22538549.0894   22538554.6324
     -1455.7194
   -715457.95345   -499106.76845  26192715.0894   26192721.2654
      1154.8594
 01  8 19 18 38  0.0070000  0  9G 3G31G14G15G25G18G21G29G11
  21888819.02845  17061229.62045  25593284.0974   25593292.1754
     -4837.4694
   9797860.79246   6068915.28645  25174453.1904   25174460.1324
     -3682.2504
   1892106.42847   1537734.20347  22387946.5344   22387950.7764
     -2595.0004
  29290902.10346  22822028.18045  25694093.7844   25694104.4644
     -5624.3754
  -1864939.85645  -1393216.18245  25424652.7374   25424661.1444
      1117.8754
  26862770.88945  15278929.60545  25628045.5034   25628050.9294
     -4458.5474
  11855628.00147   9240741.45646  23285803.5194   23285809.4484
     -2614.6414
  -3628778.21047  -2662358.85947  22546906.4874   22546912.0774
     -1472.2504
   -749992.77245   -526016.94245  26186141.0034   26186147.7414
      1147.3594
 01  8 19 18 38 30.0070000  0  9G 3G31G14G15G25G18G21G29G11
  22034059.94145  17174404.21445  25620923.1444   25620930.8354
     -4845.3914
   9908579.43446   6155189.47145  25195523.2224   25195530.4214
     -3699.1254
   1970218.96747   1598601.13347  22402811.0584   22402815.4294
     -2612.6414
  29459777.91045  22953619.47345  25726229.3234   25726238.0224
     -5634.1254
  -1898373.30045  -1419268.10445  25418289.2374   25418296.2144
      1110.8594
  26996615.63245  15383224.06645  25653513.1044   25653520.0464
     -4464.6094
  11934198.52947   9301965.22946  23300755.5734   23300761.6204
     -2623.5314
  -3584362.62547  -2627749.27247  22555358.3394   22555363.9054
     -1488.9374
   -784299.06744   -552748.97845  26179610.8394   26179620.2064
      1139.5944
 01  8 19 18 39  0.0070000  0  9G 3G31G14G15G25G18G21G29G11
  22179533.73845  17287760.24345  25648606.1284   25648615.1794
     -4853.0624
  10019799.29046   6241854.22445  25216686.9484   25216693.6284
     -3715.7344
   2048856.42447   1659877.08547  22417775.1204   22417779.3864
     -2630.0784
  29628941.68145  23085435.13845  25758418.2764   25758428.5584
     -5643.6724
  -1931597.39645  -1445156.90945  25411966.0344   25411974.4054
      1103.8914
  27130638.78444  15487657.65445  25679017.2294   25679024.5464
     -4470.5164
  12013032.71947   9363394.45746  23315756.8544   23315763.3474
     -2632.2974
  -3539450.12847  -2592752.48847  22563904.8004   22563910.4834
     -1505.4534
   -818374.35745   -579301.01845  26173130.0894   26173139.7144
      1131.8754
 01  8 19 18 39 30.0070000  0  9G 3G31G14G15G25G18G21G29G11
  22325237.69045  17401295.63945  25676332.2064   25676341.2224
     -4860.6724
  10131518.46246   6328908.02545  25237947.0264   25237953.4604
     -3732.3284
   2128017.67147   1721561.18147  22432839.1044   22432843.4174
     -2647.4844
  29798392.26545  23217474.29145  25790663.6204   25790675.2964
     -5653.1874
  -1964608.91046  -1470880.03045  25405686.0194   25405694.0504
      1096.7194
  27264840.86745  15592230.55545  25704558.2924   25704565.0544
     -4476.4374
  12092131.56147   9425029.91546  23330808.6594   23330814.8234
     -2641.1254
  -3494041.13647  -2557368.82647  22572545.6444   22572551.2454
     -1521.9844
   -852216.03444   -605671.08845  26166688.1204   26166695.8234
      1124.0784
 01  8 19 18 40  0.0070000  0  9G 3G31G14G15G25G18G21G29G11
  22471173.40545  17515011.60245  25704103.0034   25704111.8784
     -4868.3124
  10243739.20745   6416352.70045  25259301.0894   25259308.8744
     -3748.9694
   2207705.88847   1783655.90747  22448003.1984   22448007.5114
     -2665.0004
  29968132.35145  23349739.06445  25822965.5654   25822977.3114
     -5662.7504
  -1997400.47146  -1496431.78745  25399445.6364   25399453.2804
      1089.4064
  27399226.50445  15696946.55845  25730130.7294   25730137.6834
     -4482.5164
  12171500.46047   9486875.78646  23345912.4794   23345918.2804
     -2650.0784
  -3448131.53547  -2521595.07147  22581281.9014   22581287.6084
     -1538.5944
   -885817.26545   -631853.73245  26160293.8234   26160302.8864
      1116.0474
 01  8 19 18 40 30.0070000  0  9G 3G31G14G15G25G18G21G29G11
  22617347.62745  17628913.43345  25731919.6284   25731929.1244
     -4876.4224
  10356468.57445   6504193.67045  25280752.4724   25280758.8944
     -3766.1094
   2287929.29747   1846167.66747  22463269.2614   22463273.5974
     -2683.0314
  30138169.58645  23482235.33945  25855319.6284   25855328.3744
     -5672.8914
  -2029960.09146  -1521802.77845  25393248.8154   25393256.8704
      1081.4224
  27533805.13345  15801812.88845  25755738.9564   25755744.0304
     -4489.1724
  12251149.70147   9548940.11246  23361069.0734   23361075.0034
     -2659.6724
  -3401712.50247  -2485424.36947  22590115.1364   22590120.8314
     -1555.8124
   -919166.08045   -657839.79045  26153948.4484   26153954.6014
      1107.3754
 01  8 19 18 41  0.0070000  0  9G 3G31G14G15G25G18G21G29G11
  22763753.05445  17742995.42145  25759779.7694   25759790.1204
     -4883.8284
  10469700.13945   6592425.98345  25302300.0734   25302306.6244
     -3782.5474
   2368682.45447   1909092.20547  22478635.9954   22478640.3544
     -2700.4064
  30308498.27145  23614958.74545  25887734.5654   25887745.3744
     -5682.2814
  -2062288.84746  -1546993.90545  25387098.7224   25387106.8004
      1073.9064
  27668572.99345  15906826.71545  25781383.8474   25781390.2804
     -4495.2344
  12331075.97947   9611220.31146  23376278.4334   23376284.3394
     -2668.6414
  -3354788.57847  -2448860.23447  22599044.4174   22599050.1944
     -1572.3754
   -952264.16245   -683630.39645  26147650.6594   26147658.4334
      1099.2504
 01  8 19 18 41 30.0070000  0  9G 3G31G14G15G25G18G21G29G11
  22910380.85645  17857250.65545  25787682.4404   25787691.9484
     -4891.2814
  10583425.23245   6681042.84345  25323941.1444   25323948.4724
     -3799.0624
   2449957.66047   1972423.54247  22494102.3394   22494106.6634
     -2717.8914
  30479110.29745  23747902.89045  25920202.5194   25920213.3514
     -5691.7974
  -2094390.22346  -1572007.82145  25380988.0974   25380996.4684
      1066.2194
  27803523.91145  16011983.16045  25807064.8084   25807069.9294
     -4501.4534
  12411273.24447   9673711.67146  23391539.3314   23391545.4254
     -2677.8124
  -3307366.57047  -2411907.99047  22608068.6124   22608074.4604
     -1589.0624
   -985115.30845   -709228.59245  26141397.6674   26141402.9174
      1090.8754
 01  8 19 18 42  0.0070000  0  9G 3G31G14G15G25G18G21G29G11
  23057232.53245  17971680.36645  25815627.3474   25815635.1204
     -4898.7344
  10697645.75145   6770045.75545  25345676.4334   25345684.0194
     -3815.5624
   2531757.88447   2036163.97647  22509668.3004   22509672.7654
     -2735.3914
  30650008.26845  23881069.89245  25952722.1674   25952731.3824
     -5701.3284
  -2126256.98546  -1596838.91745  25374923.6834   25374932.5464
      1058.3134
  27938662.43345  16117285.79345  25832779.6834   25832788.2294
     -4507.7194
  12491747.28647   9736418.70246  23406853.0424   23406858.9834
     -2687.0624
  -3259442.93947  -2374564.87047  22617188.0584   22617193.8824
     -1605.7814
  -1017712.75345   -734629.12245  26135195.5344   26135202.3944
      1082.3284
 01  8 19 18 42 30.0070000  0  9G 3G31G14G15G25G18G21G29G11
  23204302.27845  18086279.99245  25843613.6514   25843623.2064
     -4905.8754
  10812356.62245   6859430.75445  25367506.4094   25367514.6634
     -3831.7814
   2614078.92447   2100310.24247  22525333.5734   22525337.9334
     -2752.6414
  30821187.67245  24014456.15345  25985295.9174   25985306.3744
     -5710.6254
  -2157888.98946  -1621487.10546  25368904.8234   25368913.3704
      1050.5314
  28073986.04045  16222732.62545  25858532.4174   25858538.4174
     -4513.8284
  12572495.87447   9799339.66746  23422219.0974   23422225.0614
     -2696.1414
  -3211020.86547  -2336833.35447  22626402.5814   22626408.1014
     -1622.2974
  -1050056.64645   -759832.07745  26129040.7144   26129047.5344
      1073.9064
 01  8 19 18 43  0.0070000  0  9G 3G31G14G15G25G18G21G29G11
  23351586.71045  18201046.89645  25871641.7224   25871650.7144
     -4913.0314
  10927554.82445   6949195.50345  25389428.1754   25389434.9254
     -3848.0474
   2696918.70847   2164860.72047  22541097.3784   22541101.8904
     -2769.9694
  30992646.01145  24148059.79445  26017926.6834   26017936.6594
     -5719.9224
  -2189284.22946  -1645950.79145  25362931.1834   25362938.8624
      1042.5164
  28209494.39945  16328323.46645  25884318.7144   25884328.6444
     -4520.0314
  12653519.19147   9862474.70146  23437637.5974   23437643.6324
     -2705.3914
  -3162101.35947  -2298714.23147  22635711.4954   22635717.0854
     -1638.9534
  -1082145.02945   -784835.91945  26122932.9174   26122940.1044
      1065.3444
 01  8 19 18 43 30.0070000  0  9G 3G31G14G15G25G18G21G29G11
  23499085.70745  18315980.99845  25899709.0424   25899718.8784
     -4920.2194
  11043240.52346   7039340.12345  25411443.3234   25411450.9564
     -3864.2974
   2780278.51047   2229816.41247  22556960.1674   22556964.6084
     -2787.3594
  31164384.24045  24281881.51445  26050604.4334   26050615.1124
     -5729.3284
  -2220437.10946  -1670225.62646  25357002.1364   25357010.5074
      1034.3134
  28345190.00444  16434060.24445  25910140.1594   25910150.4644
     -4526.3444
  12734820.91947   9925826.68246  23453108.6984   23453114.7574
     -2714.7344
  -3112682.75847  -2260206.19747  22645115.6754   22645121.2184
     -1655.6254
  -1113973.14945   -809636.96345  26116877.1444   26116883.1204
      1056.5314
 01  8 19 18 44  0.0070000  0  9G 3G31G14G15G25G18G21G29G11
  23646794.86945  18431078.85045  25927817.5584   25927827.0074
     -4927.2034
  11159409.55345   7129861.36045  25433548.2454   25433554.8194
     -3880.4224
   2864155.42547   2295175.04247  22572921.4794   22572925.8514
     -2804.5944
  31336398.97045  24415918.66845  26083340.6594   26083350.3314
     -5738.5004
  -2251346.09546  -1694310.41145  25351120.2614   25351128.1864
      1026.1094
  28481071.40945  16539941.75945  25935997.5894   25936004.6244
     -4532.5944
  12816399.69947   9989394.54246  23468632.8784   23468638.9014
     -2724.0314
  -3062767.12547  -2221310.87547  22654614.1904   22654619.9334
     -1672.2344
  -1145540.02145   -834234.46245  26110871.8004   26110878.5264
      1047.7344
 01  8 19 18 44 30.0070000  0  9G 3G31G14G15G25G18G21G29G11
  23794710.71645  18546337.77145  25955965.1364   25955972.0424
     -4933.7814
  11276059.14145   7220757.05345  25455746.0504   25455753.0154
     -3896.1254
   2948547.40947   2360935.03247  22588980.5114   22588985.0344
     -2821.4844
  31508688.02344  24550169.62645  26116126.3704   26116135.2804
     -5747.3284
  -2282009.29146  -1718203.66045  25345285.2064   25345292.6984
      1018.1414
  28617138.53045  16645967.93045  25961891.1594   25961896.1044
     -4538.5164
  12898256.20647  10053178.81646  23484209.3704   23484215.3474
     -2733.0164
  -3012355.51547  -2182029.06947  22664207.1904   22664212.8974
     -1688.4694
  -1176843.47145   -858626.76345  26104915.9404   26104922.8234
      1039.1724
 01  8 19 18 45  0.0070000  0  9G 3G31G14G15G25G18G21G29G11
  23942825.58945  18661751.77645  25984150.6904   25984161.1014
     -4940.4534
  11393181.99745   7312021.50345  25478034.0264   25478041.0614
     -3911.9534
   3033448.56547   2427091.78047  22605136.8004   22605141.2064
     -2838.5164
  31681244.69743  24684629.07545  26148959.0344   26148968.4954
     -5756.3754
  -2312428.20846  -1741906.56545  25339496.3784   25339504.1634
      1009.8754
  28753386.83745  16752135.25845  25987819.1444   25987826.7884
     -4544.6414
  12980386.31747  10117176.28646  23499838.1834   23499844.2184
     -2742.2504
  -2961453.37647  -2142365.04147  22673893.5974   22673899.1634
     -1704.9374
  -1207885.83245   -882815.46245  26099007.1984   26099012.4014
      1030.3444
 01  8 19 18 45 30.0070000  0  9G 3G31G14G15G25G18G21G29G11
  24091137.30545  18777319.16345  26012373.5344   26012380.6044
     -4946.8914
  11510776.22445   7403653.29045  25500412.0424   25500420.2844
     -3927.5624
   3118857.56347   2493644.25047  22621389.4254   22621393.7724
     -2855.3284
  31854067.81444  24819296.16345  26181849.0114   26181860.4054
     -5765.1254
  -2342599.40946  -1765416.44845  25333754.3944   25333762.7064
      1001.6254
  28889816.87245  16858444.25045  26013781.0894   26013783.9834
     -4550.6254
  13062791.49347  10181388.08846  23515519.5974   23515525.5384
     -2751.3444
  -2910060.70347  -2102318.77847  22683673.1984   22683679.0114
     -1721.1724
  -1238664.10345   -906798.48345  26093150.0504   26093155.5814
      1021.5784
 01  8 19 18 46  0.0070000  0  9G 3G31G14G15G25G18G21G29G11
  24239645.44845  18893039.61245  26040633.9724   26040644.4054
     -4953.5784
  11628841.79645   7495652.33345  25522879.8394   25522887.2144
     -3943.4224
   3204775.45547   2560593.26447  22637739.4404   22637744.0114
     -2872.4694
  32027157.94845  24954171.26845  26214786.1754   26214797.4524
     -5774.1874
  -2372517.64546  -1788729.21245  25328063.0424   25328070.7104
       992.9224
  29026431.13245  16964896.81945  26039778.0194   26039785.7104
     -4556.9694
  13145474.86847  10245816.67946  23531253.4644   23531259.5344
     -2760.8444
  -2858175.86947  -2061889.01047  22693546.7614   22693552.4214
     -1737.7664
  -1269173.20445   -930571.74145  26087344.0894   26087350.1474
      1012.3594
 01  8 19 18 46 30.0070000  0  9G 3G31G14G15G25G18G21G29G11
  24388345.01345  19008909.21045  26068930.9874   26068939.8154
     -4959.7664
  11747374.31045   7588015.23545  25545435.2694   25545443.9094
     -3958.7664
   3291198.79047   2627936.12447  22654184.7694   22654189.2104
     -2889.1414
  32200511.77643  25089251.93545  26247772.1984   26247782.9484
     -5782.7974
  -2402182.36146  -1811844.41145  25322417.3084   25322424.0114
       984.6094
  29163227.95845  17071491.61945  26065808.6834   26065817.7334
     -4562.8754
  13228435.32847  10310461.17946  23547040.2144   23547046.2614
     -2769.9224
  -2805801.35747  -2021077.67747  22703513.1514   22703518.7534
     -1753.9374
  -1299412.89645   -954134.98845  26081590.0734   26081598.0224
      1003.5164
 01  8 19 18 47  0.0070000  0  9G 3G31G14G15G25G18G21G29G11
  24537221.85745  19124916.97345  26097260.8784   26097269.8114
     -4965.5624
  11866359.75145   7680731.04645  25568077.1834   25568085.2964
     -3973.7664
   3378114.99347   2695663.04247  22670724.5584   22670729.1864
     -2905.4844
  32374115.89144  25224527.53645  26280811.1444   26280819.7494
     -5791.0314
  -2431602.27546  -1834768.86645  25316817.5974   25316824.8434
       976.4844
  29300196.15345  17178220.06145  26091873.3784   26091881.9604
     -4568.5474
  13311662.28947  10375313.34046  23562877.6754   23562883.7334
     -2778.7664
  -2752949.51447  -1979894.40147  22713570.4334   22713576.1284
     -1769.7344
  -1329391.94045   -977495.21745  26075883.5894   26075890.5304
       994.8754
 01  8 19 18 47 30.0070000  0  9G 3G31G14G15G25G18G21G29G11
  24686271.57745  19241059.43345  26125624.5974   26125635.1474
     -4971.0314
  11985794.03945   7773796.62245  25590805.7144   25590812.3704
     -3988.4374
   3465520.82247   2763771.48347  22687357.2924   22687362.0504
     -2921.5164
  32547966.78145  25359995.44945  26313894.8784   26313906.7534
     -5798.9374
  -2460775.83646  -1857501.35945  25311267.3474   25311275.1324
       968.4384
  29437334.22044  17285080.67745  26117968.3084   26117974.1324
     -4573.9534
  13395154.72847  10440372.37546  23578766.0114   23578771.9874
     -2787.3444
  -2699622.54747  -1938340.89947  22723717.9564   22723723.6404
     -1785.3444
  -1359109.54245  -1000651.72745  26070227.3784   26070232.9334
       986.3594
 01  8 19 18 48  0.0070000  0  9G 3G31G14G15G25G18G21G29G11
  24835486.49545  19357330.58845  26154019.1364   26154026.9214
     -4976.3444
  12105669.89745   7867206.29645  25613618.2844   25613626.0934
     -4002.9694
   3553409.82047   2832256.42047  22704081.9404   22704086.5224
     -2937.4534
  32722057.68145  25495650.37745  26347023.3784   26347034.5734
     -5806.8284
  -2489704.94146  -1880043.36045  25305760.3544   25305767.3904
       960.4224
  29574637.76645  17392070.27245  26144097.3704   26144104.6404
     -4579.3284
  13478908.79447  10505635.26946  23594703.8704   23594709.8354
     -2795.9534
  -2645825.96347  -1896421.45747  22733955.3944   22733961.0194
     -1800.8284
  -1388567.64345  -1023605.98245  26064622.8624   26064629.8154
       977.7814
 01  8 19 18 48 30.0070000  0  9G 3G31G14G15G25G18G21G29G11
  24984851.82445  19473718.95745  26182441.8704   26182450.5694
     -4981.1724
  12225972.80445   7960948.71545  25636510.7924   25636518.4834
     -4017.0474
   3641768.55147   2901107.37647  22720896.1444   22720900.6204
     -2952.9694
  32896375.14145  25631481.86645  26380195.4334   26380207.8234
     -5814.2194
  -2518398.51246  -1902401.85245  25300301.7534   25300308.8584
       952.6254
  29712094.66545  17499179.43445  26170256.1044   26170265.7064
     -4584.3124
  13562913.45847  10571093.43546  23610689.4404   23610695.5694
     -2804.2034
  -2591572.29047  -1854145.84447  22744279.4794   22744285.0114
     -1815.9374
  -1417775.97245  -1046365.66645  26059063.7764   26059071.6204
       969.5784
 01  8 19 18 49  0.0070000  0  9G 3G31G14G15G25G18G21G29G11
  25134360.57845  19590219.06945  26210893.2764   26210903.0774
     -4986.0004
  12346696.04945   8055018.67545  25659481.8234   25659489.3744
     -4031.1094
   3730591.44547   2970320.01947  22737798.6444   22737803.2844
     -2968.5164
  33070913.09545  25767485.17545  26413409.8234   26413422.2614
     -5821.6094
  -2546858.29946  -1924578.16045  25294885.1044   25294893.1364
       944.7034
  29849701.08945  17606405.13945  26196441.4564   26196449.5114
     -4589.4064
  13647165.43247  10636744.30246  23626722.2294   23626728.3824
     -2812.5474
  -2536866.41747  -1811517.87147  22754689.4254   22754695.1084
     -1831.0944
  -1446736.19945  -1068931.93345  26053553.7924   26053561.6244
       961.1414
 01  8 19 18 49 30.0080000  0  9G 3G31G14G15G25G18G21G29G11
  25284016.27245  19706833.69045  26239371.8674   26239381.6564
     -4990.4534
  12467842.39045   8149418.31445  25682535.3914   25682542.5784
     -4044.7814
   3819881.09947   3039896.36747  22754789.7194   22754794.2774
     -2983.6874
  33245676.73245  25903664.30245  26446667.6414   26446677.7694
     -5828.6254
  -2575080.99646  -1946569.71345  25289514.1954   25289521.0664
       936.9844
  29987462.97745  17713751.90745  26222657.7894   26222663.3674
     -4594.1724
  13731669.55547  10702591.64546  23642802.9374   23642808.9964
     -2820.6254
  -2481706.16847  -1768535.83847  22765186.3204   22765192.1444
     -1845.8914
  -1475445.26645  -1091302.55645  26048091.1174   26048098.4924
       952.9694
 01  8 19 18 50  0.0080000  0  9G 3G31G14G15G25G18G21G29G11
  25433797.95945  19823546.51945  26267873.9774   26267884.6684
     -4994.8444
  12589393.27245   8244133.18145  25705665.1024   25705672.6764
     -4058.4224
   3909622.00447   3109824.34947  22771866.9694   22771871.6334
     -2998.8754
  33420644.55445  26040002.54745  26479961.5474   26479971.5234
     -5835.7034
  -2603069.82646  -1968379.05445  25284189.0394   25284196.7544
       929.0634
  30125363.44745  17821206.63345  26248898.3674   26248906.5744
     -4599.0314
  13816413.06147  10768625.52646  23658929.3444   23658935.4024
     -2828.7814
  -2426103.87547  -1725209.35547  22775767.0554   22775772.7854
     -1860.7504
  -1503906.87145  -1113480.31845  26042674.1954   26042682.4614
       944.6254
 01  8 19 18 50 30.0080000  0  9G 3G31G14G15G25G18G21G29G11
  25583712.17545  19940362.55145  26296402.5624   26296411.0624
     -4999.3124
  12711354.15046   8339167.51045  25728874.7894   25728881.5744
     -4072.1564
   3999819.96347   3180108.47047  22789030.9144   22789035.5084
     -3014.2034
  33595824.76544  26176506.32145  26513296.9774   26513309.3204
     -5842.8444
  -2630818.60746  -1990001.31546  25278907.1954   25278914.4414
       920.9384
  30263411.53643  17928776.51345  26275165.8204   26275175.7384
     -4604.0784
  13901403.78247  10834852.04546  23675102.2034   23675108.2274
     -2837.1414
  -2370054.40947  -1681534.42647  22786432.8204   22786438.4224
     -1875.7664
  -1532115.15245  -1135460.71945  26037306.5084   26037312.6254
       936.0164
 01  8 19 18 51  0.0080000  0  9G 3G31G14G15G25G18G21G29G11
  25733751.44145  20057276.06245  26324954.7114   26324964.1604
     -5003.3124
  12833717.95845   8434515.82845  25752160.0944   25752167.2934
     -4085.4374
   4090468.83747   3250743.95447  22806281.1644   22806285.7344
     -3029.0784
  33771210.88745  26313170.50345  26546670.8674   26546681.5704
     -5849.5944
  -2658329.34846  -2011438.11245  25273672.9534   25273680.0004
       913.0944
  30401602.70944  18036457.83645  26301463.8984   26301472.1764
     -4608.7194
  13986637.57347  10901267.96146  23691321.7894   23691327.8014
     -2845.1414
  -2313563.04447  -1637515.15847  22797183.0084   22797188.6564
     -1890.3594
  -1560072.28845  -1157245.41145  26031986.5704   26031993.2154
       927.7504
 01  8 19 18 51 30.0080000  0  9G 3G31G14G15G25G18G21G29G11
  25883903.88945  20174277.74045  26353527.6724   26353536.1254
     -5006.8594
  12956473.02845   8530168.99045  25775519.5554   25775527.9144
     -4098.2814
   4181557.84047   3321722.39547  22823614.5704   22823619.1874
     -3043.5784
  33946792.25845  26449986.84445  26580085.5784   26580096.3524
     -5855.8754
  -2685608.40446  -2032694.38746  25268480.6724   25268487.1994
       905.4694
  30539928.03743  18144243.65645  26327786.0864   26327794.7274
     -4613.0314
  14072106.51147  10967867.11546  23707585.8054   23707591.6874
     -2852.8594
  -2256639.45247  -1593159.09247  22808014.8754   22808020.5354
     -1904.5784
  -1587784.59845  -1178839.30545  26026715.1174   26026723.8164
       919.6564
 01  8 19 18 52  0.0080000  0  9G 3G31G14G15G25G18G21G29G11
  26034161.46845  20291361.35245  26382120.8914   26382130.2814
     -5010.2814
  13079611.79545   8626121.19145  25798951.0394   25798959.7624
     -4110.9534
   4273080.54747   3393038.79047  22841030.8754   22841035.2814
     -3057.9374
  34122561.81944  26586949.86845  26613529.9534   26613541.0194
     -5862.1254
  -2712657.74946  -2053771.65846  25263333.3364   25263340.9224
       897.8284
  30678382.74844  18252130.29445  26354132.6874   26354141.5394
     -4617.3124
  14157806.25247  11034646.10846  23723893.8594   23723899.7544
     -2860.4844
  -2199289.67047  -1548470.93247  22818928.2814   22818934.0124
     -1918.7344
  -1615254.77545  -1200244.59345  26021485.0554   26021492.4304
       911.6254
 01  8 19 18 52 30.0080000  0  9G 3G31G14G15G25G18G21G29G11
  26184514.60245  20408519.45345  26410732.5004   26410741.9144
     -5013.2194
  13203124.53745   8722364.75545  25822454.4694   25822460.9964
     -4123.1874
   4365028.57447   3464686.60447  22858527.7664   22858532.5704
     -3071.8914
  34298510.87745  26724052.73645  26647015.3204   26647031.9304
     -5867.8124
  -2739481.58946  -2074673.19846  25258228.9304   25258235.9064
       890.4534
  30816960.00345  18360112.43445  26380504.7974   26380510.1414
     -4621.1724
  14243731.03047  11101600.46146  23740245.1414   23740251.0124
     -2867.8124
  -2141521.33247  -1503456.62347  22829921.3444   22829927.2504
     -1932.4694
  -1642486.93845  -1221464.33445  26016302.8754   26016308.6764
       903.8444
 01  8 19 18 53  0.0080000  0  9G 3G31G14G15G25G18G21G29G11
  26334954.65445  20525745.22845  26439359.8054   26439369.4654
     -5015.9374
  13327002.84945   8818893.20045  25846029.2034   25846036.8834
     -4135.2034
   4457394.27147   3536659.87147  22876104.6804   22876109.4024
     -3085.6564
  34474631.78945  26861289.46345  26680527.9224   26680540.0314
     -5873.4224
  -2766082.68146  -2095401.16946  25253167.6334   25253174.9264
       883.0944
  30955654.20245  18468185.58145  26406898.0314   26406909.8124
     -4624.9374
  14329875.80647  11168726.23546  23756637.8054   23756643.7464
     -2875.0164
  -2083341.02247  -1458121.29747  22840992.4144   22840998.1684
     -1946.0474
  -1669484.49145  -1242501.32745  26011165.8914   26011173.1484
       896.1254
 01  8 19 18 53 30.0080000  0  9G 3G31G14G15G25G18G21G29G11
  26485468.94345  20643028.90245  26468002.2034   26468011.3714
     -5018.4374
  13451234.12545   8915696.66345  25869669.0234   25869677.5124
     -4146.9844
   4550166.25247   3608949.72647  22893758.4064   22893763.1994
     -3099.2194
  34650912.63245  26998650.84245  26714073.8284   26714086.0664
     -5878.7664
  -2792468.15046  -2115961.13446  25248146.1874   25248154.0784
       875.8134
  31094455.50143  18576342.43245  26433308.9144   26433318.7504
     -4628.5944
  14416231.11547  11236016.06946  23773070.4454   23773076.5864
     -2882.1094
  -2024759.75447  -1412473.53547  22852139.9224   22852145.4414
     -1959.4844
  -1696254.84145  -1263361.25345  26006071.6414   26006079.4614
       888.4694
 01  8 19 18 54  0.0080000  0  9G 3G31G14G15G25G18G21G29G11
  26636056.24545  20760369.41145  26496658.5704   26496670.1874
     -5020.5944
  13575817.36245   9012774.40145  25893376.6644   25893385.5394
     -4158.4374
   4643344.36047   3681556.04147  22911489.5234   22911494.2694
     -3112.5314
  34827353.14245  27136136.63245  26747649.4224   26747662.2114
     -5883.8124
  -2818633.81646  -2136349.82646  25243166.1804   25243172.5904
       868.6564
  31233365.81845  18684584.05245  26459744.4144   26459750.3094
     -4632.0004
  14502799.70447  11303472.08946  23789544.1564   23789550.2154
     -2889.0314
  -1965776.59947  -1366512.61647  22863364.1874   22863370.0474
     -1972.6414
  -1722794.08945  -1284041.11545  26001021.3914   26001027.5664
       880.9064
 01  8 19 18 54 30.0080000  0  9G 3G31G14G15G25G18G21G29G11
  26786703.71045  20877756.84145  26525325.3914   26525338.1094
     -5022.5004
  13700739.80445   9110116.43845  25917148.1954   25917156.6134
     -4169.6564
   4736916.85847   3754469.67247  22929295.7584   22929300.5624
     -3125.5944
  35003941.31545  27273737.51545  26781252.6484   26781262.2384
     -5888.6724
  -2844586.93746  -2156572.90646  25238227.7814   25238234.1564
       861.5784
  31372374.83645  18792902.55145  26486197.2344   26486207.1414
     -4635.2344
  14589571.90947  11371086.77546  23806056.1094   23806062.2034
     -2895.7664
  -1906402.45347  -1320247.02647  22874662.8204   22874668.4104
     -1985.5944
  -1749109.47545  -1304546.51245  25996012.3364   25996019.0164
       873.5164
 01  8 19 18 55  0.0080000  0  9G 3G31G14G15G25G18G21G29G11
  26937405.40045  20995186.49545  26554003.0084   26554013.1484
     -5024.0944
  13825995.32845   9207718.00245  25940984.1024   25940991.6644
     -4180.5474
   4830878.98547   3827686.90947  22947176.2664   22947180.9064
     -3138.3914
  35180672.40345  27411449.75445  26814884.4694   26814895.0434
     -5893.2504
  -2870327.72346  -2176630.52446  25233329.2974   25233335.4734
       854.6254
  31511480.04645  18901296.15845  26512668.7664   26512677.5944
     -4638.2814
  14676545.71847  11438858.55146  23822606.8834   23822612.9414
     -2902.3284
  -1846641.40547  -1273679.96047  22886034.8524   22886040.4414
     -1998.2974
  -1775201.73345  -1324878.10545  25991047.7344   25991053.7814
       866.1564
 01  8 19 18 55 30.0080000  0  9G 3G31G14G15G25G18G21G29G11
  27088153.27745  21112652.15245  26582689.9694   26582700.3794
     -5025.6414
  13951576.45945   9305573.29945  25964883.2114   25964891.1134
     -4191.4374
   4925224.23847   3901202.69347  22965129.3754   22965134.1444
     -3151.1874
  35357539.16045  27549267.60645  26848540.9304   26848553.6954
     -5897.8124
  -2895858.75646  -2196524.70746  25228471.0864   25228478.0274
       847.5164
  31650676.28045  19009760.53245  26539155.9614   26539164.0864
     -4641.3914
  14763716.52847  11506783.84346  23839194.6724   23839200.4844
     -2908.9694
  -1786499.52447  -1226816.14047  22897479.5234   22897485.2424
     -2011.0624
  -1801073.58245  -1345037.86045  25986124.3364   25986129.8554
       858.7034
 01  8 19 18 56  0.0080000  0  9G 3G31G14G15G25G18G21G29G11
  27238937.33445  21230145.97645  26611383.4534   26611396.4064
     -5026.8754
  14077473.44745   9403674.70845  25988838.9534   25988848.0394
     -4201.9534
   5019943.82947   3975010.16247  22983153.8754   22983158.7624
     -3163.6874
  35534532.51145  27687184.25745  26882223.6954   26882235.8054
     -5902.0314
  -2921184.52446  -2216258.93346  25223651.5234   25223658.4654
       840.5634
  31789956.37445  19118290.33745  26565661.3054   26565668.9844
     -4644.2194
  14851078.45447  11574858.04546  23855819.2894   23855825.1604
     -2915.4224
  -1725984.75547  -1179661.75847  22908995.1254   22909000.7624
     -2023.5164
  -1826729.39345  -1365029.35445  25981242.8984   25981248.9924
       851.4064
 01  8 19 18 56 30.0080000  0  9G 3G31G14G15G25G18G21G29G11
  27389755.90744  21347666.67945  26640083.0624   26640094.3754
     -5027.6564
  14203684.77145   9502021.05545  26012856.1564   26012863.9184
     -4212.0784
   5115037.23447   4049108.91947  23001249.7344   23001254.4694
     -3175.8124
  35711652.04645  27825199.11445  26915929.2034   26915940.5984
     -5905.8754
  -2946300.49646  -2235829.67546  25218872.1094   25218878.7664
       833.8594
  31929322.14344  19226886.88145  26592180.2974   26592186.6724
     -4646.7814
  14938633.66847  11643082.86746  23872480.5394   23872486.4454
     -2921.5474
  -1665096.86147  -1132216.62347  22920581.6334   22920587.1764
     -2035.6414
  -1852165.42345  -1384849.55945  25976400.7274   25976406.0234
       844.3594
 01  8 19 18 57  0.0080000  0  9G 3G31G14G15G25G18G21G29G11
  27540601.15445  21465208.19245  26668788.9694   26668800.6564
     -5028.6874
  14330202.47245   9600606.13345  26036933.4144   26036941.5274
     -4222.4224
   5210497.40547   4123493.46847  23019415.2274   23019419.8204
     -3188.2034
  35888890.74945  27963306.86445  26949656.0234   26949670.1484
     -5910.0164
  -2971209.20046  -2255238.91946  25214131.9924   25214139.2384
       826.6884
  32068767.96744  19335545.84345  26618715.8444   26618723.1374
     -4649.6414
  15026377.18147  11711454.41646  23889177.7894   23889183.7194
     -2928.0314
  -1603841.83147  -1084485.41147  22932238.1024   22932243.7974
     -2048.0474
  -1877384.21545  -1404500.50745  25971603.0234   25971607.9924
       836.9064
 01  8 19 18 57 30.0080000  0  9G 3G31G14G15G25G18G21G29G11
  27691466.64744  21582765.47345  26697496.9304   26697508.6174
     -5029.0624
  14457020.02145   9699424.86545  26061065.5554   26061073.3284
     -4232.1254
   5306319.14447   4198159.74947  23037649.4064   23037654.0234
     -3199.9694
  36066242.75045  28101502.91045  26983403.8984   26983416.6054
     -5913.5164
  -2995911.54446  -2274487.36746  25209430.3984   25209437.4694
       820.0474
  32208290.77245  19444264.72845  26645268.7034   26645275.9964
     -4651.9224
  15114306.32347  11779970.60146  23905910.0164   23905916.1334
     -2933.9844
  -1542224.36847  -1036471.78947  22943963.2664   22943968.9374
     -2059.8594
  -1902387.09945  -1423983.17145  25966846.4454   25966852.7854
       829.8754
 01  8 19 18 58  0.0080000  0  9G 3G31G14G15G25G18G21G29G11
  27842346.25444  21700333.72945  26726208.9924   26726219.2504
     -5029.4694
  14584131.48445   9798472.60745  26085252.5864   26085259.5744
     -4241.8754
   5402497.49747   4273103.91547  23055951.4534   23055956.1414
     -3211.8284
  36243702.84245  28239783.19145  27017175.8284   27017188.0084
     -5917.0784
  -3020408.35846  -2293575.66646  25204769.5394   25204775.8554
       813.1564
  32347886.87743  19553040.84545  26671830.1094   26671837.7424
     -4654.3914
  15202418.61247  11848629.50946  23922677.3284   23922683.4574
     -2940.0944
  -1480248.71447   -988179.05147  22955757.1484   22955762.9264
     -2071.7664
  -1927174.81045  -1443298.18845  25962128.5004   25962134.6294
       822.6884
 01  8 19 18 58 30.0080000  0  9G 3G31G14G15G25G18G21G29G11
  27993230.78244  21817905.78845  26754921.4614   26754932.0004
     -5029.5944
  14711527.94045   9897742.45845  26109496.8834   26109505.5004
     -4251.3284
   5499024.66247   4348319.88247  23074320.0554   23074324.7894
     -3223.4534
  36421262.83844  28378141.25445  27050963.7114   27050978.1764
     -5920.3754
  -3044703.07246  -2312506.46946  25200145.4224   25200152.3874
       806.3594
  32487550.43645  19661869.33445  26698409.4304   26698416.3014
     -4656.6564
  15290708.65247  11917426.91646  23939478.4844   23939484.4734
     -2946.0474
  -1417922.16547   -939612.89347  22967617.2344   22967622.9414
     -2083.4844
  -1951750.97345  -1462448.38545  25957451.4144   25957457.4734
       815.5784
 01  8 19 18 59  0.0080000  0  9G 3G31G14G15G25G18G21G29G11
  28144122.22544  21935483.28245  26783635.4534   26783646.0394
     -5029.7974
  14839211.22445   9997235.79445  26133793.4224   26133800.9264
     -4260.8594
   5595903.61947   4423809.97247  23092755.6564   23092760.2854
     -3235.1564
  36598925.45344  28516579.29545  27084773.3524   27084787.0664
     -5923.7974
  -3068788.06646  -2331273.87146  25195562.3284   25195569.6914
       799.2974
  32627286.59645  19770754.51845  26725000.3444   26725008.4924
     -4659.0784
  15379182.16447  11986367.29346  23956314.0864   23956320.1214
     -2952.2034
  -1355240.87847   -890770.31447  22979545.1174   22979550.8364
     -2095.2974
  -1976108.49145  -1481428.18745  25952817.8524   25952825.0164
       808.2194
 01  8 19 18 59 30.0080000  0  9G 3G31G14G15G25G18G21G29G11
  28295018.13043  22053064.22845  26812350.2584   26812362.7424
     -5029.8914
  14967178.59845  10096950.46945  26158145.0624   26158152.8124
     -4270.2504
   5693132.65047   4499572.84947  23111257.6564   23111262.3324
     -3246.7664
  36776689.13643  28655096.09545  27118598.7344   27118612.1334
     -5927.1094
  -3092660.75546  -2349875.83846  25191019.8284   25191026.1334
       792.2034
  32767095.32944  19879696.29845  26751604.5864   26751613.9184
     -4661.4844
  15467840.08147  12055451.36946  23973184.9614   23973191.1024
     -2958.3284
  -1292205.57747   -841651.89047  22991540.2344   22991546.0594
     -2107.0314
  -2000244.50245  -1500235.38645  25948222.9694   25948228.9344
       800.8444
 01  8 19 19  0  0.0080000  0  9G 3G31G14G15G25G18G21G29G11
  28445911.99143  22170643.60445  26841064.7664   26841077.1334
     -5029.6254
  15095423.73246  10196881.64445  26182550.4374   26182559.6644
     -4279.3124
   5790706.66847   4575604.54247  23129825.1334   23129830.0084
     -3258.0944
  36954548.31643  28793687.27645  27152445.4064   27152463.4454
     -5930.0944
  -3116321.97946  -2368313.04246  25186517.3444   25186523.6484
       785.2664
  32906973.21943  19988691.81145  26778221.6414   26778231.5824
     -4663.6564
  15556679.68647  12124677.01146  23990090.8914   23990096.9964
     -2964.2504
  -1228820.97347   -792261.27447  23003602.0944   23003607.8364
     -2118.5164
  -2024160.25445  -1518870.96645  25943672.3054   25943679.4104
       793.6094
 01  8 19 19  0 30.0080000  0  9G 3G31G14G15G25G18G21G29G11
  28596798.20043  22288217.02045  26869776.4844   26869786.8594
     -5029.5004
  15223940.82145  10297024.68245  26207004.0704   26207012.2304
     -4288.5314
   5888620.74447   4651901.21947  23148457.5944   23148462.4104
     -3269.5624
  37132497.76343  28932348.81045  27186308.6414   27186321.5474
     -5933.2664
  -3139772.10146  -2386585.74646  25182054.4694   25182061.3634
       777.9844
  33046917.39243  20097739.15045  26804852.2664   26804861.1524
     -4666.0164
  15645698.62247  12194042.39246  24007030.9304   24007037.1054
     -2970.4064
  -1165091.15347   -742601.66547  23015729.4454   23015735.1174
     -2130.1724
  -2047855.99945  -1537335.12545  25939163.6094   25939169.5624
       786.0474
 01  8 19 19  1  0.0090000  0  9G 3G31G14G15G25G18G21G29G11
  28747684.35643  22405790.33245  26898490.3564   26898500.7784
     -5029.1874
  15352736.78845  10397385.05045  26231514.3254   26231522.1104
     -4297.5314
   5986881.79947   4728468.26947  23167156.3254   23167161.1884
     -3280.8914
  37310547.05643  29071088.17245  27220191.5054   27220209.1814
     -5936.2504
  -3163003.21746  -2404687.80646  25177634.4274   25177641.4504
       770.7344
  33186937.96644  20206845.89945  26831497.9274   26831504.3254
     -4668.3124
  15734905.89847  12263554.52946  24024006.0674   24024011.9034
     -2976.4844
  -1101009.71547   -692668.06747  23027923.5284   23027929.2944
     -2141.7034
  -2071324.70245  -1555622.36645  25934696.8884   25934702.6654
       778.5314
 01  8 19 19  1 30.0090000  0  9G 3G31G14G15G25G18G21G29G11
  28898556.32944  22523352.64845  26927201.3334   26927212.5634
     -5028.7814
  15481799.33645  10497953.12845  26256074.4974   26256082.6104
     -4306.4534
   6085480.64647   4805298.53347  23185918.8884   23185923.7394
     -3292.1724
  37488681.35743  29209893.68045  27254087.4194   27254103.3494
     -5939.1874
  -3186012.37446  -2422616.91846  25173255.1614   25173261.7474
       763.3914
  33327024.65043  20316004.13145  26858154.7634   26858165.4664
     -4670.6094
  15824295.16847  12333208.47946  24041016.3954   24041022.3954
     -2982.6254
  -1036582.74047   -642465.22347  23040183.6924   23040189.3414
     -2153.2344
  -2094563.39345  -1573730.37145  25930275.2314   25930280.9504
       770.8754
 01  8 19 19  2  0.0090000  0  9G 3G31G14G15G25G18G21G29G11
  29049418.30444  22640907.14845  26955908.8644   26955922.1694
     -5028.4694
  15611131.42145  10598731.26345  26280684.5524   26280693.5674
     -4315.4844
   6184420.42347   4882394.46047  23204746.6064   23204751.5994
     -3303.6094
  37666906.18043  29348769.81145  27288003.7634   27288016.2124
     -5942.2664
  -3208796.28846  -2440370.51146  25168919.6614   25168926.1184
       755.7194
  33467183.76944  20425218.92545  26884826.5134   26884836.1854
     -4673.1254
  15913872.47847  12403008.95446  24058062.5364   24058068.6304
     -2988.9844
   -971807.42147   -591990.94147  23052510.1224   23052515.9354
     -2164.9064
  -2117568.41145  -1591656.27545  25925896.5054   25925903.0204
       762.9844
 01  8 19 19  2 30.0090000  0  9G 3G31G14G15G25G18G21G29G11
  29200263.78344  22758448.82445  26984613.9034   26984626.5754
     -5027.7664
  15740726.51145  10699714.35645  26305346.3644   26305354.7704
     -4324.1094
   6283696.06547   4959752.09947  23223638.1224   23223642.9154
     -3314.6564
  37845216.27543  29487712.34945  27321934.9194   27321952.3134
     -5944.9534
  -3231355.48546  -2457949.01446  25164626.6064   25164633.2984
       748.2974
  33607412.16745  20534487.66045  26911512.1224   26911517.9234
     -4675.3444
  16003634.83647  12472953.61546  24075143.6144   24075149.6614
     -2995.0784
   -906688.34247   -541248.79947  23064901.9114   23064907.6534
     -2176.2344
  -2140341.07445  -1609401.13345  25921563.6384   25921570.3644
       755.2814
 01  8 19 19  3  0.0090000  0  9G 3G31G14G15G25G18G21G29G11
  29351087.01944  22875973.16045  27013314.7004   27013328.0994
     -5027.2344
  15870579.12945  10800898.06045  26330057.1614   26330066.0364
     -4332.8914
   6383302.58547   5037367.56447  23242592.6224   23242597.3564
     -3325.9064
  38023606.50643  29626717.28245  27355882.5054   27355896.0204
     -5947.8444
  -3253690.14346  -2475352.54946  25160375.9974   25160382.5244
       740.5314
  33747706.87945  20643808.03045  26938210.0914   26938217.9464
     -4677.7814
  16093580.27047  12543040.94146  24092260.0284   24092266.2044
     -3001.4224
   -841229.67647   -490242.03247  23077358.1384   23077363.8564
     -2187.8124
  -2162881.58545  -1626965.09845  25917273.9894   25917280.3764
       747.2664
 01  8 19 19  3 30.0090000  0  9G 3G31G14G15G25G18G21G29G11
  29501893.49144  22993484.38245  27042012.6454   27042025.8924
     -5026.3284
  16000694.51445  10902286.55545  26354816.0994   26354825.4664
     -4341.3124
   6483246.50147   5115245.93947  23261611.3334   23261616.0914
     -3336.8284
  38202082.92843  29765789.42545  27389845.2634   27389860.5364
     -5950.3754
  -3275789.66346  -2492572.86646  25156171.0604   25156177.5524
       732.9534
  33888076.02045  20753186.46845  26964921.4034   26964928.2864
     -4679.9844
  16183717.46847  12613277.68446  24109411.8804   24109417.7744
     -3007.5474
   -775424.31047   -438965.11347  23089880.4894   23089886.2674
     -2199.0314
  -2185179.28446  -1644339.89445  25913031.3724   25913038.2314
       739.4224
 01  8 19 19  4  0.0090000  0  9G 3G31G14G15G25G18G21G29G11
  29652667.40245  23110970.26845  27070704.8804   27070717.7864
     -5025.1564
  16131056.64245  11003867.30745  26379623.9974   26379633.1184
     -4349.4224
   6583513.13547   5193375.78147  23280691.4504   23280696.3494
     -3347.5314
  38380630.71443  29904917.19445  27423821.3644   27423834.2474
     -5952.7034
  -3297664.37246  -2509617.99946  25152007.9584   25152014.3684
       725.4224
  34028506.76145  20862612.81745  26991644.6144   26991655.5874
     -4681.9694
  16274033.97447  12683654.15346  24126599.0754   24126605.1454
     -3013.5004
   -709286.28647   -387428.97547  23102466.0914   23102471.7274
     -2210.0784
  -2207244.77546  -1661533.71245  25908832.5914   25908838.8604
       731.6724
 01  8 19 19  4 30.0090000  0  9G 3G31G14G15G25G18G21G29G11
  29803404.23444  23228427.29745  27099388.1304   27099399.7594
     -5023.9224
  16261661.05445  11105636.85945  26404478.7084   26404487.0324
     -4357.4844
   6684098.74947   5271754.17547  23299832.1854   23299837.0484
     -3358.1724
  38559246.12843  30044097.61945  27457811.6774   27457826.4114
     -5955.0004
  -3319313.08946  -2526487.03846  25147888.6774   25147895.4274
       717.8134
  34168997.37644  20972085.87045  27018378.9274   27018387.5444
     -4684.0474
  16364528.95747  12754169.70246  24143819.8414   24143825.7944
     -3019.5164
   -642818.45947   -335635.84547  23115114.4504   23115120.0754
     -2221.0944
  -2229077.17546  -1678545.90945  25904676.6854   25904683.0014
       723.8284
 01  8 19 19  5  0.0090000  0  9G 3G31G14G15G25G18G21G29G11
  29954101.53845  23345853.44045  27128066.1454   27128078.0794
     -5022.5474
  16392505.06245  11207593.10445  26429375.5054   26429384.4624
     -4365.4374
   6785002.07447   5350380.13647  23319033.4894   23319038.4234
     -3368.7194
  38737927.86145  30183329.68045  27491814.1224   27491828.1774
     -5957.1254
  -3340733.11846  -2543177.87746  25143812.6304   25143818.5954
       710.1724
  34309548.46545  21081606.09445  27045125.4194   27045134.0954
     -4686.0314
  16455203.94647  12824825.51046  24161074.2474   24161080.2354
     -3025.5004
   -576021.62547   -283586.35347  23127825.5604   23127831.0094
     -2232.0314
  -2250673.71146  -1695374.28045  25900567.7394   25900574.1734
       715.9224
 01  8 19 19  5 30.0090000  0  9G 3G31G14G15G25G18G21G29G11
  30104753.21144  23463244.13745  27156733.8334   27156748.8844
     -5020.9224
  16523582.31745  11309731.08845  26454321.6614   26454331.2164
     -4373.0784
   6886217.73447   5429249.47447  23338293.9194   23338298.5484
     -3379.0314
  38916670.20044  30322609.07145  27525828.1224   27525842.2704
     -5959.0474
  -3361925.30446  -2559691.19346  25139779.9504   25139786.2784
       702.5944
  34450156.55745  21191170.58445  27071882.8254   27071890.7164
     -4687.8754
  16546056.07147  12895619.34746  24178363.0364   24178368.9664
     -3031.3444
   -508900.36747   -231284.05247  23140598.4194   23140604.1024
     -2242.7664
  -2272035.31146  -1712019.61945  25896502.6304   25896509.4274
       708.1254
 01  8 19 19  6  0.0090000  0  9G 3G31G14G15G25G18G21G29G11
  30255363.51044  23580602.53345  27185394.1304   27185409.1104
     -5019.3914
  16654897.10245  11412054.18045  26479310.6064   26479319.0954
     -4380.8284
   6987751.24347   5508366.48947  23357615.2944   23357620.0634
     -3389.5004
  39095478.00945  30461939.43745  27559854.6144   27559870.5674
     -5961.0944
  -3382879.54146  -2576019.07346  25135792.2634   25135799.1224
       694.7194
  34590828.75144  21300785.11245  27098650.9974   27098662.7434
     -4689.9064
  16637092.93247  12966557.12746  24195687.0754   24195693.0524
     -3037.4224
   -441448.63947   -178724.24647  23153433.6614   23153439.3334
     -2253.6414
  -2293152.22346  -1728474.29245  25892483.9274   25892489.9624
       700.0164
 01  8 19 19  6 30.0090000  0  9G 3G31G14G15G25G18G21G29G11
  30405917.55444  23697917.07345  27214044.4974   27214058.3174
     -5017.4844
  16786434.61445  11514550.82945  26504338.0364   26504348.0244
     -4388.2664
   7089588.73947   5587720.36647  23376994.3334   23376999.2554
     -3399.6094
  39274337.45545  30601310.01845  27593891.0604   27593906.8724
     -5962.8124
  -3403605.74346  -2592169.26646  25131848.5284   25131855.3884
       687.0474
  34731553.26945  21410440.51945  27125430.2634   27125439.4774
     -4691.6724
  16728303.59847  13037630.35446  24213043.9664   24213050.0954
     -3043.2504
   -373679.62747   -125917.21447  23166329.9894   23166335.6854
     -2264.2194
  -2314034.04846  -1744745.78345  25888510.0204   25888515.7864
       692.1414
 01  8 19 19  7  0.0090000  0  9G 3G31G14G15G25G18G21G29G11
  30556417.61344  23815189.54045  27242683.3254   27242697.9074
     -5015.6724
  16918196.75745  11617222.48045  26529412.8334   26529422.6924
     -4395.6874
   7191733.05047   5667313.32647  23396431.9744   23396436.6854
     -3409.8284
  39453251.38945  30740723.06245  27627937.9664   27627953.4504
     -5964.6094
  -3424096.25546  -2608135.80446  25127948.4894   25127954.9234
       679.1414
  34872334.94844  21520140.26945  27152219.4744   27152228.5244
     -4693.5944
  16819693.85647  13108843.51146  24230434.3724   24230440.5014
     -3049.2504
   -305589.69647    -72860.11547  23179286.9424   23179292.5564
     -2274.9224
  -2334673.40846  -1760828.30445  25884583.3954   25884590.2394
       683.9694
 01  8 19 19  7 30.0090000  0  9G 3G31G14G15G25G18G21G29G11
  30706856.15044  23932414.12445  27271311.0364   27271325.7004
     -5013.4694
  17050175.77945  11720063.16645  26554526.2164   26554535.1854
     -4402.7814
   7294177.72847   5747140.33347  23415926.3104   23415931.0794
     -3419.7194
  39632213.09144  30880173.32545  27661991.7784   27662007.4384
     -5966.0474
  -3444353.00146  -2623920.17346  25124094.3884   25124100.9854
       671.3914
  35013168.79143  21629880.84845  27179019.0674   27179024.8564
     -4695.2344
  16911259.36347  13180193.23446  24247859.0674   24247865.1144
     -3055.0164
   -237184.57147    -19557.40247  23192303.9814   23192309.7244
     -2285.3124
  -2355072.53546  -1776723.67345  25880700.5054   25880706.0244
       676.0634
 01  8 19 19  8  0.0090000  0  9G 3G31G14G15G25G18G21G29G11
  30857233.20344  24049590.72345  27299926.9584   27299938.9034
     -5011.3914
  17182371.67045  11823072.81745  26579685.8174   26579695.1494
     -4409.9694
   7396923.78147   5827202.17847  23435478.5284   23435483.2864
     -3429.7344
  39811223.09445  31019661.28945  27696057.4894   27696075.2824
     -5967.6564
  -3464370.73346  -2639518.31146  25120284.4194   25120291.1224
       663.3754
  35154057.87843  21739664.37845  27205831.0674   27205839.6144
     -4697.0944
  17003003.74147  13251682.33346  24265317.4504   24265323.4034
     -3061.0164
   -168462.79647     33992.04947  23205381.0604   23205386.6854
     -2295.8594
  -2375226.38146  -1792427.91145  25876866.1694   25876872.2044
       667.7974
 01  8 19 19  8 30.0090000  0  9G 3G31G14G15G25G18G21G29G11
  31007553.94244  24166723.49745  27328531.8724   27328543.9814
     -5009.6874
  17314789.28745  11926255.25745  26604882.1614   26604891.3524
     -4417.5314
   7499977.37047   5907503.66247  23455088.9744   23455093.8134
     -3440.2034
  39990287.54745  31159191.53545  27730132.0054   27730145.3564
     -5969.6724
  -3484138.70346  -2654921.81646  25116522.7394   25116529.2204
       654.7664
  35295010.30244  21849497.17345  27232654.1304   27232664.0014
     -4699.4374
  17094935.67747  13323317.57546  24282811.6534   24282817.6884
     -3067.5164
    -99417.49447     87793.59247  23218520.2864   23218525.9934
     -2306.8754
  -2395124.32946  -1807932.70345  25873079.7554   25873085.3684
       659.0004
 01  8 19 19  9  0.0090000  0  9G 3G31G14G15G25G18G21G29G11
  31157812.56143  24283807.92445  27357125.7634   27357137.7784
     -5007.5164
  17447422.55445  12029605.71445  26630123.1384   26630131.5794
     -4424.6254
   7603333.38547   5988040.80447  23474756.9034   23474761.6614
     -3450.1874
  40169401.27445  31298760.26345  27764216.7244   27764230.4854
     -5971.2194
  -3503657.49046  -2670131.15346  25112808.9744   25112815.3254
       646.4844
  35436022.88843  21959377.02845  27259486.6064   27259496.9354
     -4701.3914
  17187053.05347  13395097.32246  24300341.1854   24300347.1384
     -3073.6254
    -30053.23647    141843.66947  23231719.6224   23231725.3414
     -2317.4064
  -2414766.96446  -1823238.57545  25869341.8644   25869347.8294
       650.5164
 01  8 19 19  9 30.0090000  0  9G 3G31G14G15G25G18G21G29G11
  31308005.34944  24400840.89045  27385706.6454   27385718.9194
     -5005.2974
  17580267.52245  12133121.14545  26655399.8564   26655409.1304
     -4431.6564
   7706989.17347   6068811.53547  23494481.8644   23494486.6574
     -3460.1564
  40348561.20145  31438364.97345  27798310.1144   27798323.1494
     -5972.7344
  -3522925.75746  -2685145.27546  25109141.8644   25109148.0284
       638.0784
  35577094.46044  22069302.71345  27286332.2864   27286342.1574
     -4703.3754
  17279355.60647  13467021.36046  24317905.5604   24317911.5834
     -3079.8284
     39627.89447    196140.66047  23244979.5754   23244985.1304
     -2327.9694
  -2434153.09546  -1838344.59045  25865652.3564   25865659.4504
       641.9064
 01  8 19 19 10  0.0090000  0  9G 3G31G14G15G25G18G21G29G11
  31458130.80043  24517821.49145  27414274.9744   27414288.1734
     -5003.2194
  17713322.70545  12236800.38045  26680721.2704   26680731.7744
     -4438.8594
   7810944.04447   6149815.32047  23514263.9584   23514268.8684
     -3470.3444
  40527766.45345  31578005.01044  27832412.2554   27832428.5604
     -5974.4534
  -3541939.70146  -2699961.22246  25105523.8334   25105530.4424
       629.3134
  35718226.43943  22179275.52245  27313189.2554   27313200.6144
     -4705.6254
  17371844.81047  13539090.84446  24335505.7394   24335511.8684
     -3086.3124
    109626.03947    250684.67547  23258299.6924   23258305.2354
     -2338.7814
  -2453278.81346  -1853247.67745  25862013.5444   25862019.6734
       632.9534
 01  8 19 19 10 30.0090000  0  9G 3G31G14G15G25G18G21G29G11
  31608192.74744  24634752.64245  27442831.2784   27442847.8764
     -5000.8914
  17846591.66745  12340646.17145  26706080.0364   26706089.2984
     -4445.7664
   7915202.99347   6231056.04647  23534103.5914   23534108.5014
     -3480.2664
  40707021.79144  31717683.99644  27866522.8254   27866541.9774
     -5975.9064
  -3560689.78746  -2714571.56646  25101955.1144   25101961.9464
       620.6564
  35859425.68543  22289300.69045  27340058.3724   27340068.3954
     -4707.6724
  17464528.62747  13611311.96546  24353142.9974   24353149.1144
     -3092.6254
    179946.95947    305480.20047  23271681.3494   23271686.8334
     -2349.2974
  -2472134.48446  -1867940.35845  25858424.2864   25858431.4504
       624.1094
 01  8 19 19 11  0.0090000  0  9G 3G31G14G15G25G18G21G29G11
  31758186.06643  24751630.27245  27471373.3174   27471386.7164
     -4998.5784
  17980068.97745  12444654.32945  26731482.1454   26731491.5364
     -4452.6564
   8019761.71547   6312530.36047  23554000.5754   23554005.3104
     -3490.2504
  40886322.73343  31857398.58044  27900643.1694   27900659.9074
     -5977.4224
  -3579176.00146  -2728976.28446  25098437.5444   25098443.9774
       611.8134
  36000689.68943  22399376.37645  27366939.7634   27366946.3604
     -4709.8444
  17557405.36347  13683683.41946  24370816.9274   24370822.9034
     -3099.0784
    250586.62947    360524.10447  23285123.7704   23285129.3374
     -2359.9224
  -2490720.58046  -1882422.94945  25854887.8884   25854893.8764
       615.0314
 01  8 19 19 11 30.0090000  0  9G 3G31G14G15G25G18G21G29G11
  31908105.65744  24868450.45445  27499903.9034   27499917.8064
     -4995.9534
  18113749.34245  12548820.72745  26756921.0834   26756930.7674
     -4459.2504
   8124616.04647   6394235.01247  23573953.7784   23573958.6774
     -3499.9374
  41065664.85943  31997145.28442  27934771.3954   27934782.5204
     -5978.6254
  -3597398.50846  -2743175.52846  25094969.8954   25094976.3174
       603.0944
  36142016.28642  22509500.81245  27393832.4354   27393845.1184
     -4711.8284
  17650472.98647  13756203.60546  24388527.1774   24388533.2474
     -3105.3284
    321541.67747    415813.75447  23298625.9034   23298631.5754
     -2370.2974
  -2509036.85346  -1896695.32445  25851403.5914   25851409.6494
       606.1254
 01  8 19 19 12  0.0090000  0  9G 3G31G14G15G25G18G21G29G11
  32057944.92343  24985208.13045  27528416.6304   27528430.2744
     -4993.3444
  18247625.75045  12653139.87045  26782394.8334   26782403.2164
     -4465.8594
   8229759.86147   6476165.24247  23593961.9584   23593966.9744
     -3509.6724
  41245042.03243  32136919.35544  27968906.5994   27968922.1654
     -5979.8594
  -3615358.77746  -2757170.41946  25091551.9584   25091558.0054
       594.1884
  36283401.15741  22619670.64745  27420736.9034   27420748.7204
     -4713.8754
  17743728.44247  13828870.16246  24406273.1384   24406279.2674
     -3111.7034
    392806.55947    471344.83147  23312187.2084   23312192.8334
     -2380.7034
  -2527084.93746  -1910758.67945  25847968.6854   25847974.8374
       597.0634
 01  8 19 19 12 30.0090000  0  9G 3G31G14G15G25G18G21G29G11
  32207709.24244  25101907.32445  27556917.0674   27556933.3604
     -4990.6724
  18381703.39445  12757615.80945  26807911.3804   26807921.0404
     -4472.3594
   8335199.40547   6558325.90247  23614026.1064   23614031.1574
     -3519.3914
  41424460.24343  32276725.42443  28003048.9744   28003058.3884
     -5981.0784
  -3633045.86346  -2770952.44346  25088185.8884   25088192.3804
       585.1564
  36424852.51042  22729892.29245  27447656.3724   27447667.2044
     -4715.9694
  17837180.47547  13901689.89046  24424056.3494   24424062.4194
     -3118.1724
    464388.10147    527122.65247  23325808.8174   23325814.3604
     -2391.1414
  -2544854.33446  -1924604.94445  25844585.9664   25844591.9664
       587.8594
 01  8 19 19 13  0.0100000  0  9G 3G31G14G15G25G18G21G29G11
  32357396.04743  25218546.09845  27585401.2134   27585414.7994
     -4988.0314
  18515978.97545  12862245.96845  26833461.3854   26833473.1194
     -4478.9534
   8440931.54247   6640714.56147  23634146.5574   23634151.4784
     -3529.1254
  41603918.51842                  28037199.7994
     -5982.3444
  -3650462.80446  -2784523.95646  25084871.5724   25084877.9004
       575.9694
  36566370.20741  22840165.57145  27474586.2834   27474593.5764
     -4718.1564
  17930828.42947  13974662.29246  24441876.9864   24441883.1154
     -3124.7344
    536282.80847    583144.49947  23339489.6664   23339495.3964
     -2401.6254
  -2562348.09146  -1938236.37745  25841257.0724   25841262.5214
       578.4384
 01  8 19 19 13 30.0100000  0  9G 3G31G14G15G25G18G21G29G11
  32506999.92943  25335120.30045  27613869.1354   27613885.3814
     -4985.4224
  18650447.79145  12967026.71745  26859050.1664   26859059.1234
     -4485.5004
   8546954.70247   6723329.98647  23654322.3304   23654327.2644
     -3538.9534
  41783409.94043                  28071355.9004
     -5983.6414
  -3667598.71446  -2797876.49346  25081610.7054   25081616.7874
       566.5474
  36707952.21142  22950488.98045  27501528.5104   27501539.2604
     -4720.5004
  18024673.60347  14047788.36246  24459735.5964   24459741.6194
     -3131.4844
    608491.94147    639411.35147  23353230.6584   23353236.3654
     -2412.2034
  -2579554.95946  -1951644.25445  25837983.6664   25837988.6234
       568.7974
 01  8 19 19 14  0.0100000  0  9G 3G31G14G15G25G18G21G29G11
  32656522.49743  25451631.09445  27642323.6354   27642335.9554
     -4982.5314
  18785110.42944  13071958.47745  26884676.2994   26884686.2174
     -4491.7814
   8653269.98447   6806173.04247  23674553.1894   23674558.1234
     -3548.5314
  41962938.48042     88596.35253  28105518.4324   28105529.7324
     -5984.7344
  -3684451.95647  -2811008.75546  25078403.6894   25078409.9124
       557.2034
  36849602.58643  23060865.73545  27528483.8694   27528491.9124
     -4722.6564
  18118719.64547  14121070.95846  24477631.6974   24477637.6744
     -3138.0784
    681016.14947    695923.72247  23367031.7914   23367037.6394
     -2422.5314
  -2596473.74846  -1964827.65545  25834763.0494   25834769.8464
       559.2664
 01  8 19 19 14 30.0100000  0  9G 3G31G14G15G25G18G21G29G11
  32805961.72943  25568076.96245  27670759.9944   27670771.2714
     -4979.8444
  18919964.86945  13177039.67845  26910339.2834   26910348.0534
     -4498.2664
   8759876.20847   6889242.80447  23694839.9004   23694844.6354
     -3558.3444
  42142502.45241    228515.95943  28139686.3384   28139700.5684
     -5986.0004
  -3701019.53747  -2823918.42746  25075250.9944   25075257.3694
       547.4844
  36991321.90143  23171296.27845  27555452.7684   27555462.0184
     -4725.0944
  18212968.39947  14194511.51546  24495566.6664   24495572.7254
     -3144.9694
    753854.66447    752681.00047  23380892.4164   23380898.1704
     -2433.1254
  -2613101.27846  -1977784.17645  25831597.7834   25831603.7364
       549.4384
 01  8 19 19 15  0.0100000  0  9G 3G31G14G15G25G18G21G29G11
  32955316.25243  25684456.88845  27699182.4864   27699196.2714
     -4977.1564
  19055009.25944  13282268.94745  26936034.7214   26936043.2444
     -4504.7194
   8866772.45947   6972538.55847  23715181.5804   23715186.4204
     -3568.1414
  42322100.80841                  28173867.1194
     -5987.3124
  -3717298.06547  -2836602.86746  25072152.8774   25072159.1004
       537.6564
  37133111.58043  23281781.51045  27582433.9714   27582441.1004
     -4727.5944
  18307420.91647  14268110.84646  24513540.5574   24513546.7324
     -3151.9374
    827007.27547    809683.03547  23394812.8224   23394818.7524
     -2443.7664
  -2629434.14446  -1990510.99945  25828490.4394   25828496.5214
       539.3914
 01  8 19 19 15 30.0100000  0  9G 3G31G14G15G25G18G21G29G11
  33104586.51642  25800771.13545  27727586.3534   27727601.0644
     -4974.2344
  19190243.60844  13387646.17345  26961770.6824   26961779.1114
     -4510.9224
   8973960.00547   7056061.29747  23735578.5574   23735583.3854
     -3577.7344
                                  28208052.1974
     -5987.2194
  -3733282.17747  -2849057.89346  25069111.2054   25069117.5454
       527.8754
  37274974.31343  23392323.71145  27609430.5644   27609438.4204
     -4729.9534
  18402081.28847  14341872.14346  24531553.4634   24531559.7324
     -3158.7974
    900475.66547    866931.12647  23408793.6274   23408799.3344
     -2454.1874
  -2645466.94346  -2003004.02345  25825439.4474   25825445.7174
       529.4534
 01  8 19 19 16  0.0100000  0  8G 3G31G14G25G18G21G29G11
  33253768.22743  25917016.20345  27755975.0884   27755988.4634
     -4971.3754
  19325663.29845  13493167.83345  26987541.0884   26987550.1274
     -4517.1874
   9081435.66947   7139808.54347  23756030.4944   23756035.4044
     -3587.4534
  -3748970.42047  -2861282.35846  25066125.5104   25066131.6154
       517.8284
  37416908.73543  23502921.74545  27636439.2914   27636446.8654
     -4732.5004
  18496948.67247  14415794.73646  24549606.2754   24549612.3224
     -3165.8754
    974257.16247    924423.19947  23422833.6354   23422839.2714
     -2464.7504
  -2661198.45146                  25822445.6824
       519.1884
 01  8 19 19 16 30.0100000  0  8G 3G31G14G25G18G21G29G11
  33402861.37743  26033192.45245  27784348.4324   27784364.4434
     -4968.1094
  19461268.23545  13598833.86045  27013345.2134   27013356.8654
     -4523.0624
   9189200.21047   7223780.89147  23776537.5574   23776542.2914
     -3596.7974
  -3764358.00447  -2873272.55846  25063197.6824   25063203.5884
       508.0164
  37558917.69244  23613577.85345  27663462.2834   27663474.1704
     -4734.7194
  18592026.74047  14489881.50146  24567699.3304   24567705.5064
     -3172.6254
   1048353.33347    982160.46847  23436933.7444   23436939.4514
     -2474.9374
  -2676623.71446                  25819510.6664
       509.2344
 01  8 19 19 17  0.0100000  0  8G 3G31G14G25G18G21G29G11
  33551860.94143  26149295.70145  27812701.6974   27812719.8894
     -4965.1564
  19597052.74044  13704639.80045  27039182.8614   27039193.2254
     -4529.2194
   9297249.17147   7307974.86447  23797098.4004   23797103.1114
     -3606.4694
  -3779444.89847  -2885028.44346  25060326.6434   25060332.7134
       497.7344
  37700998.33145  23724289.80245  27690500.4944   27690509.8144
     -4737.3284
  18687313.37647  14564130.78946  24585831.4784   24585837.6894
     -3179.8124
   1122760.21047   1040139.85447  23451092.7754   23451098.4474
     -2485.5004
  -2691742.76346     -7432.91556  25816633.5574   25816640.5924
       498.7504
 01  8 19 19 17 30.0100000  0  8G 3G31G14G25G18G21G29G11
  33700767.83143  26265326.80445  27841037.6974   27841051.8814
     -4962.2664
  19733017.60244  13810586.24245  27065057.4634   27065067.3344
     -4535.3914
   9405584.45747   7392391.95147  23817714.1664   23817719.1934
     -3616.1874
  -3794224.91347  -2896545.20846  25057513.8934   25057520.0684
       487.2814
  37843154.59945  23835060.73145  27717551.4244   27717561.8694
     -4740.0784
  18782812.97447  14638546.02046  24604004.8074   24604010.7834
     -3187.1414
   1197480.15447   1098363.18247  23465311.6114   23465317.4004
     -2496.1414
  -2706549.46746                  25813816.8384
       488.0314
 01  8 19 19 18  0.0100000  0  8G 3G31G14G25G18G21G29G11
  33849585.54644  26381288.42145  27869357.4634   27869372.1744
     -4958.9064
  19869166.11444  13916675.83945  27090965.8614   27090975.2174
     -4541.1564
   9514210.44347   7477035.55647  23838384.9164   23838389.7324
     -3625.5314
  -3808689.49047  -2907816.15746  25054761.1034   25054767.4674
       477.0314
  37985392.62045  23945895.35445  27744618.7524   27744628.3774
     -4742.4844
  18878532.93847  14713132.96246  24622219.6584   24622225.6934
     -3194.1874
   1272518.17647   1156834.36647  23479590.8074   23479596.2794
     -2506.3914
  -2721035.28146                  25811059.9004
       477.6414
 01  8 19 19 18 30.0100000  0  8G 3G31G14G25G18G21G29G11
  33998309.42443  26497176.81445  27897658.4634   27897674.3224
     -4955.8444
  20005493.12744  14022904.52345  27116908.7914   27116917.1744
     -4547.1564
   9623123.04147   7561902.49247  23859110.5574   23859115.5604
     -3635.1724
  -3822838.29147  -2918841.07346  25052068.7524   25052074.7524
       466.3444
  38127710.34945  24056792.07445  27771701.1744   27771710.9164
     -4745.2344
  18974471.80847  14787890.48446  24640475.4004   24640481.4594
     -3201.5944
   1347870.96747   1215550.82247  23493930.0104   23493935.7524
     -2516.9844
  -2735199.53846                  25808364.3144
       466.7504
 01  8 19 19 19  0.0100000  0  8G 3G31G14G25G18G21G29G11
  34146934.15544  26612988.06345  27925940.9474   27925956.1504
     -4952.6254
  20141992.45445  14129267.41645  27142883.7994   27142893.6114
     -4552.9694
   9732317.70647   7646989.22047  23879889.5024   23879894.6114
     -3644.6414
  -3836671.39147  -2929619.95446  25049435.6824   25049441.5414
       455.6884
  38270104.90544  24167748.68345  27798798.3074   27798808.3894
     -4747.9064
  19070626.93647  14862816.50946  24658773.6354   24658779.8104
     -3208.9374
   1423534.35447   1274509.30147  23508328.2214   23508333.7404
     -2527.4064
  -2749042.85346                  25805730.4554
       455.9064
 01  8 19 19 19 30.0100000  0  8G 3G31G14G25G18G21G29G11
  34295465.60544  26728726.55445  27954205.6824   27954219.7714
     -4949.5314
  20278669.81345  14235769.10945  27168893.0104   27168903.7484
     -4558.9064
   9841800.97247   7732300.83047  23900723.3144   23900728.2954
     -3654.2974
  -3850178.05347  -2940144.44346  25046866.1584   25046872.2644
       444.7034
  38412584.76943  24278771.71945  27825911.5884   27825924.4244
     -4750.8124
  19167008.23447  14937918.76746  24677114.8694   24677120.9514
     -3216.5474
   1499515.39047   1333715.29947  23522786.9864   23522792.7404
     -2538.0474
  -2762554.21346     -1041.53656  25803158.9714   25803165.8534
       444.7344
 01  8 19 19 20  0.0100000  0  8G 3G31G14G25G18G21G29G11
  34443896.96944  26844387.04445  27982451.2994   27982465.0844
     -4946.0314
  20415518.10545  14342403.97045  27194934.0024   27194944.0724
     -4564.4534
   9951566.77647   7817832.60347  23921611.0334   23921616.1074
     -3663.5624
  -3863360.20047  -2950416.15146  25044357.3304   25044363.5064
       433.9534
  38555145.67143  24389858.01243  27853040.0254   27853048.8894
     -4753.3914
  19263612.23247  15013194.56846  24695497.4714   24695503.5294
     -3223.8594
   1575808.66847   1393164.60847  23537305.1194   23537310.6154
     -2548.3284
  -2775735.26646                  25800650.4714
       433.8594
 01  8 19 19 20 30.0100000  0  8G 3G31G14G25G18G21G29G11
  34592228.51244  26959969.85645  28010679.0724   28010694.5804
     -4942.7344
  20552537.33344  14449172.00745  27221007.4554   27221016.6004
     -4570.1414
  10061616.36647   7903585.50247  23942552.6434   23942557.6704
     -3673.0624
  -3876212.45047  -2960430.76246  25041911.2754   25041917.3344
       422.8444
  38697790.67842  24501009.61543  27880183.8534   27880199.3144
     -4756.2504
  19360442.21447  15088646.44846  24713923.8304   24713929.6434
     -3231.4694
   1652415.73347   1452858.41847  23551882.9244   23551888.5024
     -2558.8284
  -2788580.76246                  25798205.2054
       422.5474
 01  8 19 19 21  0.0100000  0  8G 3G31G14G25G18G21G29G11
  34740455.01444  27075470.72245  28038883.8384   28038897.0374
     -4939.1414
  20689721.52544  14556068.60645  27247112.3534   27247119.2134
     -4575.5624
  10171944.85547   7989555.73047  23963547.6584   23963552.6274
     -3682.2814
  -3888735.29647  -2970188.67046  25039528.2684   25039534.3264
       411.8914
  38840516.66142                  27907344.0334
     -4758.9064
  19457495.98547  15164272.72746  24732393.2364   24732399.2954
     -3238.8914
   1729332.33947   1512793.43547  23566519.8384   23566525.4284
     -2569.0944
  -2801091.23446                  25795824.3464
       411.3444
 01  8 19 19 21 30.0100000  0  8G 3G31G14G25G18G21G29G11
  34888578.38544  27190891.24045  28067072.6974   28067086.8694
     -4935.8284
  20827072.10445  14663094.80745  27273250.4474   27273261.4084
     -4581.1874
  10282554.97747   8075745.41447  23984596.3614   23984601.3534
     -3691.8124
  -3900921.90447  -2979684.57146  25037209.2604   25037215.0844
       400.4694
  38983328.37641                  27934520.1114
     -4761.9844
  19554778.52147  15240077.25146  24750904.9714   24750911.1114
     -3246.7034
   1806561.70747   1572972.15747  23581215.9394   23581221.5764
     -2579.6414
  -2813259.80446                  25793509.5414
       399.7344
 01  8 19 19 22  0.0100000  0  8G 3G31G14G25G18G21G29G11
  35036598.48144  27306231.30345  28095239.8074   28095255.3504
     -4932.0314
  20964588.82545  14770250.51945  27299419.0574   27299430.5924
     -4586.3754
  10393447.34047   8162155.02147  24005698.4634   24005703.4904
     -3700.8754
  -3912767.41847  -2988914.69646  25034955.0184   25034961.0414
       389.3914
  39126228.14941                  27961713.2214
     -4764.5784
  19652293.49747  15316062.90046  24769461.7054   24769467.5884
     -3254.1564
   1884105.14847   1633395.60847  23595972.1034   23595977.7174
     -2589.7814
  -2825081.43246                  25791260.5254
       388.4534
 01  8 19 19 22 30.0100000  0  8G 3G31G14G25G18G21G29G11
  35184506.80243  27421484.24544  28123385.4864   28123404.3814
     -4928.5314
  21102262.73445  14877528.71145  27325617.7684   27325627.4984
     -4591.8754
  10504614.19647   8248778.52347  24026852.9944   24026857.8104
     -3710.2664
  -3924275.54147  -2997881.92046  25032764.7754   25032770.9634
       377.8134
                                  27988921.9244
     -4767.5624
  19750035.83847  15392225.71646  24788061.1504   24788067.3614
     -3262.0314
   1961955.36947   1694058.11047  23610786.5024   23610792.0454
     -2600.2504
  -2836559.75146                  25789076.3774
       376.7034
 01  8 19 19 23  0.0100000  0  7G 3G31G14G25G21G29G11
  35332304.85843  27536651.27845  28151511.5024   28151528.4634
     -4924.7344
  21240094.55345  14984929.93645  27351846.8224   27351858.7324
     -4597.0004
  10616057.54147   8335617.46647  24048059.5804   24048064.5024
     -3719.3594
  -3935439.71447  -3006581.13046  25030640.1584   25030646.3104
       366.3594
  19848009.97747  15468569.15446  24806705.4944   24806711.4004
     -3269.6724
   2040114.78047   1754961.54247  23625659.8934   23625665.3184
     -2610.4374
  -2847688.50146                  25786958.5334
       365.1414
 01  8 19 19 23 30.0100000  0  8G 3G31G14G25G18G21G29G11
  35479991.05743  27651731.04745  28179615.1434   28179634.7054
     -4920.8444
  21378082.30245  15092452.69845  27378105.2604   27378117.0884
     -4602.0164
  10727776.57147   8422671.22547  24069319.1354   24069324.2444
     -3728.4064
  -3946256.57347  -3015009.71746  25028581.8074   25028587.7364
       354.8914
                                  28043388.1974
     -4773.1564
  19946217.84847  15545094.73046  24825393.7054   24825399.7994
     -3277.3754
   2118583.46447   1816105.95647  23640591.8224   23640597.2484
     -2620.6254
  -2858463.86646                  25784906.8774
       353.3754
 01  8 19 19 24  0.0100000  0  7G 3G31G14G25G21G29G11
  35627563.36343  27766722.20045  28207697.6434   28207713.0684
     -4917.1564
  21516223.60345  15200095.09645  27404392.2524   27404400.6234
     -4607.2034
  10839770.21147   8509938.95947  24090630.7364   24090635.6464
     -3737.6564
  -3956723.39047  -3023165.55046  25026589.7834   25026595.6664
       343.0474
  20044660.74247  15621803.42246  24844126.6664   24844132.7714
     -3285.3444
   2197360.42047   1877490.58447  23655582.6034   23655588.1584
     -2631.0004
  -2868883.19546                  25782924.7994
       341.3594
 01  8 19 19 24 30.0100000  0  7G 3G31G14G25G21G29G11
  35775019.86445  27881623.06545  28235758.7364   28235773.7054
     -4913.1724
  21654515.95845  15307855.21845  27430708.4634   27430719.6704
     -4612.1414
  10952036.96047   8597419.51447  24111994.5964   24111999.6464
     -3746.6724
  -3966837.23147  -3031046.33646  25024665.2994   25024671.0534
       331.3284
  20143339.61247  15698696.01046  24862904.5724   24862910.7134
     -3293.1564
   2276444.73647   1939114.71647  23670631.6974   23670637.0764
     -2641.1724
  -2878943.55046     -2322.99156  25781010.5334   25781018.0494
       329.3914
 01  8 19 19 25  0.0100000  0  7G 3G31G14G25G21G29G11
  35922354.30644  27996428.90044  28263794.9244   28263809.1784
     -4909.2344
  21792952.67145  15415727.81245  27457052.5494   27457064.4124
     -4617.0624
  11064571.06847   8685108.39946  24133408.8384   24133414.0414
     -3755.7194
  -3976599.75447  -3038653.37246  25022807.4784   25022813.4784
       319.3914
  20242251.04447  15775769.80946  24881726.8934   24881733.0334
     -3301.0944
   2355831.21447   2000974.30047  23685738.4084   23685744.0104
     -2651.3754
  -2888646.31646     -9883.48946  25779164.5104   25779170.6974
       317.2664
 01  8 19 19 25 30.0110000  0  7G 3G31G14G25G21G29G11
  36069578.09944  28111148.35745  28291811.7494   28291829.6714
     -4905.2664
  21931544.40745  15523721.21145  27483426.2024   27483436.1674
     -4621.9694
  11177383.56947   8773014.21347  24154876.4444   24154881.5544
     -3764.7814
  -3985999.75747  -3045977.93046  25021018.5694   25021024.6514
       307.3284
  20341408.68147  15853035.44646  24900596.1324   24900602.3194
     -3309.1414
   2435530.33947   2063077.49947  23700904.9764   23700910.5654
     -2661.6414
  -2897980.31146                  25777387.6634
       304.9844
 01  8 19 19 26  0.0110000  0  7G 3G31G14G25G21G29G11
  36216676.85743  28225770.57045  28319802.6404   28319818.2184
     -4901.2034
  22070276.80245  15631824.22745  27509825.2884   27509836.4604
     -4626.7344
  11290463.12747   8861128.12246  24176394.9764   24176399.9214
     -3773.7664
  -3995036.37947  -3053019.34346  25019298.9914   25019305.1204
       295.2034
  20440804.62947  15930486.79046  24919510.9764   24919517.0344
     -3317.1724
   2515533.41047   2125417.53947  23716128.9834   23716134.6204
     -2671.7974
  -2906944.44546     -3689.72756  25775682.1244   25775688.1594
       292.6564
 01  8 19 19 26 30.0110000  0  7G 3G31G14G25G21G29G11
  36363652.53844  28340296.77445  28347772.5304   28347787.9914
     -4897.0624
  22209151.13245  15740037.80045  27536252.4684   27536261.6364
     -4631.4224
  11403811.26047   8949451.31346  24197964.4684   24197969.4724
     -3782.6724
  -4003708.17547  -3059776.47446  25017648.6554   25017654.6204
       283.0004
  20540442.27647  16008126.46546  24938470.9764   24938477.1044
     -3325.2504
   2595841.40247   2187995.18647  23731411.0154   23731416.6164
     -2681.9534
  -2915537.27946    -10385.41046  25774045.7184   25774052.1164
       280.3134
 01  8 19 19 27  0.0110000  0  7G 3G31G14G25G21G29G11
  36510500.58344  28454723.46245  28375716.0694   28375726.8904
     -4892.6564
  22348162.05345  15848357.80745  27562706.4994   27562717.8354
     -4635.8284
  11517423.99047   9037980.68146  24219584.4134   24219589.3354
     -3791.3594
  -4012014.98447  -3066249.21046  25016067.5854   25016073.6674
       270.8914
  20640320.71647  16085953.77246  24957476.6554   24957482.6204
     -3333.1874
   2676450.67447   2250807.58947  23746750.4604   23746756.0384
     -2691.8754
  -2923758.46346    -16791.48346  25772482.1944   25772488.0424
       267.9534
 01  8 19 19 27 30.0110000  0  7G 3G31G14G25G21G29G11
  36657218.02444  28569048.49645  28403635.9834   28403652.6404
     -4888.3754
  22487306.14945  15956781.66545  27589183.7104   27589195.9364
     -4640.3124
  11631298.99947   9126714.42546  24241254.0774   24241258.9294
     -3800.1724
  -4019955.43647  -3072436.47546  25014556.6794   25014562.6324
       258.5474
  20740439.36347  16163968.25046  24976529.3354   24976535.5114
     -3341.2974
   2757359.45947   2313853.38647  23762146.8194   23762152.3394
     -2701.9224
  -2931606.39146    -22906.69046  25770988.8744   25770994.9094
       255.3444
 01  8 19 19 28  0.0110000  0  7G 3G31G14G25G21G29G11
  36803803.60744  28683270.73345  28431530.7574   28431545.1634
     -4884.0624
  22626581.71145  16065307.91445  27615687.2654   27615700.1594
     -4644.7814
  11745435.55647   9215651.97046  24262973.2024   24262978.4524
     -3809.0004
  -4027525.66247  -3078335.26446  25013116.0544   25013122.0774
       246.0314
  20840800.15547  16242171.42346  24995627.2184   24995633.4174
     -3349.5004
   2838567.55847   2377132.41347  23777600.2494   23777605.8044
     -2712.0314
  -2939077.28046    -28728.12246  25769567.0074   25769573.0184
       242.6414
 01  8 19 19 28 30.0110000  0  7G 3G31G14G25G21G29G11
  36950262.09443  28797393.80345  28459400.8584   28459412.8394
     -4879.8444
  22765993.13845  16173940.03345  27642216.5694   27642228.4444
     -4649.2974
  11859839.20047   9304797.63046  24284743.7414   24284748.7804
     -3817.9224
  -4034716.13847  -3083938.15346  25011747.9364   25011753.9484
       233.2814
  20941410.90247  16320569.36046  25014772.7184   25014778.6124
     -3357.9064
   2920080.90247   2440649.28747  23793111.8194   23793117.3514
     -2722.2194
  -2946161.64846    -34248.37246  25768219.0224   25768225.3154
       229.6254
 01  8 19 19 29  0.0110000  0  6G31G14G25G21G29G11
  22905537.63645  16282675.81045  27668772.0224   27668784.1324
     -4653.5784
  11974508.39247   9394150.22046  24306564.5224   24306569.4564
     -3826.6094
  -4041524.37447  -3089243.19446  25010452.1404   25010458.1984
       220.6414
  21042273.16647  16399163.27746  25033966.0464   25033972.0584
     -3366.1874
   3001898.38047   2504403.15747  23808681.0614   23808686.5464
     -2732.2194
  -2952856.89446    -39465.41246  25766945.4684   25766951.4214
       216.7664
 01  8 19 19 29 30.0110000  0  6G31G14G25G21G29G11
  23045209.98244  16391511.21645  27695349.2264   27695360.4334
     -4657.9694
  12089439.00847   9483706.51046  24328435.1634   24328440.1794
     -3835.4844
  -4047950.69847  -3094250.63246  25009229.0774   25009235.0544
       207.6884
  21143385.67146  16477952.20646  25053207.2884   25053213.4874
     -3374.7194
   3084016.53347   2568391.31647  23824307.8434   23824313.3274
     -2742.3914
  -2959162.77346    -44379.04446  25765744.4444   25765750.2454
       203.5634
 01  8 19 19 30  0.0110000  0  6G31G14G25G21G29G11
  23185006.28444  16500443.19945  27721952.6084   27721965.0224
     -4661.9224
  12204628.40147   9573464.44346  24350354.7964   24350359.8354
     -3843.9534
  -4053993.10847  -3098958.93446  25008079.2024   25008085.2144
       194.9844
  21244747.69547  16556935.54246  25072496.0854   25072502.1434
     -3382.9064
   3166432.90347   2632611.84947  23839991.1634   23839996.6834
     -2752.1874
  -2965078.09246    -48988.35246  25764619.8664   25764625.5614
       190.6414
 01  8 19 19 30 30.0110000  0  6G31G14G25G21G29G11
  23324921.59144  16609467.95045  27748577.5074   27748589.8394
     -4665.8914
  12320073.07647   9663421.29946  24372323.4834   24372328.5934
     -3852.4844
  -4059651.58747  -3103368.07746  25007002.2494   25007008.2374
       182.1254
  21346357.88747  16636112.27846  25091832.0694   25091838.4334
     -3391.2344
   3249144.59347   2697062.50547  23855730.6864   23855736.4174
     -2762.0474
  -2970601.93546    -53292.59946  25763568.4054   25763574.3584
       177.4694
 01  8 19 19 31  0.0110000  0  6G31G14G25G21G29G11
  23464958.18544  16718587.21245  27775226.6714   27775238.0774
     -4670.0164
  12435776.21847   9753579.55546  24394341.0464   24394346.2264
     -3861.2034
  -4064918.94647  -3107472.44946  25006000.0614   25006005.8274
       168.8914
  21448222.63746  16715487.34646  25111216.1474   25111222.1944
     -3399.8914
   3332155.22747   2761746.10247  23871527.1164   23871532.7184
     -2772.1414
  -2975727.14346    -57286.23346  25762592.6474   25762598.6364
       164.0314
 01  8 19 19 31 30.0110000  0  6G31G14G25G21G29G11
  23605112.66644  16827798.31745  27801896.5224   27801908.9724
     -4673.7974
  12551735.64547   9843937.51346  24416407.4764   24416412.6904
     -3869.6094
  -4069793.59447  -3111270.81046  25005072.6944   25005078.8584
       155.8754
  21550341.90447  16795060.74746  25130649.2104   25130655.4684
     -3408.2664
   3415462.94847   2826661.19747  23887379.8274   23887385.5694
     -2781.9064
  -2980451.50046    -60967.51046  25761694.1714   25761700.1244
       150.7344
 01  8 19 19 32  0.0110000  0  6G31G14G25G21G29G11
  23745385.82043  16937101.89845  27828589.6404   27828601.7024
     -4677.7194
  12667953.21947   9934496.62746  24438522.9444   24438528.1834
     -3878.2034
  -4074269.40647  -3114758.39146  25004220.8044   25004226.8864
       142.5314
  21652719.70446  16874835.59946  25150130.7964   25150137.0074
     -3416.9064
   3499070.12847   2891809.63747  23903289.9134   23903295.6324
     -2791.8754
  -2984769.36146    -64332.04546  25760872.3514   25760878.2574
       137.1254
 01  8 19 19 32 30.0110000  0  6G31G14G25G21G29G11
  23885770.04943  17046492.00745  27855304.5154   27855317.3744
     -4681.2034
  12784422.87547  10025252.16346  24460686.5154   24460691.6474
     -3886.4064
  -4078349.10647  -3117937.32346  25003444.4054   25003450.4054
       129.4534
  21755352.24046  16954808.94646  25169661.2804   25169667.4684
     -3425.2504
   3582970.66547   2957186.66447  23919255.4834   23919261.1794
     -2801.4844
  -2988682.65146    -67381.33646  25760127.9604   25760134.1364
       123.7504
 01  8 19 19 33  0.0110000  0  6G31G14G25G21G29G11
  24026263.13643  17155966.95445  27882039.1944   27882051.9014
     -4684.8914
  12901142.99747  10116202.86646  24482897.5694   24482902.8544
     -3894.8124
  -4082029.68247  -3120805.24746  25002743.7184   25002749.5184
       116.0314
  21858241.15046  17034982.07446  25189239.9914   25189246.0614
     -3433.8914
   3667164.00147   3022791.84547  23935276.9684   23935282.6754
     -2811.2974
  -2992188.69246    -70113.26946  25759459.9914   25759466.1794
       110.0784
 01  8 19 19 33 30.0110000  0  6G31G14G25G21G29G11
  24166864.13643  17265525.99245  27908794.8744   27908804.4644
     -4688.4064
  13018113.96647  10207349.03846  24505156.3274   24505161.6124
     -3903.1564
  -4085306.81247  -3123358.79846  25002120.4764   25002126.3584
       102.5314
  21961389.05846  17115357.00346  25208868.6324   25208875.2064
     -3442.5474
   3751650.83747   3088625.72547  23951354.1634   23951359.8824
     -2821.0624
  -2995283.18146    -72524.52546  25758871.1404   25758877.2224
        96.3134
 01  8 19 19 34  0.0110000  0  7G20G31G14G25G21G29G11
     -7777.08452                  28491587.6794
       707.3754
  24307564.88443  17375162.71645  27935569.1554   27935581.1834
     -4691.6564
  13135329.07747  10298685.44546  24527461.6944   24527466.9684
     -3911.2034
  -4088183.76947  -3125600.52446  25001572.4994   25001578.4524
        89.2034
  22064791.51247  17195930.27946  25228546.4054   25228552.4054
     -3450.9844
   3836424.56847   3154683.15747  23967486.2724   23967491.9444
     -2830.5624
  -2997968.85446    -74617.22646  25758359.8904   25758366.3474
        82.7034
 01  8 19 19 34 30.0110000  0  7G20G31G14G25G21G29G11
    -29022.60042                  28487544.4054
       708.8444
  24448361.75743  17484874.36245  27962363.4364   27962377.0224
     -4694.9844
  13252785.72947  10390210.07046  24549813.0614   24549818.1714
     -3919.4224
  -4090659.10347  -3127529.30046  25001101.5464   25001107.3704
        75.6094
  22168448.59446  17276701.96946  25248270.7964   25248276.9364
     -3459.6724
   3921483.24047   3220962.62547  23983672.3974   23983678.1044
     -2840.2034
  -3000244.22546    -76390.20746  25757927.0074   25757933.3934
        68.8134
 01  8 19 19 35  0.0110000  0  7G20G31G14G25G21G29G11
    -50314.40941                  28483493.0614
       710.6094
  24589255.22743  17594661.29545  27989173.1164   27989182.1434
     -4697.9224
  13370485.23747  10481923.93046  24572210.5464   24572215.6554
     -3927.2504
  -4092727.59847  -3129141.06446  25000708.0154   25000714.0614
        62.2344
  22272363.94447  17357674.90646  25268045.6714   25268051.9994
     -3468.0624
   4006828.78747   3287465.62747  23999913.0224   23999918.7064
     -2849.5164
  -3002104.00246    -77839.34146  25757572.7104   25757578.6864
        55.1254
 01  8 19 19 35 30.0110000  0  7G20G31G14G25G21G29G11
    -71654.75441                  28479431.8744
       711.9534
  24730239.39643  17704518.93145  28016002.0694   28016015.5034
     -4701.1414
  13488423.18247  10573823.59346  24594653.2724   24594658.3584
     -3935.4064
  -4094389.71547  -3130436.16446  25000391.3664   25000397.3904
        48.4224
  22376535.37747  17438847.38546  25287869.0464   25287875.2454
     -3476.8594
   4092456.86747   3354188.79247  24016207.5304   24016213.2494
     -2859.1564
  -3003548.40746    -78964.80646  25757298.1014   25757304.3824
        41.0164
 01  8 19 19 36  0.0110000  0  7G20G31G14G25G21G29G11
    -93041.57641                  28475360.2884
       713.7664
  24871312.72543  17814446.01745  28042848.8434   28042861.3394
     -4703.7814
  13606599.22247  10665908.78246  24617141.4054   24617146.5614
     -3943.0314
  -4095642.26047  -3131412.11046  25000153.0224   25000159.0584
        35.0164
  22480965.25246  17520221.26146  25307740.9604   25307746.9254
     -3485.1874
   4178367.80647   3421132.36347  24032555.7964   24032561.5264
     -2868.2664
  -3004573.79046    -79763.76146  25757103.0854   25757109.2494
        27.2814
 01  8 19 19 36 30.0110000  0  7G20G31G14G25G21G29G11
   -114475.82341                  28471282.3514
       715.2344
  25012470.63543  17924438.95945  28069708.8114   28069718.8354
     -4706.6874
  13725010.27247  10758177.09046  24639674.2804   24639679.6244
     -3950.9534
  -4096484.46747  -3132068.32046  24999992.6324   24999998.6324
        21.1884
  22585652.86346  17601795.94946  25327662.6714   25327669.2684
     -3493.9374
   4264558.68647   3488294.06347  24048957.5694   24048963.3004
     -2877.6874
  -3005179.47046    -80235.68246  25756987.7724   25756993.5264
        13.1414
 01  8 19 19 37  0.0110000  0  7G20G31G14G25G21G29G11
   -135960.36142                  28467194.6634
       716.9534
  25153707.18543  18034493.21545  28096585.9834   28096597.3784
     -4709.1874
  13843651.27147  10850624.58546  24662250.9684   24662256.3934
     -3958.5314
  -4096917.54747  -3132405.73346  24999910.1634   24999915.9404
         7.5634
  22690595.59546  17683569.44546  25347632.2804   25347638.5504
     -3502.3594
   4351024.88447   3555670.31047  24065411.7414   24065417.5074
     -2886.8124
  -3005366.29246    -80381.21246  25756952.4764   25756958.2764
        -0.7974
 01  8 19 19 37 30.0120000  0  7G20G31G14G25G21G29G11
   -157491.18643        -0.25554  28463097.9344   28463109.9024
       718.5164
  25295028.20543  18144613.27345  28123478.2154   28123490.5234
     -4711.7344
  13962528.43547  10943256.09746  24684872.5984   24684878.0594
     -3966.1874
  -4096935.29047  -3132419.50746  24999906.9024   24999912.9614
        -6.2664
  22795801.02046  17765547.63246  25367652.3944   25367658.4884
     -3510.9694
   4437772.05947   3623265.49247  24081918.9494   24081924.6564
     -2896.0004
  -3005128.23946    -80195.69146  25756997.3794   25757003.3204
       -14.9534
 01  8 19 19 38  0.0120000  0  7G20G31G14G25G21G29G11
   -179065.63042    -16811.26044  28458991.7774   28459001.8124
       719.9384
  25436422.20443  18254790.19345  28150386.1134   28150398.2814
     -4714.3284
  14081632.92447  11036064.75646  24707537.3874   24707542.6014
     -3973.9224
  -4096534.88847  -3132107.45146  24999983.2384   24999989.0984
       -20.2664
  22901264.12946  17847726.61846  25387721.4574   25387727.5514
     -3519.7194
   4524793.76247   3691074.59747  24098478.7624   24098484.5274
     -2905.2664
  -3004462.19046    -79676.65946  25757123.3324   25757129.4144
       -29.2814
 01  8 19 19 38 30.0120000  0  7G20G31G14G25G21G29G11
   -200680.49442                  28454878.3014
       721.4064
  25577894.16743  18365027.91345  28177307.1764   28177323.1764
     -4716.7504
  14200970.26747  11129054.85346  24730246.8094   24730252.3054
     -3981.5164
  -4095711.44747  -3131465.75546  25000139.6994   25000145.6054
       -34.2814
  23006992.01746  17930111.91646  25407840.4494   25407846.6844
     -3528.4374
   4612094.62647   3759101.23147  24115091.5434   24115097.4264
     -2914.4064
  -3003362.52146    -78819.74646  25757333.1374   25757339.2304
       -43.6414
 01  8 19 19 39  0.0120000  0  7G20G31G14G25G21G29G11
   -222341.18443                  28450757.1444
       722.8444
  25719435.27343  18475319.50045  28204241.1684   28204255.1524
     -4719.1094
  14320532.90947  11222220.51246  24752999.0434   24753004.2584
     -3989.1254
  -4094468.53447  -3130497.19846  25000376.1604   25000382.2194
       -48.4224
  23112979.50346  18012699.50146  25428009.7304   25428015.8014
     -3537.2194
   4699667.66547   3827339.94547  24131756.2304   24131761.9844
     -2923.6094
  -3001833.03046    -77627.89346  25757624.2234   25757630.0234
       -58.1094
 01  8 19 19 39 30.0120000  0  7G20G31G14G25G21G29G11
   -244046.15141                  28446625.4104
       724.0474
  25861044.04943  18585663.74145  28231188.3554   28231199.9734
     -4721.5474
  14440320.29347  11315561.28646  24775793.5434   24775798.7934
     -3996.8124
  -4092802.90947  -3129199.26046  25000692.9804   25000698.8164
       -62.7504
  23219229.02446  18095491.26446  25448228.4964   25448234.6254
     -3546.1724
   4787512.94847   3895790.80147  24148472.5434   24148478.2034
     -2932.8594
  -2999870.09746    -76098.31846  25757998.1054   25758004.2584
       -72.8444
 01  8 19 19 40  0.0120000  0  7G20G31G14G25G21G29G11
   -265797.28641                  28442487.4414
       725.8754
  26002714.55043  18696056.16445  28258147.7774   28258157.8124
     -4723.2504
  14560328.03647  11409073.77946  24798630.4104   24798635.6374
     -4003.8284
  -4090715.57948  -3127572.72446  25001090.2154   25001096.3094
       -76.5314
  23325737.98346  18178485.19146  25468496.7624   25468503.0554
     -3554.5624
   4875625.92047   3964450.23847  24165239.9344   24165245.6524
     -2941.4534
  -2997474.65746    -74231.69746  25758453.9184   25758459.9304
       -86.9844
 01  8 19 19 40 30.0120000  0  7G20G31G14G25G21G29G11
   -287593.64241                  28438340.1844
       727.2194
  26144444.42543  18806494.74045  28285118.1524   28285127.0164
     -4725.3754
  14680555.03447  11502757.11346  24821508.6294   24821513.9494
     -4011.2664
  -4088203.71548  -3125615.38446  25001568.3244   25001574.2544
       -90.8914
  23432507.94246  18261682.50146  25488813.6994   25488820.3914
     -3563.4224
   4964006.21947   4033317.98347  24182058.1764   24182063.8364
     -2950.5314
  -2994643.80546    -72025.82246  25758992.3874   25758998.4104
      -101.7194
 01  8 19 19 41  0.0120000  0  7G20G31G14G25G21G29G11
   -309425.45442     -6807.99753  28434185.4734   28434195.1564
       728.3754
  26286239.99843  18916984.60145  28312100.2774   28312111.7664
     -4727.5164
  14801008.30547  11596616.76546  24844430.5274   24844436.1174
     -4018.7814
  -4085256.92148  -3123319.13146  25002128.8554   25002134.8204
      -105.4224
  23539548.41746  18345090.59946  25509183.0984   25509189.5194
     -3572.4534
   5052661.00047   4102399.61647  24198928.6604   24198934.3554
     -2959.6564
  -2991366.43446    -69471.98546  25759615.5904   25759621.4024
      -116.6254
 01  8 19 19 41 30.0120000  0  7G20G31G14G25G21G29G11
   -331296.42743    -23850.15243  28430023.4574   28430038.0274
       729.6564
  26428094.47243  19027520.33345  28339094.7074   28339107.6954
     -4729.4224
  14921682.23947  11690648.36146  24867393.5664   24867398.9924
     -4026.1254
  -4081877.28248  -3120685.60646  25002771.9574   25002777.9224
      -119.8914
  23646855.49846  18428706.43646  25529603.6444   25529609.7034
     -3581.3594
   5141585.08247   4171691.08747  24215850.2154   24215855.9924
     -2968.6094
  -2987644.41846    -66571.69746  25760324.2624   25760330.1804
      -131.5164
 01  8 19 19 42  0.0120000  0  7G20G31G14G25G21G29G11
   -353209.91343                  28425853.3634
       731.2034
  26570000.63844  19138096.31045  28366099.2934   28366110.6764
     -4731.0314
  15042571.04247  11784847.39046  24890398.0124   24890403.4614
     -4033.1414
  -4078066.47148  -3117716.10146  25003497.2544   25003503.2894
      -134.1724
  23754426.06446  18512527.59846  25550073.2624   25550079.7664
     -3590.0314
   5230773.22147   4241188.32047  24232822.1844   24232827.8794
     -2977.2664
  -2983479.45346    -63326.25046  25761117.2774   25761123.3834
      -146.1874
 01  8 19 19 42 30.0120000  0  7G20G31G14G25G21G29G11
   -375166.10142                  28421674.9344
       732.5314
  26711954.90744  19248709.77845  28393112.7854   28393121.8714
     -4732.6094
  15163672.47047  11879212.10146  24913443.2234   24913448.5554
     -4040.2814
  -4073823.40848  -3114409.76846  25004304.6134   25004310.7074
      -148.6874
  23862259.83446  18596553.85746  25570593.5274   25570600.0554
     -3598.8754
   5320223.07947   4310889.49047  24249844.1444   24249849.9104
     -2986.0624
  -2978870.39447    -59734.74846  25761994.0044   25762000.1334
      -161.0944
 01  8 19 19 43  0.0120000  0  7G20G31G14G25G21G29G11
   -397158.29243                  28417490.2854
       733.6884
  26853960.44845  19359363.19845  28420135.9414   28420149.6094
     -4734.3124
  15284991.02147  11973746.00346  24936529.2624   24936534.5474
     -4047.5314
  -4069140.61848  -3110760.79946  25005195.8164   25005201.8404
      -163.4224
  23970363.46346  18680790.39346  25591164.8714   25591170.9064
     -3607.9374
   5409939.81347   4380798.62147  24266916.7464   24266922.5124
     -2994.9694
  -2973809.04847    -55790.81146  25762957.0514   25762963.1334
      -176.2504
 01  8 19 19 43 30.0120000  0  7G20G31G14G25G21G29G11
   -419185.32042                  28413298.2544
       734.7974
  26996014.53344  19470054.48945  28447168.2854   28447181.5904
     -4735.9224
  15406524.99047  12068447.76146  24959656.6764   24959662.1134
     -4054.7194
  -4064015.69948  -3106767.30946  25006170.8404   25006176.7694
      -178.2344
  24078738.12046  18765238.12346  25611787.9574   25611794.2264
     -3617.0164
   5499921.81747   4450914.45147  24284039.5194   24284045.1684
     -3003.8444
  -2968293.06347    -51492.61446  25764006.2544   25764012.3944
      -191.4844
 01  8 19 19 44  0.0120000  0  7G20G31G14G25G21G29G11
   -441244.04242                  28409101.1374
       735.8444
  27138117.14245  19580783.47845  28474210.1294   28474220.0704
     -4737.5004
  15528275.48147  12163318.23946  24982824.9344   24982830.1604
     -4061.9224
  -4058443.94448  -3102425.64246  25007231.2624   25007237.2384
      -193.1724
  24187386.37046  18849899.05046  25632463.0434   25632469.1484
     -3626.1564
   5590170.77747   4521238.30347  24301213.3484   24301219.2544
     -3012.7194
  -2962317.65946    -46836.42746  25765143.7694   25765149.6524
      -206.8444
 01  8 19 19 44 30.0120000  0  7G20G31G14G25G21G29G11
   -463337.70841                  28404896.5984
       736.8914
  27280261.53344  19691545.14545  28501258.2384   28501271.7304
     -4738.9534
  15650236.93247  12258353.10446  25006033.3714   25006038.5514
     -4069.0164
  -4052427.63748  -3097737.56746  25008376.0514   25008381.9694
      -208.1094
  24296305.51446  18934771.06446  25653189.0354   25653195.0234
     -3635.2974
   5680681.46247   4591766.09447  24318436.8014   24318442.6014
     -3021.5004
  -2955884.57246    -41823.59646  25766367.5904   25766373.5554
      -222.2344
 01  8 19 19 45  0.0120000  0  7G20G31G14G25G21G29G11
     -3690.33751                  28400685.5194
       738.2974
  27422445.22044  19802337.42845  28528315.3244   28528326.2384
     -4739.9534
  15772408.00247  12353551.30146  25029282.0044   25029287.1374
     -4075.7034
  -4045964.57548  -3092701.37546  25009605.7694   25009611.7584
      -222.7504
  24405496.12746  19019854.58846  25673968.3634   25673974.5864
     -3644.0784
   5771452.52147   4662496.77847  24335710.0744   24335715.8514
     -3029.8914
  -2948991.24847    -36452.14346  25767679.7774   25767685.5084
      -237.3284
 01  8 19 19 45 30.0120000  0  7G20G31G14G25G21G29G11
    -25850.72941                  28396469.0824
       739.1724
  27564665.90144  19913158.47645  28555379.9884   28555391.3124
     -4741.3444
  15894787.64047  12448912.02546  25052569.9344   25052575.3944
     -4082.8594
  -4039052.36648  -3087315.19446  25010921.1844   25010927.0434
      -237.9844
  24514960.01746  19105151.07546  25694798.2154   25694804.2384
     -3653.4374
   5862483.50847   4733430.00547  24353032.7624   24353038.6334
     -3038.7504
  -2941635.09346    -30720.04146  25769079.3554   25769085.2734
      -253.0004
 01  8 19 19 46  0.0120000  0  7G20G31G14G25G21G29G11
    -48036.85041                  28392245.0044
       740.1094
  27706927.23043  20024011.25945  28582451.4184   28582465.0044
     -4742.4844
  16017380.64847  12544439.00346  25075898.5744   25075904.1294
     -4089.7664
  -4031682.84848  -3081572.67346  25012323.5274   25012329.4454
      -253.0944
  24624703.76146  19190665.62746  25715681.9184   25715688.3054
     -3662.5784
   5953779.55647   4804569.76747  24370405.9024   24370411.5984
     -3047.4064
  -2933807.74846    -24620.77746  25770568.6214   25770574.5044
      -268.5784
 01  8 19 19 46 30.0120000  0  7G20G31G14G25G21G29G11
     -3703.90051                  28388018.0824
       740.7814
  27849223.42843  20134891.03445  28609528.4964   28609542.3754
     -4743.8914
  16140182.33747  12640128.59446  25099267.0514   25099272.5704
     -4096.9844
  -4023857.20548  -3075474.72847  25013812.6914   25013818.6564
      -268.6254
  24734724.72946  19276396.20146  25736618.3634   25736624.5164
     -3672.1414
   6045336.27647   4875912.65547  24387828.5594   24387834.3484
     -3056.3594
  -2925510.22047    -18155.14046  25772148.0664   25772154.0314
      -284.5944
 01  8 19 19 47  0.0120000  0  7G20G31G14G25G21G29G11
     -8158.24951                  28383786.1844
       742.6564
  27991553.52543  20245797.42245  28636613.5124   28636627.3674
     -4744.6874
  16263193.11147  12735981.11046  25122675.0274   25122680.7114
     -4103.6724
  -4015571.43548  -3069018.24346  25015389.3634   25015395.1764
      -283.7194
  24845025.83346  19362345.03946  25757607.8554   25757614.2424
     -3681.2034
   6137154.36447   4947459.20447  24405300.9574   24405306.7344
     -3064.7814
  -2916738.19447    -11319.77046  25773817.2544   25773822.9374
      -300.1724
 01  8 19 19 47 30.0120000  0  7G20G31G14G25G21G29G11
    -17076.65851                  28379548.8944
       742.8594
  28133908.14043  20356722.73745  28663703.1604   28663717.4734
     -4745.5004
  16386405.06847  12831990.39346  25146121.7774   25146127.2384
     -4110.3754
  -4006830.60848  -3062207.16847  25017052.7464   25017058.6644
      -298.9374
  24955600.94446  19448507.40946  25778649.7464   25778656.1094
     -3690.3914
   6229226.00547   5019203.32247  24422821.5984   24422827.3634
     -3073.2344
  -2907496.39047     -4118.33246  25775575.7624   25775581.7624
      -315.8914
 01  8 19 19 48  0.0120000  0  7G20G31G14G25G21G29G11
    -39373.80542                  28375306.2544
       743.5634
  28276287.89843  20467667.83445  28690797.5984   28690814.7344
     -4746.5004
  16509819.91447  12928157.76246  25169606.7854   25169612.3874
     -4117.3124
  -3997629.62648  -3055037.53447  25018803.6294   25018809.5824
      -314.5164
  25066453.84146  19534886.23046  25799744.3094   25799750.9064
     -3699.8594
   6321553.18147   5091146.56047  24440390.8404   24440396.5124
     -3081.9374
  -2897779.30247      3453.44546  25777424.4964   25777430.5084
      -331.9694
 01  8 19 19 48 30.0120000  0  7G20G31G14G25G21G29G11
    -61693.24942                  28371058.8244
       744.4694
  28418694.08443  20578633.33645  28717895.9104   28717909.3204
     -4747.1724
  16633439.86847  13024484.95546  25193131.0274   25193136.5124
     -4123.9534
  -3987962.57548  -3047504.72447  25020642.9884   25020648.8594
      -329.9064
  25177589.41046  19621485.30446  25820891.9734   25820898.4304
     -3709.1254
   6414138.46747   5163290.92647  24458009.3324   24458014.8754
     -3090.3594
  -2887581.22047     11400.02746  25779365.4264   25779371.0864
      -347.8594
 01  8 19 19 49  0.0120000  0  7G20G31G14G25G21G29G11
    -84036.60841                  28366804.5194
       745.3594
  28561121.51243  20689615.53745  28744999.2694   28745013.5824
     -4747.7194
  16757261.17747  13120969.05446  25216693.0984   25216698.1374
     -4130.5314
  -3977830.08748  -3039609.23547  25022571.1844   25022576.9494
      -345.3284
  25289005.79346  19708303.21446  25842094.9414   25842101.3284
     -3718.3754
   6506978.53747   5235633.81947  24475676.1844   24475681.8204
     -3098.7194
  -2876902.10047     19721.45346  25781397.7854   25781403.7734
      -363.8124
 01  8 19 19 49 30.0130000  0  7G20G31G14G25G21G29G11
    -17151.56551                  28362550.2744
       745.8284
  28703570.50843  20800614.46645  28772106.7434   28772119.9774
     -4748.5624
  16881284.52647  13217610.58346  25240294.1344   25240299.5954
     -4137.4224
  -3967231.96848  -3031350.92247  25024588.1024   25024594.0564
      -361.2034
  25400705.35746  19795341.75646  25863350.7044   25863357.4314
     -3728.0314
   6600073.28847   5308175.16447  24493391.5404   24493397.2474
     -3107.4064
  -2865741.42547     28418.10546  25783521.5794   25783527.5674
      -380.2344
 01  8 19 19 50  0.0130000  0  7G20G31G14G25G21G29G11
    -39542.30242     -1163.26455  28358288.3684   28358302.2004
       746.7194
  28846030.21642  20911621.75845  28799216.4234   28799228.6614
     -4748.8914
  17005501.70147  13314403.14846  25263932.0174   25263937.3844
     -4143.8754
  -3956165.53948  -3022727.68447  25026693.5794   25026699.5914
      -376.7194
  25512683.33246  19882597.25246  25884659.5564   25884666.3524
     -3737.3124
   6693416.77247   5380910.33447  24511154.1654   24511159.8374
     -3115.6414
  -2854096.41147     37492.17246  25785737.1494   25785743.3254
      -396.2814
 01  8 19 19 50 30.0130000  0  7G20G31G14G25G21G29G11
    -61952.27642                  28354024.7274
       747.3134
  28988505.10843  21022640.89645  28826328.5094   28826344.4274
     -4749.3914
  17129917.77447  13411350.69746  25287607.3924   25287612.5134
     -4150.5004
  -3944626.39148  -3013736.10147  25028889.5484   25028895.5364
      -392.5314
  25624945.88446  19970074.50646  25906021.3764   25906027.3524
     -3746.8284
   6787013.19747   5453842.59947  24528965.1024   24528970.7394
     -3124.0784
  -2841962.33247     46947.32946  25788046.2204   25788052.0674
      -412.6414
 01  8 19 19 51  0.0130000  0  7G20G31G14G25G21G29G11
    -84382.64242                  28349757.0244
       748.0944
  29130990.62543  21133668.28345  28853443.9624   28853454.9704
     -4749.5624
  17254529.34747  13508450.58946  25311320.3064   25311325.9194
     -4156.8594
  -3932614.87848  -3004376.44047  25031175.4774   25031181.3724
      -408.1724
  25737491.73646  20057772.49646  25927438.5874   25927444.7984
     -3756.1564
   6880859.60447   5526969.64447  24546823.5404   24546829.3294
     -3132.2664
  -2829339.07347     56783.66046  25790448.5014   25790454.4544
      -428.8444
 01  8 19 19 51 30.0130000  0  7G20G31G14G25G21G29G11
   -106830.06742                  28345484.7434
       748.4064
  29273486.49442  21244703.72245  28880559.5634   28880568.0874
     -4750.1094
  17379337.33747  13605703.53146  25335070.5324   25335075.6304
     -4163.6414
  -3920126.77148  -2994645.39847  25033551.5484   25033557.5014
      -424.3444
  25850324.12546  20145693.75946  25948910.0874   25948916.7314
     -3765.9694
   6974957.13847   5600292.38147  24564729.4314   24564735.0444
     -3140.8754
  -2816222.25047     67004.58646  25792944.1264   25792950.1734
      -445.5784
 01  8 19 19 52  0.0130000  0  7G20G31G14G25G21G29G11
   -129291.76743    -11086.62055  28341209.9704   28341218.6814
       749.1254
  29415991.84943  21355746.55545  28907676.5404   28907687.5134
     -4750.1414
  17504342.16047  13703109.85246  25358858.3844   25358863.8454
     -4169.9224
  -3907158.76748  -2984540.41947  25036019.4154   25036025.3924
      -440.1254
  25963445.22846  20233840.01246  25970436.1424   25970442.3174
     -3775.3594
   7069306.55847   5673811.38847  24582683.7594   24582689.4774
     -3149.0004
  -2802607.82247     77613.25346  25795535.1024   25795541.1494
      -461.9694
 01  8 19 19 52 30.0130000  0  7G20G31G14G25G21G29G11
   -151766.33043    -28599.23945  28336934.0484   28336944.2704
       749.3134
  29558504.57043  21466795.28745  28934797.2044   28934814.6924
     -4750.5784
  17629542.86247  13800668.79546  25382683.3994   25382688.7204
     -4176.6724
  -3893708.46648  -2974059.62047  25038578.7674   25038584.6964
      -456.4844
  26076856.45046  20322212.31746  25992017.5954   25992024.5834
     -3785.2974
   7163906.90947   5747525.92747  24600685.5874   24600691.2704
     -3157.5944
  -2788493.50847     88611.44646  25798221.3924   25798227.2984
      -478.9064
 01  8 19 19 53  0.0130000  0  7G20G31G14G25G21G29G11
   -174252.83143    -46121.19145  28332654.3374   28332661.9934
       749.6414
  29701022.32743  21577847.73545  28961917.1104   28961928.4464
     -4750.7194
  17754938.11947  13898379.34546  25406544.9314   25406550.4624
     -4183.1564
  -3879773.68248  -2963201.30447  25041230.4074   25041236.2904
      -472.6564
  26190558.63846  20410811.35446  26013654.5174   26013660.8924
     -3795.0164
   7258757.42947   5821435.40947  24618734.9934   24618740.6304
     -3165.9224
  -2773877.11347    100000.87346  25801002.1884   25801008.2244
      -495.6874
 01  8 19 19 53 30.0130000  0  7G20G31G14G25G21G29G11
   -196750.65943    -63651.84945  28328373.0564   28328380.1494
       750.1094
  29843541.96543  21688901.72245  28989037.7044   28989052.7554
     -4750.6414
  17880526.15947  13996240.11446  25430443.5484   25430449.2784
     -4189.4534
  -3865353.61848  -2951964.84647  25043974.4464   25043980.3524
      -488.7664
  26304552.25046  20499637.45446  26035347.4704   26035353.9384
     -3804.6414
   7353856.44247   5895538.51647  24636831.9074   24636837.5564
     -3174.0624
  -2758756.97547    111782.83746  25803879.8134   25803885.8494
      -512.4064
 01  8 19 19 54  0.0130000  0  7G20G31G14G25G21G29G11
   -219257.88944    -81189.88645  28324091.4074   28324101.9464
       750.3284
  29986061.75043  21799955.86945  29016159.5954   29016175.3724
     -4750.6724
  18006306.51047  14094250.74346  25454378.9234   25454384.5484
     -4195.9224
  -3850445.68148  -2940348.22347  25046811.3524   25046817.3174
      -505.1254
  26418838.37646  20588691.51846  26057095.4544   26057102.2514
     -3814.4534
   7449203.82047   5969835.15547  24654975.8524   24654981.4664
     -3182.4064
  -2743130.28247    123959.52346  25806853.5014   25806859.5834
      -529.3914
 01  8 19 19 54 30.0130000  0  7G20G31G14G25G21G29G11
   -241770.67643    -98732.26945  28319805.6184   28319814.0834
       750.6564
  30128581.75343  21911010.21645  29043279.4624   29043295.5094
     -4750.5004
  18132280.47247  14192412.23446  25478351.1734   25478356.6454
     -4202.2194
  -3835045.34948  -2928347.92347  25049741.8294   25049747.7244
      -521.4534
  26533420.06146  20677975.86546  26078900.3064   26078907.3174
     -3824.2034
   7544800.98947   6044326.43047  24673167.5244   24673173.2554
     -3190.5784
  -2726992.40347    136534.52346  25809924.0954   25809930.1184
      -546.3444
 01  8 19 19 55  0.0130000  0  7G20G31G14G25G21G29G11
   -264285.77243   -116276.40345  28315521.6654   28315529.1104
       750.5784
  30271102.18643  22022064.79045  29070400.5794   29070413.9314
     -4750.5944
  18258449.49847  14290725.72546  25502360.3454   25502365.8524
     -4208.8124
  -3819148.17048  -2915960.46547  25052767.1184   25052772.8494
      -538.1414
  26648301.13246  20767493.50446  26100761.0794   26100767.4074
     -3834.3124
   7640649.64547   6119013.67447  24691406.9234   24691412.4664
     -3199.0624
  -2710338.62947    149511.53046  25813093.5094   25813099.3214
      -563.6874
 01  8 19 19 55 30.0130000  0  7G20G31G14G25G21G29G11
   -286799.74844   -133819.65445  28311237.8684   28311245.8994
       750.5944
  30413622.62943  22133119.42145  29097522.8924   29097538.0834
     -4750.4844
  18384814.22347  14389191.70546  25526406.8994   25526412.2784
     -4215.2504
  -3802750.67148  -2903183.15547  25055887.1884   25055893.1884
      -554.7974
  26763484.29646  20857246.54046  26122679.4704   26122686.1614
     -3844.3444
   7736750.62847   6193897.53847  24709694.3524   24709700.1534
     -3207.4064
  -2693164.92147    162893.67346  25816361.4154   25816367.3334
      -580.9844
 01  8 19 19 56  0.0130000  0  7G20G31G14G25G21G29G11
   -309315.40243   -151364.28045  28306951.7274   28306958.0914
       750.5314
  30556136.75444  22244169.12645  29124641.9314   29124655.8564
     -4750.3594
  18511369.61747  14487806.26146  25550489.5484   25550495.0564
     -4221.7034
  -3785854.61448  -2890017.35547  25059102.4384   25059108.2744
      -571.5624
  26878966.50546  20947232.60946  26144654.9464   26144661.5564
     -3854.4224
   7833099.18847   6268974.31547  24728028.7674   24728034.4974
     -3215.7664
  -2675472.94247    176679.65846  25819728.0324   25819733.6454
      -598.4064
 01  8 19 19 56 30.0130000  0  7G20G31G14G25G21G29G11
   -331831.06744   -168908.82345  28302666.7674   28302672.8134
       750.5474
  30698642.75544  22355212.54545  29151759.4854   29151773.4344
     -4749.9694
  18638114.97247  14586568.83446  25574608.3684   25574613.5484
     -4227.9224
  -3768457.99548  -2876461.50447  25062412.9384   25062418.8804
      -588.1874
  26994748.60746  21037452.35146  26166688.2904   26166694.5954
     -3864.3444
   7929694.93247   6344243.70647  24746410.4464   24746415.9774
     -3223.9224
  -2657260.06547    190871.54346  25823193.8684   25823199.8334
      -615.7344
 01  8 19 19 57  0.0130000  0  7G20G31G14G25G21G29G11
   -354341.08745   -186449.03545  28298384.8924   28298392.7704
       750.0784
  30841142.71144  22466251.18445  29178877.0094   29178892.7514
     -4750.0474
  18765053.44647  14685481.88746  25598763.7594   25598769.1844
     -4234.6414
  -3750554.78648  -2862510.91147  25065819.8764   25065825.6184
      -605.3914
  27110835.67346  21127909.74346  26188778.8844   26188785.2944
     -3874.8124
   8026541.19147   6419708.29447  24764839.6184   24764845.2314
     -3232.5314
  -2638520.10347    205474.12346  25826759.9384   25826765.8454
      -633.6254
 01  8 19 19 57 30.0130000  0  7G20G31G14G25G21G29G11
   -376841.14543   -203981.43345  28294102.4774   28294112.4074
       749.8444
  30983637.38543  22577285.76545  29205992.6184   29206007.5994
     -4749.7034
  18892187.21647  14784547.12546  25622956.7594   25622962.1384
     -4241.0314
  -3732139.92348  -2848161.62647  25069323.9384   25069329.7274
      -622.3914
  27227231.81446  21218607.96346  26210926.8454   26210933.5244
     -3885.0314
   8123640.42447   6495370.00847  24783317.3684   24783322.9934
     -3240.8444
  -2619247.54747    220491.72746  25830427.0874   25830432.9934
      -651.3124
 01  8 19 19 58  0.0130000  0  7G20G31G14G25G21G29G11
   -399331.89143   -221506.64245  28289822.8134   28289830.1654
       749.4224
  31126122.62942  22688312.98944  29233107.3294   29233126.3764
     -4749.4064
  19019513.36947  14883762.26846  25647186.3604   25647192.0914
     -4247.5004
  -3713213.34748  -2833413.60547  25072925.5244   25072931.4194
      -639.5474
  27343936.00246  21309546.22046  26233136.2984   26233142.9194
     -3895.3914
   8220989.62147   6571226.49747  24801841.8454   24801847.3994
     -3249.2504
  -2599442.20547    235924.47746  25834195.8214   25834201.5054
      -669.1874
 01  8 19 19 58 30.0130000  0  7G20G31G14G25G21G29G11
   -421806.42044   -239019.17445  28285545.9074   28285553.2354
       748.8284
  31268601.50942  22799335.22244  29260220.2274   29260235.4894
     -4749.2194
  19147036.13247  14983130.60746  25671453.0404   25671458.4314
     -4254.0784
  -3693768.05948  -2818261.39147  25076625.8064   25076631.6654
      -656.8914
  27460954.51246  21400729.40146  26255403.6184   26255409.8764
     -3905.9064
   8318593.39147   6647281.36547  24820415.2044   24820420.6184
     -3257.7344
  -2579096.71247    251778.13346  25838067.7124   25838073.7354
      -687.2504
 01  8 19 19 59  0.0130000  0  7G20G31G14G25G21G29G11
   -444269.01144   -256522.32545  28281271.9934   28281277.8994
       748.5474
  31411066.42141                  29287330.1814
     -4748.5314
  19274749.25847  15082647.28646  25695756.0714   25695761.6384
     -4260.2504
  -3673807.73648  -2802707.85747  25080423.9854   25080429.8684
      -673.9374
  27578282.87546  21492154.02446  26277730.6884   26277737.2394
     -3916.1094
   8416445.77147   6723529.94947  24839036.2594   24839041.8604
     -3265.8754
  -2558214.12547    268050.28046  25842041.7124   25842047.5014
      -705.0474
 01  8 19 19 59 30.0130000  0  7G20G31G14G25G21G29G11
   -466716.69044   -274013.98645  28277000.0874   28277007.2864
       748.0314
                                  29314438.2824
     -4747.5474
  19402653.08547  15182312.56146  25720095.6264   25720100.9344
     -4266.5784
  -3653328.92648  -2786750.30547  25084321.2744   25084326.9464
      -691.2344
  27695923.57946  21583822.02846  26300117.7984   26300123.9974
     -3926.5314
   8514547.33247   6799972.70947  24857704.1964   24857709.7514
     -3274.1564
  -2536790.88447    284743.73746  25846118.1494   25846123.9504
      -723.1094
 01  8 19 20  0  0.0130000  0  6G20G14G25G21G29G11
   -489148.00245   -291492.83245  28272731.7434   28272739.2004
       747.3444
  19530746.91747  15282125.90046  25744470.7434   25744476.0054
     -4273.0314
  -3632329.95848  -2770387.43247  25088316.9934   25088322.9344
      -708.7344
  27813877.50446  21675734.13346  26322562.5484   26322569.0524
     -3937.1094
   8612897.37047   6876609.08046  24876419.5094   24876425.2394
     -3282.5474
  -2514824.78847    301860.18946  25850298.3294   25850304.3174
      -741.3444
 01  8 19 20  0 30.0130000  0  6G20G14G25G21G29G11
   -511563.23045   -308959.15645  28268465.9854   28268474.8494
       746.7974
  19659027.85847  15382085.03746  25768882.0324   25768887.5754
     -4279.2194
  -3610810.69448  -2753619.13547  25092411.9234   25092417.6534
      -726.0944
  27932143.71546  21767889.52946  26345068.5324   26345075.3294
     -3947.5164
   8711493.12547   6953436.92346  24895181.7984   24895187.3294
     -3290.7034
  -2492315.62647    319399.80846  25854581.6264   25854587.4744
      -759.4844
 01  8 19 20  1  0.0130000  0  6G20G14G25G21G29G11
   -533956.33645   -326408.32245  28264204.9624   28264212.5134
       746.0314
  19787499.55647  15482192.81646  25793329.0014   25793334.6734
     -4285.6094
  -3588764.81348  -2736440.48047  25096607.1884   25096613.0134
      -743.7034
  28050727.75546  21860292.62246  26367634.6264   26367640.7084
     -3958.1564
   8810338.86247   7030459.55347  24913991.3294   24913996.8724
     -3299.0474
  -2469256.50947    337367.96546  25858969.5244   25858975.3724
      -777.8594
 01  8 19 20  1 30.0130000  0  6G20G14G25G21G29G11
   -556325.64144   -343838.81945  28259947.7274   28259956.6734
       745.1254
  19916161.45947  15582448.80846  25817812.8064   25817818.6064
     -4292.0004
  -3566190.29048  -2718849.90447  25100902.9074   25100908.8134
      -761.4374
  28169630.66846  21952944.16646  26390260.0404   26390267.0054
     -3968.8594
   8909433.84247   7107676.40447  24932848.6184   24932854.0094
     -3307.4064
  -2445645.26247    355766.35146  25863462.8064   25863468.8414
      -796.3754
 01  8 19 20  2  0.0140000  0  6G20G14G25G21G29G11
   -578672.16144   -361251.63545  28255694.9824   28255702.4284
       744.4384
  20045015.06047  15682854.16746  25842332.6784   25842338.1394
     -4298.1254
  -3543086.25548  -2700846.71747  25105299.5764   25105305.3184
      -778.9694
  28288855.13446  22045846.27946  26412949.1784   26412956.2484
     -3979.3594
   9008779.06347   7185088.25446  24951753.4904   24951759.2214
     -3315.5314
  -2421480.63347    374595.95446  25868061.1854   25868067.1504
      -814.7344
 01  8 19 20  2 30.0140000  0  6G20G14G25G21G29G11
   -600986.43443   -378639.27845  28251448.2324   28251459.0884
       743.2974
  20174057.31347  15783406.53146  25866888.7484   25866894.2324
     -4304.6094
  -3519446.20748  -2682425.85847  25109797.8964   25109803.7674
      -796.9694
  28408401.17046  22138998.96246  26435697.0684   26435704.5254
     -3990.2974
   9108373.48647   7262694.28146  24970705.7564   24970711.4514
     -3324.0164
  -2396755.73047    393862.11846  25872766.0764   25872771.8424
      -833.5314
 01  8 19 20  3  0.0140000  0  6G20G14G25G21G29G11
   -623267.62545   -396001.13345  28247208.7174   28247216.2094
       742.2034
  20303292.06047  15884108.88746  25891481.3424   25891487.0254
     -4310.9694
  -3495267.48048  -2663585.25847  25114399.1314   25114404.8854
      -814.8914
  28528273.51146  22232405.91546  26458507.6464   26458514.1854
     -4001.1254
   9208220.05447   7340496.78846  24989705.8654   24989711.6784
     -3332.3444
  -2371467.58347    413567.17846  25877578.2874   25877584.2524
      -852.2974
 01  8 19 20  3 30.0140000  0  6G20G14G25G21G29G11
   -645525.30144   -413344.70445  28242972.3894   28242979.5764
       741.3754
  20432707.02847  15984951.67746  25916108.2094   25916113.9514
     -4316.9694
  -3470559.50348  -2644332.25147  25119100.7254   25119106.5254
      -832.5784
  28648462.05846  22326059.25346  26481378.9124   26481385.4284
     -4011.7034
   9308306.84547   7418486.48046  25008751.8964   25008757.6744
     -3340.3594
  -2345624.99847    433704.26946  25882495.9354   25882501.8184
      -870.8124
 01  8 19 20  4  0.0140000  0  6G20G14G25G21G29G11
   -667753.68545   -430665.42045  28238743.8034   28238751.6464
       740.5004
  20562305.81347  16085937.70146  25940770.2564   25940776.0334
     -4322.9534
  -3445316.19348  -2624662.09747  25123904.2324   25123910.1504
      -850.3124
  28768971.79146  22419962.88446  26504311.3654   26504318.0924
     -4022.2814
   9408637.38947   7496666.11546  25027844.1624   25027849.9754
     -3348.3594
  -2319221.88647    454278.14846  25887520.3654   25887526.1074
      -889.4064
 01  8 19 20  4 30.0140000  0  6G20G14G25G21G29G11
   -689952.87944   -447963.43545  28234518.1854   28234526.7444
       739.5004
  20692085.83147  16187064.95346  25965466.6544   25965472.2914
     -4329.0004
  -3419537.75648  -2604574.96547  25128809.8734   25128815.8854
      -868.2034
  28889801.57046  22514115.88646  26527304.9754   26527312.4084
     -4032.9844
   9509209.58047   7575034.03646  25046982.3264   25046987.9394
     -3356.4064
  -2292257.94147    475289.02446  25892651.1544   25892657.1784
      -908.1414
 01  8 19 20  5  0.0140000  0  6G20G14G25G21G29G11
   -712120.68244   -465236.93445  28230300.1784   28230307.9864
       738.3284
  20822047.24847  16288333.54246  25990197.2564   25990202.9164
     -4335.1254
  -3393221.44648  -2584068.71047  25133817.5214   25133823.4634
      -886.2664
  29010953.56646  22608519.96046  26550360.0924   26550367.4674
     -4043.8444
   9610023.25147   7653590.12646  25066166.4124   25066172.0604
     -3364.5474
  -2264730.28047    496739.16846  25897889.4594   25897895.3184
      -927.0784
 01  8 19 20  5 30.0140000  0  6G20G14G25G21G29G11
   -734258.65244   -482487.19445  28226086.9124   28226092.7954
       737.3914
  20952185.69847  16389740.08546  26014961.8264   26014967.4754
     -4340.9064
  -3366369.01448  -2563144.70247  25138927.5684   25138933.3694
      -904.0474
  29132425.28446  22703173.18346  26573475.0924   26573481.6894
     -4054.4224
   9711074.63047   7732331.44846  25085395.8964   25085401.3224
     -3372.3594
  -2236640.19347    518627.55146  25903234.8814   25903240.9634
      -945.7504
 01  8 19 20  6  0.0140000  0  6G20G14G25G21G29G11
   -756361.13645   -499709.84145  28221881.2094   28221889.2054
       736.0944
  21082504.46147  16491287.11746  26039760.8424   26039766.3264
     -4347.0164
  -3338975.00648  -2541798.68847  25144140.2014   25144145.8854
      -922.2194
  29254221.58646  22798079.32146  26596652.1934   26596658.9084
     -4065.3124
   9812367.05647   7811260.58746  25104671.2324   25104676.8924
     -3380.4694
  -2207981.67447    540958.88746  25908688.3504   25908694.3964
      -964.8124
 01  8 19 20  6 30.0140000  0  6G20G14G25G21G29G11
   -778429.56044   -516905.93745  28217681.9044   28217691.3424
       734.9534
  21212999.80347  16592971.76246  26064593.5534   26064599.1074
     -4352.8594
  -3311040.58148  -2520031.57047  25149456.1004   25149461.8184
      -940.2504
  29376340.31646  22893236.70146  26619890.5844   26619898.1464
     -4076.1094
   9913897.01947   7890374.82046  25123991.7094   25123997.6154
     -3388.3594
  -2178755.76647    563732.32846  25914249.9824   25914256.0294
      -983.7504
 01  8 19 20  7  0.0140000  0  6G20G14G25G21G29G11
   -800465.21145   -534076.46245  28213488.6314   28213495.6074
       734.0314
  21343668.19547  16694791.23946  26089458.2794   26089463.9044
     -4358.4224
  -3282567.10848  -2497844.41547  25154874.2714   25154879.9084
      -958.0474
  29498779.60646  22988643.87046  26643190.0534   26643197.5454
     -4086.5784
  10015660.99047   7969671.40046  25143357.0604   25143363.0024
     -3395.9694
  -2148963.13147    586947.38646  25919919.3654   25919925.2484
     -1002.4844
 01  8 19 20  7 30.0140000  0  6G20G14G25G21G29G11
   -822468.12345   -551221.49545  28209301.4434   28209309.9204
       732.7194
  21474507.04647  16796743.55246  26114356.2014   26114361.8964
     -4364.2664
  -3253554.66948  -2475237.29247  25160395.3034   25160401.0574
      -976.2194
  29621538.29846  23084299.90846  26666550.4434   26666557.7604
     -4097.4224
  10117656.57047   8049148.45446  25162765.9354   25162771.7834
     -3403.8594
  -2118603.81247    610604.00746  25925696.6624   25925702.3924
     -1021.5784
 01  8 19 20  8  0.0140000  0  6G20G14G25G21G29G11
   -844429.91745   -568334.51245  28205122.5294   28205129.8694
       731.2194
  21605522.38347  16898833.37346  26139287.7174   26139293.3654
     -4370.2344
  -3223995.08148  -2452203.81347  25166020.1544   25166026.0024
      -994.5784
  29744624.04446  23180210.80546  26689972.2794   26689978.7254
     -4108.4534
  10219890.03647   8128810.86646  25182220.3504   25182226.1274
     -3411.8594
  -2087669.13047    634708.96146  25931583.0924   25931589.0334
     -1040.8914
 01  8 19 20  8 30.0140000  0  6G20G14G25G21G29G11
   -866348.66245   -585413.90945  28200951.7324   28200958.3894
       729.8754
  21736713.72247  17001060.34546  26164252.6234   26164258.5414
     -4375.9844
  -3193886.44048  -2428742.50447  25171749.5924   25171755.4514
     -1012.7974
  29868037.87846  23276377.34046  26713458.5294   26713465.9864
     -4119.2814
  10322360.90547   8208658.26546  25201720.0294   25201725.6784
     -3419.6564
  -2056156.76447    659264.05846  25937579.5144   25937585.5724
     -1060.0784
 01  8 19 20  9  0.0140000  0  6G20G14G25G21G29G11
   -888224.27245   -602459.76445  28196788.1394   28196796.7564
       728.3134
  21868078.74647  17103422.64946  26189250.4674   26189256.2674
     -4381.8754
  -3163228.87248  -2404853.45047  25177583.7324   25177589.4754
     -1031.2344
  29991779.20846  23372799.08446  26737005.2714   26737011.9984
     -4130.3124
  10425067.18347   8288689.11046  25221264.5604   25221270.3264
     -3427.5944
  -2024066.51847    684269.46246  25943686.2954   25943692.2604
     -1079.4694
 01  8 19 20  9 30.0140000  0  6G20G14G25G21G29G11
   -910055.08745   -619470.67145  28192634.1464   28192641.7324
       727.0784
  21999616.83247  17205919.81546  26214281.6004   26214287.2604
     -4387.3284
  -3132020.77748  -2380535.42247  25183522.2404   25183527.8654
     -1049.3284
  30115848.87846  23469476.68246  26760614.9674   26760622.0144
     -4141.0004
  10528008.11047   8368902.79246  25240853.4204   25240859.1394
     -3435.1094
  -1991396.56347    709726.57246  25949903.2254   25949909.1314
     -1098.5314
 01  8 19 20 10  0.0140000  0  6G20G14G25G21G29G11
   -931838.48545   -636444.65945  28188488.2954   28188495.3774
       725.1094
  22131328.12547  17308551.94446  26239345.7094   26239351.4864
     -4393.4534
  -3100259.31348  -2355786.19447  25189566.0374   25189571.7914
     -1068.1414
  30240248.64446  23566411.48646  26784287.3034   26784294.2444
     -4152.3594
  10631184.24747   8449299.75546  25260487.3264   25260493.0804
     -3443.3124
  -1958143.79247    735637.82046  25956231.0604   25956236.8734
     -1118.3594
 01  8 19 20 10 30.0140000  0  6G20G14G25G21G29G11
   -953569.56945   -653377.81445  28184352.7874   28184359.7284
       723.4844
  22263215.10247  17411320.96946  26264443.1314   26264448.6854
     -4399.1564
  -3067940.53548  -2330602.69847  25195716.1544   25195721.7444
     -1086.6094
  30364982.35646  23663606.48646  26808024.0764   26808030.9474
     -4163.3754
  10734598.05647   8529881.91846  25280166.2484   25280171.8144
     -3451.1094
  -1924303.41647    762006.94646  25962670.7794   25962676.7324
     -1137.8444
 01  8 19 20 11  0.0140000  0  7G20G 1G14G25G21G29G11
   -975246.05745   -670268.53245  28180228.7324   28180235.6624
       721.6094
     -5268.26052                  29322628.4594
       477.8594
  22395277.67747  17514226.82646  26289573.2954   26289578.8614
     -4405.0314
  -3035062.22948  -2304983.20847  25201972.7954   25201978.5494
     -1105.3124
  30490051.51046  23761062.88546  26831822.7954   26831829.4044
     -4174.5944
  10838249.63847   8610649.36846  25299890.3574   25299895.9714
     -3459.0314
  -1889873.00347    788835.83546  25969222.2874   25969228.1234
     -1157.5624
 01  8 19 20 11 30.0140000  0  7G20G 1G14G25G21G29G11
   -996869.01844   -687117.45345  28176112.6704   28176120.5024
       719.6724
    -19517.05542                  29319916.6074
       471.7974
  22527512.39147  17617266.80446  26314737.9284   26314743.4944
     -4410.8594
  -3001625.24248  -2278928.38247  25208335.4824   25208341.1784
     -1124.0624
  30615454.11846  23858779.11446  26855686.6234   26855692.9044
     -4185.8444
  10942135.53847   8691599.40146  25319659.5454   25319665.3924
     -3466.9224
  -1854853.77647    816123.54546  25975886.3504   25975892.2324
     -1177.3124
 01  8 19 20 12  0.0140000  0  7G20G 1G14G25G21G29G11
  -1018433.58845   -703920.92245  28172010.4674   28172018.9554
       717.9224
    -33582.99241                  29317238.8184
       465.8914
  22659921.55047  17720442.72346  26339933.7714   26339939.8184
     -4416.4534
  -2967625.36748  -2252434.93947  25214805.4284   25214811.0644
     -1142.6254
  30741194.08046  23956758.22046  26879615.3344   26879621.7564
     -4196.8754
  11046258.30647   8772734.00946  25339473.2644   25339479.0174
     -3474.6094
  -1819240.75347    843873.94846  25982662.9824   25982668.7714
     -1196.9224
 01  8 19 20 12 30.0140000  0  7G20G 1G14G25G21G29G11
  -1039944.21445   -720682.34645  28167916.1624   28167922.1504
       716.0944
    -47471.16241                  29314598.3264
       459.9844
  22792498.69747  17823749.54046  26365162.6704   26365168.0604
     -4422.0314
  -2933067.26448  -2225506.51447  25221381.5604   25221387.1854
     -1161.2664
  30867266.21946  24054996.17246  26903604.5294   26903611.5884
     -4207.9534
  11150611.42647   8854048.11046  25359330.9044   25359336.6824
     -3482.2814
  -1783038.02847    872083.86546  25989552.3104   25989558.1584
     -1216.6094
 01  8 19 20 13  0.0140000  0  7G20G 1G14G25G21G29G11
  -1061395.26745   -737397.34345  28163834.7954   28163841.7014
       713.9844
    -61176.70641     -2479.42154  29311988.1934   29312005.4594
       453.7664
  22925246.78046  17927189.55946  26390423.1004   26390428.6784
     -4427.8284
  -2897945.67548  -2198139.01047  25228065.2014   25228070.7914
     -1180.1874
  30993674.97946  24153496.40546  26927659.8344   26927667.2444
     -4219.2814
  11255198.13247   8935544.22246  25379233.2254   25379239.0494
     -3490.1564
  -1746240.16147    900757.52846  25996555.0454   25996560.7644
     -1236.5944
 01  8 19 20 13 30.0150000  0  7G20G 1G14G25G21G29G11
  -1082781.87945   -754062.13145  28159763.6204   28159769.9364
       711.7814
    -74695.36441    -13013.21645  29309416.1124   29309431.9014
       447.5004
  23058173.32547  18030768.63346  26415718.8934   26415724.8354
     -4433.6094
  -2862254.51748  -2170327.69247  25234856.6284   25234862.4054
     -1199.1254
  31120428.73346  24252265.48546  26951780.3474   26951787.6754
     -4230.6564
  11360025.10347   9017227.55746  25399180.9954   25399186.7964
     -3498.0164
  -1708840.42547    929900.17946  26003671.6044   26003677.4174
     -1256.6254
 01  8 19 20 14  0.0150000  0  7G20G 1G14G25G21G29G11
  -1104100.65645   -770674.00045  28155708.0584   28155717.0974
       709.4534
                                  29306878.8544
       441.0944
  23191269.11547  18134479.58946  26441046.2144   26441051.9564
     -4439.4374
  -2825994.70648  -2142073.26347  25241756.8084   25241762.5034
     -1218.2034
  31247520.62546  24351298.02446  26975965.6284   26975972.7334
     -4242.1414
  11465085.04047   9099092.42646  25419173.3314   25419179.1324
     -3505.9844
  -1670839.31247    959511.43146  26010903.2454   26010909.0344
     -1276.7814
 01  8 19 20 14 30.0150000  0  7G20G 1G14G25G21G29G11
  -1125348.76545   -787230.91745  28151663.2454   28151669.7254
       706.9694
    -12697.13441    -33638.35444  29304378.4254   29304393.9914
       434.6414
  23324539.64446  18238326.70946  26466406.6204   26466412.2224
     -4445.3594
  -2789162.05448  -2113372.46647  25248765.6984   25248771.4294
     -1237.4374
  31374956.28646  24450598.45245  27000215.5814   27000221.7104
     -4253.7034
  11570382.78247   9181142.59546  25439210.8314   25439216.6204
     -3513.9844
  -1632232.40847    989594.73246  26018249.9954   26018255.9254
     -1297.1254
 01  8 19 20 15  0.0150000  0  7G20G 1G14G25G21G29G11
  -1146521.86845   -803729.35145  28147634.8234   28147643.1594
       704.5164
     -9905.78651    -43724.19545  29301918.8234   29301931.7654
       428.2034
  23457986.95346  18342311.58246  26491800.7064   26491806.3314
     -4451.1564
  -2751752.15448  -2084221.86147  25255884.6434   25255890.5034
     -1256.6094
  31502739.93746  24550170.01646  27024532.3084   27024539.2144
     -4265.2194
  11675920.36447   9263379.65346  25459293.8864   25459299.7804
     -3521.8754
  -1593015.23447   1020153.56446  26025712.7684   26025718.5344
     -1317.3914
 01  8 19 20 15 30.0150000  0  7G20G 1G14G25G21G29G11
  -1167617.14045   -820167.07145  28143619.4794   28143627.5934
       701.7344
    -22652.78041    -53656.66944  29299491.9724   29299502.9684
       421.4384
  23591611.39846  18446434.47446  26517229.0424   26517234.6324
     -4457.2344
  -2713762.81548  -2054619.74847  25263113.6674   25263119.2684
     -1276.1254
  31630873.29846  24650014.11946  27048915.3314   27048922.7884
     -4277.0624
  11781698.29647   9345803.99646  25479422.6434   25479428.4214
     -3530.0784
  -1553185.31347   1051189.86546  26033292.2064   26033298.1244
     -1338.0474
 01  8 19 20 16  0.0150000  0  8G20G 1G14G30G25G21G29G11
  -1188630.54745   -836541.10545  28139621.4874   28139627.2654
       698.8914
    -35200.05742    -63433.71444  29297103.2534   29297115.5854
       414.7194
  23725414.73346  18550696.75246  26542690.8704   26542696.4484
     -4463.2504
     31452.38151                  29086848.6204
     -1374.2034
  -2675190.76248  -2024563.57547  25270453.6834   25270459.4724
     -1295.6254
  31759359.06346  24750132.79746  27073364.8234   27073372.1754
     -4288.9224
  11887718.40647   9428417.04146  25499597.8704   25499603.7534
     -3538.2194
  -1512738.67047   1082706.72446  26040988.7454   26040994.7104
     -1358.7034
 01  8 19 20 16 30.0150000  0  8G20G 1G14G30G25G21G29G11
  -1209554.87045   -852845.64645  28135640.9014   28135648.1594
       696.1564
    -47541.26042    -73050.19645  29294754.2454   29294765.2654
       408.1414
  23859401.71846  18655102.15046  26568187.3704   26568193.1944
     -4469.0944
     72932.71242                  29094742.6834
     -1391.0474
  -2636029.30348  -1994048.12147  25277905.8004   25277911.6834
     -1315.0314
  31888203.23646  24850530.75246  27097883.2684   27097890.1634
     -4300.6094
  11993985.32947   9511222.41446  25519819.7224   25519825.4754
     -3546.1414
  -1471668.07447   1114709.77546  26048804.1204   26048809.9914
     -1379.2344
 01  8 19 20 17  0.0150000  0  8G20G 1G14G30G25G21G29G11
  -1230391.18645   -869081.64645  28131676.0114   28131683.0344
       693.0314
    -59678.22043    -82507.45845  29292445.6434   29292456.3824
       401.1414
  23993568.98846  18759648.02146  26593718.9874   26593724.8934
     -4475.2664
    114925.62842                  29102735.4174
     -1408.3444
  -2596279.95848  -1963074.57647  25285469.8864   25285475.6284
     -1334.8124
  32017404.23446  24951206.74446  27122470.3394   27122478.6284
     -4312.6724
  12100495.87847   9594217.62246  25540088.1754   25540094.1044
     -3554.4374
  -1429975.03347   1147197.85846  26056738.3864   26056744.1164
     -1400.1874
 01  8 19 20 17 30.0150000  0  8G20G 1G14G30G25G21G29G11
  -1251129.26745   -885241.07145  28127728.5424   28127735.1164
       689.6884
    -71601.70743    -91798.39245  29290176.4254   29290187.2924
       393.9694
  24127924.16746  18864340.31646  26619285.8704   26619291.9644
     -4481.5474
    157441.96842                  29110824.1364
     -1425.9064
  -2555933.41348  -1931635.68447  25293147.5034   25293153.1864
     -1354.7814
  32146970.53646  25052167.38846  27147126.5034   27147134.5584
     -4324.8914
  12207258.01647   9677408.87046  25560404.1434   25560409.9094
     -3562.8284
  -1387649.65647   1180178.65746  26064792.2224   26064798.2574
     -1421.3284
 01  8 19 20 18  0.0150000  0  8G20G 1G14G30G25G21G29G11
  -1271769.27445   -901324.11345  28123801.0734   28123809.5734
       686.3914
    -83312.85343   -100923.83645  29287946.9644   29287955.0184
       386.8914
  24262464.50346  18969176.89446  26644888.0584   26644894.0584
     -4487.7194
    200482.50142                  29119016.6284
     -1443.3914
  -2514990.22148  -1899731.86447  25300938.7454   25300944.5694
     -1374.6874
  32276901.46146  25153412.18346  27171850.2684   27171858.0304
     -4337.0624
  12314268.95447   9760793.99146  25580767.9644   25580773.7414
     -3571.1254
  -1344692.57047   1213651.70046  26072966.9794   26072972.9794
     -1442.4224
 01  8 19 20 18 30.0150000  0  7G20G 1G14G25G21G29G11
  -1292314.05645   -917332.93145  28119891.5504   28119898.3004
       683.2664
    -94815.36843   -109886.64845  29285758.7684   29285774.2654
       380.0004
  24397184.97646  19074153.82346  26670524.2764   26670530.0424
     -4493.6414
  -2473454.03048  -1867365.97547  25308842.7924   25308848.4054
     -1394.3754
  32407192.54246  25254937.58246  27196643.3934   27196650.8864
     -4349.0164
  12421523.80747   9844369.16846  25601177.8314   25601183.6324
     -3579.1564
  -1301106.85847   1247614.57946  26081260.8704   26081266.8114
     -1463.2974
 01  8 19 20 19  0.0150000  0  8G20G 1G14G30G25G21G29G11
  -1312761.16845   -933265.64445  28115999.8474   28116006.7064
       680.0004
   -106108.04343   -118686.00645  29283608.2614   29283622.0344
       373.0164
  24532085.49046  19179271.04146  26696195.8154   26696201.5934
     -4499.5784
     16225.17053                  29135693.5264
     -1478.2814
  -2431323.08248  -1834536.63147  25316860.1284   25316865.7764
     -1414.2194
  32537844.48646  25356744.18946  27221505.9254   27221512.6864
     -4361.0164
  12529022.44047   9928134.31246  25621634.0584   25621639.8704
     -3587.2814
  -1256890.57247   1282068.81346  26089675.1674   26089681.2024
     -1484.3284
 01  8 19 20 19 30.0150000  0  8G20G 1G14G30G25G21G29G11
  -1333107.60545   -949119.93045  28112127.9874   28112134.4564
       676.6094
   -117188.67143   -127320.09345  29281499.7294   29281512.0974
       365.8914
  24667166.79146  19284529.15546  26721900.3154   26721906.1864
     -4505.6254
     60840.68743                  29144185.4794
     -1495.9374
  -2388595.05748  -1801242.03847  25324990.8864   25324996.5584
     -1434.1564
  32668859.99046  25458834.08746  27246436.7144   27246444.0894
     -4373.1724
  12636765.67347  10012090.05246  25642136.9484   25642142.7844
     -3595.4374
  -1212040.93947   1317016.57846  26098209.7224   26098215.7574
     -1505.4844
 01  8 19 20 20  0.0150000  0  8G20G 1G14G30G25G21G29G11
  -1353350.00845   -964893.17945  28108275.3704   28108282.8044
       672.9224
   -128054.87943   -135787.07345  29279431.3624   29279442.4174
       358.5474
  24802429.83346  19389928.87346  26747640.0734   26747645.5934
     -4511.8444
    105988.40843                  29152775.1674
     -1513.9064
  -2345267.58848  -1767480.34147  25333235.5974   25333241.2454
     -1454.3124
  32800240.89246  25561208.70846  27271439.0734   27271446.9174
     -4385.5164
  12744754.53847  10096237.19346  25662686.4564   25662692.3274
     -3603.7974
  -1166555.10647   1352460.07846  26106865.3234   26106871.3354
     -1526.8914
 01  8 19 20 20 30.0150000  0  8G20G 1G14G30G25G21G29G11
  -1373486.35045   -980583.75045  28104443.2844   28104449.0854
       669.3914
   -138705.72243   -144086.23145  29277405.1984   29277414.2844
       351.3914
  24937874.03546  19495469.76046  26773414.4954   26773420.3904
     -4517.8594
    151670.74343     28509.31955  29161469.1984   29161481.1794
     -1531.7034
  -2301339.72148  -1733250.80647  25341595.0424   25341600.6674
     -1474.3124
  32931987.74646  25663868.48146  27296508.7374   27296516.1004
     -4397.7194
  12852988.67347  10180575.45646  25683282.8474   25683288.8004
     -3611.9224
  -1120431.37747   1388400.64046  26115642.3784   26115648.4364
     -1548.1254
 01  8 19 20 21  0.0150000  0  8G20G 1G14G30G25G21G29G11
  -1393511.58345   -996187.73645  28100634.2454   28100642.1834
       665.4694
   -149137.28344   -152214.52745  29275421.4014   29275435.4794
       343.9064
  25073502.23146  19601154.02446  26799223.4334   26799228.9874
     -4524.1564
    197893.25043     64526.83445  29170264.9794   29170273.6204
     -1549.9224
  -2256806.79448  -1698549.79147  25350069.3234   25350074.9254
     -1494.6874
  33064104.59146  25766816.55946  27321651.7684   27321659.3904
     -4410.2034
  12961470.89147  10265107.01946  25703926.2764   25703932.0544
     -3620.3594
  -1073665.44447   1424841.61746  26124541.7534   26124547.6364
     -1569.7344
 01  8 19 20 21 30.0150000  0  8G20G 1G14G30G25G21G29G11
  -1413416.72245  -1011698.16045  28096845.3154   28096852.5034
       661.4844
   -159341.81144   -160166.02845  29273479.5424   29273493.1514
       336.3444
  25209320.64446  19706986.48646  26825068.6984   26825074.4524
     -4530.4534
    244665.33643    100972.57345  29179165.7144   29179171.5854
     -1568.2664
  -2211661.05748  -1663371.26447  25358660.3474   25358665.9484
     -1515.0784
  33196598.48846  25870058.44346  27346863.6514   27346870.7924
     -4422.7504
  13070207.57647  10349836.87546  25724618.1514   25724623.9174
     -3628.8124
  -1026248.98647   1461789.50546  26133564.8394   26133570.8744
     -1591.4064
 01  8 19 20 22  0.0150000  0  8G20G 1G14G30G25G21G29G11
  -1433203.88545  -1027116.64845  28093080.5344   28093086.9334
       657.4384
   -169322.27243   -167942.83145  29271578.5504   29271590.5424
       328.7814
  25345325.17046  19812963.99246  26850949.4094   26850955.3154
     -4536.7344
    291985.37543    137845.37445  29188169.1124   29188176.9914
     -1586.6564
  -2165905.45048  -1627717.51847  25367367.2684   25367372.5774
     -1535.5164
  33329466.43946  25973591.79545  27372146.5974   27372154.1124
     -4435.3444
  13179194.56747  10434761.77446  25745358.0424   25745363.9254
     -3637.2194
   -978184.54747   1499242.30446  26142711.0034   26142716.6284
     -1613.1094
 01  8 19 20 22 30.0150000  0  8G20G 1G14G30G25G21G29G11
  -1452861.48245  -1042434.19545  28089340.4254   28089346.2374
       653.2034
   -179068.25443   -175536.87645  29269723.4014   29269733.6364
       321.0634
  25481524.71346  19919093.45046  26876867.7764   26876873.3904
     -4543.0944
    339865.32143    175154.49645  29197282.6204   29197291.2494
     -1605.2034
  -2119529.04948  -1591580.03447  25376192.4254   25376197.8394
     -1556.0944
  33462718.88846  26077424.75646  27397505.0584   27397512.4794
     -4448.0004
  13288440.87847  10519888.74946  25766146.7764   25766152.5774
     -3645.7194
   -929461.00147   1537208.69346  26151982.8624   26151988.7104
     -1634.9694
 01  8 19 20 23  0.0150000  0  8G20G 1G14G30G25G21G29G11
  -1472387.73345  -1057649.31845  28085623.5184   28085630.1754
       648.6724
   -188579.07143   -182947.81845  29267914.1124   29267925.3314
       313.1094
  25617918.51146  20025374.29546  26902822.9874   26902829.0584
     -4549.6874
    388307.44043    212901.54845  29206499.4014   29206505.1324
     -1624.1414
  -2072531.44848  -1554958.49947  25385135.6904   25385141.3154
     -1576.9374
  33596355.67246  26181557.18646  27422935.2224   27422942.7494
     -4460.9694
  13397945.88347  10605217.29846  25786984.8004   25786990.6364
     -3654.4694
   -880077.45847   1575689.36746  26161380.3704   26161386.2764
     -1657.1254
 01  8 19 20 23 30.0150000  0  8G20G 1G14G30G25G21G29G11
  -1491777.06045  -1072757.81745  28081934.5504   28081941.7144
       644.0634
   -197850.35844   -190172.02645  29266150.4094   29266163.1404
       305.1254
  25754509.64346  20131808.88346  26928815.2614   26928821.0264
     -4556.2504
    437317.36243    251091.12745  29215826.1124   29215835.9134
     -1643.0624
  -2024908.04348  -1517849.32147  25394198.1364   25394203.5614
     -1597.8124
  33730380.81746  26285992.27846  27448439.7224   27448446.9564
     -4473.9224
  13507712.80547  10690749.93846  25807872.5584   25807878.4644
     -3663.1874
   -830028.89647   1614688.23546  26170904.2534   26170910.2184
     -1679.3124
 01  8 19 20 24  0.0150000  0  8G20G 1G14G30G25G21G29G11
  -1511025.22145  -1087756.27845  28078270.9794   28078277.4134
       639.3914
   -206878.78044   -197206.91945  29264431.9564   29264447.8744
       297.0314
  25891300.29746  20238398.95646  26954844.6904   26954850.5504
     -4562.8594
    486899.70344    289726.70845  29225260.4644   29225270.7684
     -1662.1564
  -1976655.38148  -1480249.81947  25403380.5034   25403385.8934
     -1618.7664
  33864797.88445  26390732.71745  27474016.7614   27474025.2724
     -4486.9534
  13617743.72447  10776488.29246  25828811.2844   25828817.2254
     -3671.9374
   -779311.63647   1654208.17246  26180555.4334   26180561.1754
     -1701.5784
 01  8 19 20 24 30.0150000  0  8G20G 1G14G30G25G21G29G11
  -1530138.01445  -1102649.24245  28074633.7614   28074641.1714
       634.9064
   -215671.44345   -204058.17645  29262760.1434   29262773.7534
       289.2814
  26028281.97946  20345137.88946  26980912.6434   26980918.2574
     -4569.1414
    537048.96644    328804.10945  29234804.7294   29234814.6004
     -1681.0164
  -1927780.75048  -1442165.66547  25412680.7224   25412686.1244
     -1639.4224
  33999599.37946  26495772.70345  27499671.2294   27499679.1434
     -4499.6874
  13728030.22547  10862425.79446  25849797.7924   25849803.4054
     -3680.3754
   -727932.49247   1694243.86046  26190332.5814   26190338.7104
     -1723.5784
 01  8 19 20 25  0.0150000  0  8G20G 1G14G30G25G21G29G11
  -1549111.57245  -1117433.75345  28071023.4014   28071029.5424
       630.1724
   -224225.76444   -210723.72745  29261130.7924   29261145.8784
       281.2194
  26165456.15146  20452026.78646  27007016.3544   27007022.1904
     -4575.6094
    587769.35744    368326.51245  29244455.3784   29244464.8504
     -1700.1414
  -1878281.20748  -1403594.56947  25422100.1044   25422105.6594
     -1660.3444
  34134788.03346  26601114.37945  27525396.1834   27525403.3934
     -4512.6874
  13838573.80847  10948563.62946  25870833.6514   25870839.5224
     -3689.0004
   -675888.40047   1734797.68946  26200236.2454   26200242.2574
     -1745.8444
 01  8 19 20 25 30.0160000  0  8G20G 1G14G30G25G21G29G11
  -1567940.37745  -1132105.44145  28067440.8124   28067448.0234
       625.2344
   -232536.66844   -217199.58145  29259548.8054   29259561.3014
       273.0314
  26302831.37846  20559072.36246  27033157.7264   27033163.7264
     -4582.2194
    639069.16044    408300.40945  29254218.1954   29254231.4764
     -1719.5164
  -1828149.65148  -1364530.99747  25431639.8674   25431645.5274
     -1681.4374
  34270373.16946  26706765.02745  27551196.2194   27551204.0394
     -4525.8124
  13949382.36047  11034907.92446  25891919.9614   25891925.7974
     -3697.7664
   -623171.85147   1775875.51146  26210267.8444   26210273.5984
     -1768.2814
 01  8 19 20 26  0.0160000  0  8G20G 1G14G30G25G21G29G11
  -1586620.68545  -1146661.40445  28063885.6954   28063893.0944
       620.1884
   -240602.64145   -223484.59545  29258014.6014   29258025.1764
       264.7974
  26440398.46046  20666267.43346  27059336.4144   27059342.3084
     -4588.8284
    690947.27744    448724.94545  29264088.5164   29264097.1214
     -1738.9694
  -1777388.35848  -1324976.72247  25441299.4064   25441305.0084
     -1702.5624
  34406345.85246  26812717.61945  27577072.2504   27577080.3874
     -4538.9534
  14060448.21647  11121452.71946  25913054.7114   25913060.5824
     -3706.5624
   -569784.84247   1817475.76546  26220426.9924   26220432.9694
     -1790.7814
 01  8 19 20 26 30.0160000  0  8G20G 1G14G30G25G21G29G11
  -1605154.73845  -1161103.48845  28060359.6094   28060366.7154
       615.5004
   -248426.75144   -229581.12145  29256524.3444   29256540.2154
       256.9384
  26578157.75846  20773612.30546  27085550.5314   27085556.5314
     -4595.0164
    743404.01944    489600.33045  29274072.2734   29274083.1174
     -1758.0474
  -1725998.49548  -1284932.65247  25451078.3594   25451084.0434
     -1723.3284
  34542707.84645  26918973.61045  27603020.9764   27603030.2264
     -4551.7504
  14171771.12247  11208197.80646  25934239.1484   25934245.0434
     -3714.8914
   -515728.38947   1859597.65946  26230713.6174   26230719.5004
     -1812.9064
 01  8 19 20 27  0.0160000  0  8G20G 1G14G30G25G21G29G11
  -1623546.04545  -1175434.25045  28056857.2264   28056864.2384
       610.7034
   -256013.44944   -235492.70745  29255081.9844   29255095.4884
       248.9694
  26716103.39146  20881102.34046  27111799.7194   27111805.5194
     -4601.2504
    796436.30744    530924.20145  29284163.5704   29284172.1174
     -1777.3124
  -1673984.61748  -1244402.33947  25460976.2894   25460981.8324
     -1744.1564
  34679454.66846  27025529.42045  27629043.3124   27629051.6484
     -4564.5944
  14283345.25447  11295138.66446  25955470.8204   25955476.8324
     -3723.2664
   -461006.57447   1902238.02546  26241127.0234   26241133.1054
     -1835.1094
 01  8 19 20 27 30.0160000  0  8G20G 1G14G30G25G21G29G11
  -1641790.67745  -1189650.76545  28053387.7114   28053394.2624
       605.7974
   -263360.30143   -241217.37645  29253681.8834   29253692.0004
       241.0314
  26854236.94146  20988738.81546  27138087.3514   27138093.3754
     -4607.4534
    850047.68144    572699.30345  29294365.7584   29294373.5664
     -1796.6094
  -1621344.16948  -1203383.79147  25470993.5314   25470998.9804
     -1765.0004
  34816588.37645  27132386.74745  27655138.8124   27655147.0434
     -4577.4694
  14395171.95647  11382276.32846  25976750.9374   25976757.0434
     -3731.6414
   -405616.62247   1945399.01146  26251667.3284   26251673.2584
     -1857.3594
 01  8 19 20 28  0.0160000  0  8G20G 1G14G30G25G21G29G11
  -1659892.40045  -1203755.95045  28049942.1014   28049948.7344
       601.1884
   -270472.27044   -246759.02445  29252329.3444   29252338.9804
       233.3134
  26992551.94146  21096516.67546  27164407.6564   27164413.9024
     -4613.3124
    904234.43943    614922.79445  29304676.8984   29304684.4374
     -1815.6414
  -1568082.47848  -1161881.15747  25481129.0944   25481134.5194
     -1785.5624
  34954103.68245  27239541.41045  27681307.3364   27681317.1014
     -4590.0004
  14507245.26947  11469606.15946  25998077.6334   25998083.7264
     -3739.6874
   -349563.31547   1989076.89446  26262333.9224   26262339.8984
     -1879.3124
 01  8 19 20 28 30.0160000  0  8G20G 1G14G30G25G21G29G11
  -1677855.57145  -1217753.10245  28046523.1094   28046529.3444
       596.4224
   -277354.80844   -252121.92345  29251019.6174   29251032.2304
       225.5784
  27131041.86246  21204430.84246  27190760.3124   27190766.2894
     -4619.2664
    958992.53243    657591.39645  29315097.8914   29315107.2464
     -1834.8444
  -1514204.77648  -1119898.51947  25491381.4694   25491386.9064
     -1806.2194
  35091994.33145  27346988.53545  27707544.5164   27707553.6724
     -4602.6724
  14619558.44447  11557122.88946  26019450.2194   26019455.9494
     -3747.7974
   -292851.67247   2033267.77346  26273125.7814   26273131.6644
     -1901.3914
 01  8 19 20 29  0.0160000  0  8G20G 1G14G30G25G21G29G11
  -1695677.39245  -1231640.17545  28043131.3284   28043138.2234
       591.8754
   -284006.75444   -257305.10645  29249754.7194   29249767.0274
       218.0784
  27269706.89246  21312481.44846  27217148.5704   27217154.6174
     -4624.9064
   1014324.92543    700707.58245  29325627.0944   29325636.4614
     -1853.8124
  -1459710.00748  -1077435.04447  25501751.6954   25501757.1804
     -1826.6094
  35230261.53545  27454729.06645  27733858.8444   27733867.2854
     -4615.0004
  14732111.79047  11644826.76346  26040868.3914   26040874.3444
     -3755.6094
   -235480.35047   2077972.68446  26284043.1484   26284048.9024
     -1923.2034
